     2              OBSERVATION DATA    GPS                 RINEX VERSION / TYPE
TRRINEXO V2.8.4 LH                                          PGM / RUN BY / DATE
                                                            COMMENT
BIT 2 OF LLI (+4) FLAGS DATA COLLECTED UNDER "AS" CONDITION COMMENT
Original Marker Name: 0180                                  COMMENT
Campaign Name: coachelle valley 1990                        COMMENT
4-Character Station Name: 0180                              COMMENT
6-Character Antenna Code: TRMSST                            COMMENT
Vertical Measurement Point: TGP                             COMMENT
Vertical Offset to Rinex Ref. Point: 0.0629                 COMMENT
Radial Measurement Point: NGP                               COMMENT
Radial Offset to Rinex Ref. Point: 0.2334                   COMMENT
Antenna Height from Field Measurement: 0.7060 m             COMMENT
Original XYZ: -2348944.9189 -4752432.2668 3535067.7056      COMMENT
New XYZ position is based on association with SCEC monument COMMENT
E1D0U4R7+0011. Position of that monument is believed to be  COMMENT
valid to within 1 m horizontally; vertical accuracy         COMMENT
should be no worse than 3-times this value.                 COMMENT
                                                            COMMENT
Revised Rinex header created by UCSD GPS archive for        COMMENT
GSAC on 19-Apr-1999 (1999:109) 07:55:21 GMT                 COMMENT
For assistance contact dagnew@ucsd.edu or hjohnson@ucsd.edu COMMENT
                                                            COMMENT
T3S R6E R7E S25 S30 S36 S31 1912                            MARKER NAME
UNKNOWN OBSERVER RIVERSIDE COUNTY FCWCD                     OBSERVER / AGENCY
432 TRIMBLE 4000 SST 4.11 / 4.10                            REC # / TYPE / VERS
97 TR 4000SST L1/L2 GEO                                     ANT # / TYPE
 -2348944.0000 -4752433.0000  3535072.0000                  APPROX POSITION XYZ
        0.6034        0.0000        0.0000                  ANTENNA: DELTA H/E/N
     1     2     0                                          WAVELENGTH FACT L1/2
     3    C1    L1    L2                                    # / TYPES OF OBSERV
     0                                                      INTERVAL
  1990    10    22    10    42   45.000000                  TIME OF FIRST OBS
  1990    10    22    17    42    0.000000                  TIME OF LAST OBS
     0                                                      # OF SATELLITES
                                                            END OF HEADER
 90 10 22 10 42 45.0000000  0  5 02 06 11 15 18
  20730525.867          -0.006 7
  22090730.195          -0.79516
  23907344.078          -0.31916
  24573824.594          -0.69415
  22146211.227          -0.98617
 90 10 22 10 43  0.0000000  0  5 02 06 11 15 18
  20730371.711        -799.832 7
  22085202.398      -29055.153 6
  23915527.945       43006.073 6
  24568117.313      -29961.878 5
  22155422.109       48410.417 7
 90 10 22 10 43 15.0000000  0  5 02 06 11 15 18
  20730228.984       -1557.419 7        -0.34013
  22079671.297      -58115.625 6        -0.24311
  23923725.797       86085.323 6        -0.39011
  24562422.539      -59892.894 5
  22164645.688       96873.450 7        -0.46611
 90 10 22 10 43 30.0000000  0  5 02 06 11 15 18
  20730096.242       -2261.000 7      -548.587 3
  22074143.414      -87170.282 6    -22640.227 1
  23931944.250      129248.959 6     33633.599 1
  24556736.477      -89781.297 5        -0.35711
  22173879.008      145399.808 6     37812.279 1
 90 10 22 10 43 45.0000000  0  5 02 06 11 15 18
  20729965.773       -2937.477 7     -1075.709 3
  22068609.930     -116245.711 6    -45296.402 1
  23940163.281      172469.880 6     67312.244 1
  24551052.492     -119653.659 5    -23277.483 1
  22183120.625      193962.354 6     75653.217 1
 90 10 22 10 44  0.0000000  0  5 02 06 11 15 18
  20729847.242       -3563.229 7     -1563.305 3
  22063078.438     -145318.164 6    -67950.249 1
  23948406.102      215771.368 6    101053.670 1
  24545375.063     -149485.625 5    -46523.176 1
  22192371.648      242584.488 6    113540.595 1
 90 10 22 10 44 15.0000000  0  5 02 06 11 15 18
  20729739.008       -4131.260 7     -2005.917 3
  22057547.672     -174380.245 6    -90596.023 1
  23956662.664      259160.277 6    134863.196 1
  24539703.109     -179269.848 5    -69731.657 1
  22201638.078      291272.987 6    151479.677 1
 90 10 22 10 44 30.0000000  0  5 02 06 11 15 18
  20729636.984       -4664.266 7     -2421.237 3
  22052015.508     -203454.480 6   -113251.262 1
  23964932.977      302613.570 6    168722.891 1
  24534042.664     -209028.825 5    -92920.460 1
  22210910.742      340004.843 6    189452.549 1
 90 10 22 10 44 45.0000000  0  5 02 06 11 15 18
  20729546.719       -5150.694 7     -2800.270 3
  22046480.281     -232529.227 6   -135906.900 1
  23973218.398      346142.432 6    202641.484 1
  24528389.469     -238750.394 5   -116080.101 1
  22220196.117      388791.363 6    227468.012 1
 90 10 22 10 45  0.0000000  0  5 02 06 11 15 18
  20729458.625       -5601.552 7     -3151.587 3
  22040947.141     -261615.190 6   -158571.282 1
  23981513.367      389735.453 6    236610.064 1
  24522734.813     -268444.985 5   -139218.749 1
  22229487.391      437621.033 6    265517.101 1
 90 10 22 10 45 15.0000000  0  5 02 06 11 15 18
  20729380.945       -6005.039 7     -3465.991 3
  22035412.711     -290700.337 6   -181235.038 1
  23989820.258      433404.354 6    270637.778 1
  24517092.016     -298100.410 5   -162326.878 1
  22238789.445      486505.874 6    303609.183 1
 90 10 22 10 45 30.0000000  0  5 02 06 11 15 18
  20729320.023       -6341.382 7     -3728.074 3
  22029882.359     -319764.483 6   -203882.408 1
  23998150.070      477168.662 6    304739.833 1
  24511462.227     -327696.580 5   -185388.802 1
  22248106.742      535465.164 6    341759.271 1
 90 10 22 10 45 45.0000000  0  5 02 06 11 15 18
  20729264.375       -6624.464 7     -3948.651 3
  22024353.211     -348821.304 6   -226524.083 1
  24006493.141      521014.361 6    338905.312 1
  24505839.734     -357246.807 5   -208414.945 1
  22257433.180      584484.734 6    379956.340 1
 90 10 22 10 46  0.0000000  0  5 02 06 11 15 18
  20729218.984       -6874.525 7     -4143.498 3
  22018818.719     -377890.904 6   -249175.717 1
  24014848.305      564920.959 6    373118.251 1
  24500220.203     -386770.810 6   -231420.638 1
  22266770.586      633544.350 6    418184.609 1
 90 10 22 10 46 15.0000000  0  5 02 06 11 15 18
  20729180.984       -7074.853 7
  22013289.391     -406956.290 6   -271824.067 1
  24023218.883      608904.831 6    407391.391 1
  24494610.883     -416251.500 5   -254392.604 1
  22276117.438      682660.273 6    456456.751 1
 90 10 22 10 46 30.0000000  0  5 02 06 11 15 18
  20729151.125       -7223.976 7
  22007758.563     -436015.792 6   -294467.829 1
  24031601.531      652967.168 5    441725.668 1
  24489010.227     -445686.664 5   -277329.063 1
  22285472.453      731833.758 6    494773.749 1
 90 10 22 10 46 45.0000000  0  5 02 06 11 15 18
  20729130.891       -7322.505 7
  22002231.242     -465069.503 6   -317107.082 1
  24040002.773      697107.184 5    476120.475 1
  24483417.531     -475076.763 5   -300230.438 1
  22294841.734      781064.127 6    533135.072 1
 90 10 22 10 47  0.0000000  0  5 02 06 11 15 18
  20729122.391       -7366.140 7
  21996703.805     -494113.120 6   -339738.479 1
  24048414.719      741328.856 5    510578.906 1
  24477833.297     -504416.619 5   -323092.614 1
  22304221.813      830355.073 6    571543.594 1
 90 10 22 10 47 15.0000000  0  5 02 06 11 15 18
  20729125.195       -7344.758 7
  21991179.367     -523136.223 6   -362353.873 1
  24056850.180      785641.998 5    545108.608 1
  24472263.586     -533695.838 5   -345907.609 1
  22313614.930      879716.715 6    610007.217 1
 90 10 22 10 47 30.0000000  0  5 02 06 11 15 18
  20729142.789       -7280.211 7
  21985656.602     -552160.419 6   -384970.127 1
  24065295.844      830024.564 5    579692.418 1
  24466700.070     -562935.873 5   -368692.038 1
  22323017.336      929126.986 6    648508.722 1
 90 10 22 10 47 45.0000000  0  5 02 06 11 15 18
  20729162.523       -7157.402 7
  21980137.125     -581170.332 6   -407575.249 1
  24073757.758      874491.444 5    614341.927 1
  24461144.602     -592121.114 5   -391433.754 1
  22332431.875      978600.822 6    687059.757 1
 90 10 22 10 48  0.0000000  0  5 02 06 11 15 18
  20729195.734       -6980.090 7
  21974619.977     -610169.325 6   -430171.859 1
  24082232.250      919038.688 5    649054.050 1
  24455598.836     -621254.954 5   -414135.428 1
  22341858.719     1028134.331 6    725657.297 1
 90 10 22 10 48 15.0000000  0  5 02 06 11 15 18
  20729239.625       -6753.516 7
  21969101.945     -639162.568 6
  24090724.836      963660.586 5    683824.346 1
  24450063.008     -650342.206 5
  22351293.359     1077721.828 6    764296.899 1
 90 10 22 10 48 30.0000000  0  5 02 06 11 15 18
  20729293.406       -6479.436 7
  21963584.914     -668151.475 6
  24099230.891     1008355.109 5    718651.246 1
  24444534.109     -679384.151 5
  22360740.547     1127361.174 6    802976.907 1
 90 10 22 10 48 45.0000000  0  5 02 06 11 15 18
  20729354.406       -6154.855 7        -0.22213
  21958068.523     -697133.030 6
  24107750.273     1053124.905 5    753536.786 1
  24439019.625     -708377.229 5
  22370195.914     1177054.981 6    841699.355 1
 90 10 22 10 49  0.0000000  0  5 02 06 11 15 18
  20729424.641       -5783.759 7       288.945 3
  21952555.398     -726110.942 6
  24116282.031     1097965.710 5    788477.662 1
  24433513.367     -737325.197 5
  22379662.547     1226799.101 6    880461.003 1
 90 10 22 10 49 15.0000000  0  6 02 06 11 15 18 13
  20729506.375       -5364.312 7       615.793 3
  21947042.227     -755083.002 6
  24124829.313     1142879.240 5    823475.195 1
  24428009.758     -766225.685 5
  22389139.500     1276595.439 6    919263.338 1
  24576875.453          -0.03514
 90 10 22 10 49 30.0000000  0  6 02 06 11 15 18 13
  20729592.609       -4901.333 7       976.558 3
  21941530.148     -784053.568 6   -565666.053 1
  24133388.141     1187860.526 5    858525.537 1
  24422521.766     -795082.823 5
  22398623.273     1326438.814 6    958102.336 1
  24565624.430      -59129.527 4
 90 10 22 10 49 45.0000000  0  6 02 06 11 15 18 13
  20729691.250       -4388.712 7      1376.005 3
  21936019.188     -813016.514 6   -588234.573 1
  24141966.680     1232915.283 5    893633.126 1
  24417040.789     -823890.239 5
  22408118.500     1376334.911 6    996982.407 1
  24554372.563     -118259.734 4
 90 10 22 10 50  0.0000000  0  6 02 06 11 15 18 13
  20729798.969       -3824.594 7      1815.583 3
  21930509.992     -841969.566 6   -610795.389 1
  24150552.898     1278045.151 5    928799.243 1
  24411567.156     -852645.183 5        -0.34811
  22417623.852     1426285.461 6   1035904.897 1
  24543120.773     -177388.445 4
 90 10 22 10 50 15.0000000  0  6 02 06 11 15 18 13
  20729917.883       -3200.399 7      2301.976 3
  21925002.859     -870903.944 6   -633341.650 1
  24159155.898     1323258.476 5    964030.383 1
  24406109.758     -881338.884 5    -22359.068 1
  22427140.188     1476298.919 6   1074876.430 1
  24531869.648     -236506.664 4
 90 10 22 10 50 30.0000000  0  6 02 06 11 15 18 13
  20730042.992       -2528.935 7      2825.197 3
  21919499.211     -899832.255 6   -655883.188 1
  24167773.516     1368541.988 5    999316.229 1
  24400656.898     -909983.833 5    -44679.811 1
  22436666.766     1526362.045 6   1113886.650 1
  24520621.953     -295626.588 4
 90 10 22 10 50 45.0000000  0  6 02 06 11 15 18 13
  20730180.688       -1808.446 8      3386.616 3
  21913996.117     -928752.550 6   -678418.476 1
  24176406.156     1413897.291 5   1034658.018 1
  24395211.883     -938577.708 5    -66960.732 1
  22446203.898     1576476.195 6   1152936.640 1
  24509371.984     -354746.124 4
 90 10 22 10 51  0.0000000  0  6 02 06 11 15 18 13
  20730325.727       -1043.037 7      3983.035 3
  21908492.969     -957668.721 6   -700950.556 1
  24185045.211     1459319.983 5   1070052.315 1
  24389785.195     -967124.215 5    -89204.735 1
  22455749.648     1626637.318 6   1192023.219 1
  24498122.258     -413869.152 4
 90 10 22 10 51 15.0000000  0  6 02 06 11 15 18 13
  20730480.656        -230.049 8      4616.533 3
  21902992.000     -986577.827 6   -723477.127 1
  24193703.563     1504812.356 5   1105500.897 1
  24384361.813     -995620.436 5   -111409.561 1
  22465304.133     1676847.691 6   1231148.180 1
  24486872.617     -472992.490 4
 90 10 22 10 51 30.0000000  0  6 02 06 11 15 18 13
  20730647.266         634.375 8      5290.112 3
  21897491.375    -1015475.600 6   -745994.869 1
  24202372.273     1550378.045 5   1141006.608 1
  24378946.438    -1024061.671 5   -133571.521 1
  22474868.680     1727111.090 6   1270314.457 1
  24475620.414     -532111.894 5        -0.44911
 90 10 22 10 51 45.0000000  0  6 02 06 11 15 18 13
  20730821.539        1552.791 7      6005.761 3
  21891996.063    -1044359.468 6   -768501.779 1
  24211061.148     1596019.473 5   1176571.327 1
  24373545.719    -1052445.083 5   -155688.453 1
  22484444.398     1777429.500 6   1309523.600 1
  24464370.180     -591224.339 5    -46062.109 1
 90 10 22 10 52  0.0000000  0  6 02 06 11 15 18 13
  20731003.953        2511.796 7      6753.032 3
  21886499.414    -1073242.471 6   -791008.015 1
  24219755.844     1641722.995 5   1212184.447 1
  24368155.211    -1080783.604 5   -177770.397 1
  22494028.164     1827789.180 6   1348764.908 1
  24453119.672     -650342.488 5    -92128.174 1
 90 10 22 10 52 15.0000000  0  6 02 06 11 15 18 13
  20731202.984        3557.385 8      7567.781 3
  21881013.938    -1102078.156 6   -813477.370 1
  24228476.156     1687534.244 5   1247881.515 1
  24362778.734    -1109030.580 5   -199781.000 1
  22503627.383     1878236.386 6   1388074.413 1
  24441878.922     -709419.856 5   -138162.466 1
 90 10 22 10 52 30.0000000  0  6 02 06 11 15 18 13
  20731417.789        4685.561 7      8446.883 3
  21875533.352    -1130870.264 6   -835912.775 1
  24237210.672     1733449.094 5   1283659.304 1
  24357420.070    -1137189.680 5   -221723.142 1
  22513244.094     1928766.801 6   1427448.768 1
  24430643.383     -768459.812 5   -184167.623 1
 90 10 22 10 52 45.0000000  0  6 02 06 11 15 18 13
  20731639.469        5849.216 8      9353.626 3
  21870054.047    -1159665.601 6   -858350.696 1
  24245960.609     1779420.072 5   1319480.836 1
  24352069.563    -1165307.485 5   -243633.110 1
  22522865.867     1979333.049 6   1466851.037 1
  24419406.875     -827509.050 5   -230180.003 1
 90 10 22 10 53  0.0000000  0  6 02 06 11 15 18 13
  20731867.133        7053.285 8     10291.854 3
  21864575.922    -1188459.205 6   -880787.268 1
  24254718.336     1825451.648 5   1355349.593 1
  24346728.430    -1193378.863 5   -265506.890 1
  22532495.578     2029939.548 6   1506284.659 1
  24408167.555     -886562.615 4   -276195.772 1
 90 10 22 10 53 15.0000000  0  6 02 06 11 15 18 13
  20732106.422        8300.698 8     11263.867 3
  21859094.117    -1217247.853 6   -903219.981 2
  24263490.172     1871546.547 5   1391267.663 1
  24341396.336    -1221400.370 5   -287341.802 1
  22542133.656     2080589.191 6   1545751.911 1
  24396933.828     -945617.097 4   -322212.209 1
 90 10 22 10 53 30.0000000  0  6 02 06 11 15 18 13
  20732350.703        9594.419 8     12271.965 3
  21853619.242    -1246028.216 6   -925646.231 2
  24272276.781     1917707.548 5   1427237.279 1
  24336073.742    -1249368.557 5   -309135.183 1
  22551780.711     2131284.424 6   1585254.685 1
  24385693.922    -1004668.686 4   -368226.459 1
 90 10 22 10 53 45.0000000  0  6 02 06 11 15 18 13
  20732607.758       10942.111 8     13322.114 3
  21848145.070    -1274792.364 6   -948059.851 2
  24281072.656     1963942.194 5   1463264.234 1
  24330761.953    -1277274.989 5   -330880.428 1
  22561437.344     2182032.880 6   1624798.941 1
  24374461.367    -1063709.357 4   -414232.150 1
 90 10 22 10 54  0.0000000  0  6 02 06 11 15 18 13
  20732875.219       12344.101 8     14414.576 3
  21842674.234    -1303539.858 6   -970460.499 2
  24289888.406     2010250.335 5   1499348.502 1
  24325463.266    -1305119.274 5   -352577.250 1
  22571104.664     2232834.659 6   1664384.731 1
  24363226.844    -1122738.444 4   -460228.805 1
 90 10 22 10 54 15.0000000  0  6 02 06 11 15 18 13
  20733150.523       13793.850 8     15544.257 3
  21837207.492    -1332276.698 6   -992852.838 1
  24298710.180     2056625.390 5   1535484.912 1
  24320176.242    -1332907.276 5   -374230.212 1
  22580780.555     2283683.031 6   1704006.841 1
  24351995.031    -1181761.792 4   -506221.000 1
 90 10 22 10 54 30.0000000  0  6 02 06 11 15 18 13
  20733439.508       15311.429 7     16726.784 3
  21831744.789    -1360982.747 6  -1015221.185 2
  24307554.070     2103086.986 6   1571688.737 1
  24314904.844    -1360618.573 5   -395823.406 1
  22590471.219     2334597.617 6   1743680.544 1
  24340767.391    -1240758.999 4   -552192.853 1
 90 10 22 10 54 45.0000000  0  6 02 06 11 15 18 13
  20733732.523       16852.217 7     17927.405 3
  21826279.070    -1389702.323 6  -1037600.065 1
  24316402.039     2149590.175 6   1607925.001 1
  24309636.813    -1388297.320 5   -417391.243 1
  22600163.766     2385533.304 6   1783370.683 1
  24329537.852    -1299774.398 4   -598178.887 1
 90 10 22 10 55  0.0000000  0  6 02 06 11 15 18 13
  20734034.156       18431.859 7     19158.292 3
  21820814.813    -1418419.532 6  -1059977.107 2
  24325259.219     2196150.246 5   1644205.565 1
  24304379.328    -1415927.627 5   -438921.345 1
  22609862.266     2436505.715 6   1823089.443 1
  24318307.492    -1358791.749 4   -644166.380 1
 90 10 22 10 55 15.0000000  0  6 02 06 11 15 18 13
  20734344.273       20065.549 7     20431.294 3
  21815353.125    -1447118.809 6  -1082340.176 2
  24334137.648     2242782.406 5   1680542.317 1
  24299131.922    -1443493.378 5   -460401.111 1
  22619573.438     2487530.187 6   1862848.766 1
  24307076.453    -1417795.078 4   -690142.988 1
 90 10 22 10 55 30.0000000  0  6 02 06 11 15 18 13
  20734664.609       21749.898 8     21743.776 3
  21809893.953    -1475803.206 6  -1104691.644 2
  24343019.641     2289483.117 5   1716932.475 1
  24293899.328    -1470997.700 5   -481833.038 1
  22629291.242     2538602.928 6   1902645.700 1
  24295851.719    -1476787.568 4   -736111.188 1
 90 10 22 10 55 45.0000000  0  6 02 06 11 15 18 13
  20734993.742       23481.424 7     23093.015 3
  21804439.742    -1504476.110 6  -1127034.164 2
  24351921.922     2336248.446 5   1753372.978 1
  24288677.539    -1498443.654 5   -503219.475 1
  22639017.648     2589720.006 6   1942477.194 1
  24284629.305    -1535772.313 4   -782073.304 1
 90 10 22 10 56  0.0000000  0  6 02 06 11 15 18 13
  20735334.141       25268.034 7     24485.180 3
  21798984.078    -1533129.332 6  -1149361.349 2
  24360835.758     2383085.912 6   1789869.701 1
  24283466.867    -1525822.946 5   -524553.966 1
  22648755.117     2640888.866 6   1982349.025 1
  24273406.164    -1594741.044 4   -828022.959 1
 90 10 22 10 56 15.0000000  0  6 02 06 11 15 18 13
  20735681.750       27092.342 7     25906.719 3
  21793532.922    -1561779.880 6  -1171686.444 2
  24369758.172     2429977.972 6   1826408.971 1
  24278263.008    -1553152.343 5   -545849.574 1
  22658498.992     2692092.090 6   2022247.630 1
  24262184.813    -1653710.552 4   -873973.200 1
 90 10 22 10 56 30.0000000  0  6 02 06 11 15 18 13
  20736035.727       28957.703 7     27360.247 3
  21788082.609    -1590424.351 6  -1194006.814 2
  24378690.117     2476927.564 6   1862993.062 1
  24273073.273    -1580428.153 5   -567103.452 1
  22668249.867     2743332.646 6   2062175.339 1
  24250965.039    -1712677.268 4   -919921.289 1
 90 10 22 10 56 45.0000000  0  6 02 06 11 15 18 13
  20736401.617       30877.691 8     28856.346 3
  21782635.242    -1619048.604 6  -1216311.421 2
  24387636.938     2523948.065 6   1899632.417 1
  24267895.844    -1607636.336 5   -588304.630 1
  22678009.945     2794623.966 6   2102142.600 1
  24239748.625    -1771626.697 5   -965855.903 1
 90 10 22 10 57  0.0000000  0  6 02 06 11 15 18 13
  20736776.469       32846.704 7     30390.639 3
  21777191.414    -1647658.139 6  -1238604.566 2
  24396598.703     2571033.510 5   1936322.381 1
  24262728.625    -1634781.935 5   -609457.032 1
  22687779.375     2845960.355 6   2142144.974 1
  24228531.305    -1830564.159 5  -1011781.179 1
 90 10 22 10 57 15.0000000  0  6 02 06 11 15 18 13
  20737162.250       34878.184 7     31973.613 3
  21771754.078    -1676239.146 6  -1260875.481 2
  24405577.313     2618196.996 6   1973073.136 1
  24257579.555    -1661851.269 5   -630550.018 1
  22697559.320     2897354.898 6   2182192.665 1
  24217321.297    -1889475.748 5  -1057686.325 1
 90 10 22 10 57 30.0000000  0  6 02 06 11 15 18 13
  20737558.508       36957.946 7     33594.212 3
  21766317.367    -1704805.656 6  -1283135.087 2
  24414560.320     2665424.180 5   2009873.543 1
  24252440.211    -1688857.918 5   -651594.144 1
  22707348.219     2948793.141 6   2222274.411 1
  24206112.844    -1948375.173 5  -1103581.956 1
 90 10 22 10 57 45.0000000  0  6 02 06 11 15 18 13
  20737964.563       39089.181 7     35254.919 3
  21760884.625    -1733354.063 6  -1305380.597 2
  24423559.844     2712718.081 5   2046725.950 1
  24247315.641    -1715798.387 5   -672586.690 1
  22717145.203     3000278.063 6   2262392.526 1
  24194909.477    -2007258.845 5  -1149465.340 1
 90 10 22 10 58  0.0000000  0  6 02 06 11 15 18 13
  20738379.844       41273.044 7     36956.631 3
  21755454.711    -1761883.090 6  -1327611.003 2
  24432576.563     2760079.531 6   2083630.959 1
  24242198.867    -1742670.952 5   -693526.340 1
  22726950.711     3051810.449 6   2302547.633 1
  24183705.477    -2066125.132 5  -1195335.142 1
 90 10 22 10 58 15.0000000  0  6 02 06 11 15 18 13
  20738803.484       43498.129 7     38690.467 3
  21750027.852    -1790403.740 6  -1349834.883 2
  24441595.383     2807496.814 5   2120579.493 1
  24237096.305    -1769486.489 5   -714421.538 1
  22736764.430     3103378.480 6   2342730.511 1
  24172505.008    -2124985.205 5  -1241200.121 1
 90 10 22 10 58 30.0000000  0  6 02 06 11 15 18 13
  20739236.461       45773.602 7     40463.565 3
  21744604.813    -1818906.591 6  -1372044.897 2
  24450632.711     2854978.865 6   2157578.495 1
  24232007.117    -1796235.545 5   -735264.946 1
  22746586.750     3154991.195 6   2382948.203 1
  24161306.836    -2183829.106 5  -1287052.516 1
 90 10 22 10 58 45.0000000  0  6 02 06 11 15 18 13
  20739678.688       48098.645 7     42275.288 3
  21739183.633    -1847392.219 6  -1394241.482 2
  24459681.586     2902524.634 6   2194627.135 1
  24226931.539    -1822918.222 5   -756056.622 1
  22756415.375     3206647.668 6   2423200.003 1
  24150115.500    -2242657.061 5  -1332892.455 1
 90 10 22 10 59  0.0000000  0  6 02 06 11 15 18 13
  20740129.234       50469.269 7     44122.520 3
  21733764.859    -1875864.439 6  -1416427.621 2
  24468739.313     2950129.762 5   2231722.044 1
  24221865.539    -1849538.401 5   -776799.603 1
  22766252.523     3258343.568 6   2463482.513 1
  24138922.633    -2301472.930 5  -1378723.012 1
 90 10 22 10 59 15.0000000  0  6 02 06 11 15 18 13
  20740590.031       52888.812 7     46007.878 3
  21728350.898    -1904319.410 7  -1438600.321 2
  24477810.203     2997797.439 5   2268865.665 1
  24216811.492    -1876092.261 5   -797490.909 1
  22776098.922     3310081.940 6   2503798.127 1
  24127732.188    -2360272.710 5  -1424541.040 1
 90 10 22 10 59 30.0000000  0  6 02 06 11 15 18 13
  20741059.406       55354.646 7     47929.307 3
  21722939.961    -1932759.595 7  -1460761.501 2
  24486893.578     3045524.749 5   2306055.770 1
  24211770.805    -1902581.984 5   -818132.226 1
  22785951.406     3361860.059 6   2544144.710 1
  24116545.367    -2419058.619 5  -1470348.229 1
 90 10 22 10 59 45.0000000  0  6 02 06 11 15 18 13
  20741545.523       57905.215 7     49916.761 3
  21717537.711    -1961146.173 7  -1482880.911 2
  24495991.609     3093349.673 5   2343321.924 1
  24206749.742    -1928968.902 5   -838693.459 1
  22795818.320     3413716.126 6   2584552.037 1
  24105366.633    -2477791.670 5  -1516114.236 1
 90 10 22 11  0  0.0000000  0  6 02 06 11 15 18 13
  20742039.594       60506.049 7     51943.388 3
  21712139.914    -1989513.403 7  -1504985.223 2
  24505104.789     3141237.511 5   2380637.114 1
  24201742.617    -1955286.573 5   -859200.728 1
  22805694.953     3465615.358 6   2624992.995 1
  24094195.953    -2536505.899 5  -1561865.574 1
 90 10 22 11  0 15.0000000  0  6 02 06 11 15 18 13
  20742542.859       63149.571 7     54003.279 3
  21706744.094    -2017868.499 7  -1527080.103 2
  24514224.961     3189180.605 5   2417995.374 1
  24196744.961    -1981542.172 5   -879659.613 1
  22815579.242     3517549.892 6   2665461.461 1
  24083025.430    -2595208.391 5  -1607607.776 1
 90 10 22 11  0 30.0000000  0  6 02 06 11 15 18 13
  20743056.281       65855.538 7     56111.827 3
  21701353.383    -2046191.561 7  -1549150.015 2
  24523364.453     3237198.378 5   2455411.811 1
  24191766.063    -2007715.615 5   -900054.486 1
  22825472.797     3569539.063 6   2705972.487 1
  24071861.016    -2653878.995 5  -1653325.141 1
 90 10 22 11  0 45.0000000  0  6 02 06 11 15 18 13
  20743583.422       68619.564 7     58265.614 3
  21695969.141    -2074486.621 7  -1571198.119 2
  24532515.375     3285286.029 5   2492882.711 1
  24186797.164    -2033810.624 5   -920388.241 1
  22835374.328     3621578.462 6   2746522.668 1
  24060700.711    -2712521.773 5  -1699020.785 1
 90 10 22 11  1  0.0000000  0  6 02 06 11 15 18 13
  20744119.289       71433.821 7     60458.543 3
  21690588.109    -2102761.332 7  -1593230.360 2
  24541681.406     3333435.428 5   2530401.705 1
  24181845.500    -2059835.052 4   -940666.988 1
  22845285.508     3673659.810 6   2787105.533 1
  24049543.688    -2771144.082 5  -1744700.523 1
 90 10 22 11  1 15.0000000  0  6 02 06 11 15 18 13
  20744664.203       74295.153 7     62688.151 3
  21685210.508    -2131018.612 7  -1615249.018 2
  24550854.477     3381643.113 5   2567966.140 1
  24176904.953    -2085791.467 5   -960892.753 1
  22855203.141     3725779.456 6   2827718.247 1
  24038393.164    -2829748.551 5  -1790366.303 1
 90 10 22 11  1 30.0000000  0  6 02 06 11 15 18 13
  20745216.789       77205.136 7     64955.663 3
  21679836.469    -2159256.364 7  -1637252.466 2
  24560039.180     3429910.464 5   2605577.049 1
  24171981.641    -2111677.885 5   -981063.966 1
  22865128.703     3777939.142 6   2868362.151 1
  24027244.344    -2888333.175 5  -1836016.645 1
 90 10 22 11  1 45.0000000  0  6 02 06 11 15 18 13
  20745779.195       80154.782 7     67254.090 3
  21674466.813    -2187483.486 7  -1659247.615 2
  24569234.930     3478228.276 4   2643227.279 1
  24167068.367    -2137502.405 5  -1001186.947 1
  22875060.492     3830129.368 6   2909029.860 1
  24016099.133    -2946906.443 5  -1881658.181 1
 90 10 22 11  2  0.0000000  0  6 02 06 11 15 18 13
  20746343.922       83126.623 7     69569.815 3
  21669093.414    -2215717.148 7  -1681247.873 2
  24578434.922     3526578.716 4   2680902.912 1
  24162163.469    -2163282.450 5  -1021275.269 1
  22884994.289     3882332.516 6   2949707.641 1
  24004950.922    -3005485.403 5  -1927304.110 1
 90 10 22 11  2 15.0000000  0  6 02 06 11 15 18 13
  20746918.719       86144.926 7     71921.745 3
  21663724.477    -2243932.779 7  -1703234.079 2
  24587647.102     3574985.704 4   2718622.616 1
  24157265.906    -2188993.222 5  -1041309.620 1
  22894934.648     3934572.583 6   2990414.184 1
  23993808.430    -3064045.383 5  -1972935.255 1
 90 10 22 11  2 30.0000000  0  6 02 06 11 15 18 13
  20747504.570       89223.516 7     74320.649 3
  21658362.523    -2272116.209 7  -1725195.201 2
  24596870.891     3623463.060 4   2756397.154 1
  24152393.633    -2214620.305 5  -1061278.763 1
  22904886.609     3986863.250 6   3031160.147 1
  23982668.828    -3122571.771 5  -2018540.242 1
 90 10 22 11  2 45.0000000  0  6 02 06 11 15 18 13
  20748099.023       92347.586 7     76754.988 3
  21652999.484    -2300281.917 7  -1747142.504 2
  24606107.172     3671995.549 4   2794214.665 1
  24147527.781    -2240178.465 5  -1081194.181 1
  22914841.937     4039189.545 6   3071933.875 1
  23971536.539    -3181079.093 5  -2064130.319 1
 90 10 22 11  3  0.0000000  0  6 02 06 11 15 18 13
  20748702.297       95518.643 7     79225.945 3
  21647645.102    -2328428.198 7  -1769074.671 2
  24615353.180     3720584.315 5   2832076.020 1
  24142678.063    -2265665.749 5  -1101054.371 1
  22924806.547     4091552.245 6   3112735.982 1
  23960406.352    -3239565.360 5  -2109704.047 1
 90 10 22 11  3 15.0000000  0  6 02 06 11 15 18 13
  20749314.500       98738.807 7     81735.165 3
  21642294.008    -2356552.545 7  -1790989.743 2
  24624609.320     3769231.397 5   2869982.837 1
  24137839.969    -2291079.134 5  -1120856.996 1
  22934778.773     4143953.582 6   3153568.183 1
  23949281.797    -3298028.097 5  -2155259.394 1
 90 10 22 11  3 30.0000000  0  6 02 06 11 15 18 13
  20749938.453      102010.567 7     84284.586 3
  21636946.305    -2384652.130 7  -1812885.519 2
  24633875.039     3817938.980 3   2907936.804 1
  24133018.516    -2316415.858 5  -1140599.864 1
  22944759.164     4196395.779 6   3194432.229 1
  23938162.898    -3356464.049 5  -2200793.919 1
 90 10 22 11  3 45.0000000  0  6 02 06 11 15 18 13
  20750568.719      105323.191 7     86865.849 3
  21631602.609    -2412737.360 7  -1834770.112 2
  24643154.242     3866696.077 3   2945929.326 1
  24128213.008    -2341686.073 5  -1160290.932 1
  22954744.117     4248867.888 6   3235319.587 1
  23927044.391    -3414883.563 5  -2246315.636 1
 90 10 22 11  4  0.0000000  0  6 02 06 11 15 18 13
  20751208.695      108690.623 7     89489.821 3
  21626262.914    -2440794.321 7  -1856632.678 2
  24652447.875     3915516.158 3   2983970.937 1
  24123421.359    -2366875.836 5  -1179919.307 1
  22964737.547     4301383.382 6   3276240.757 1
  23915935.125    -3473272.417 5  -2291813.422 1
 90 10 22 11  4 15.0000000  0  6 02 06 11 15 18 13
  20751860.484      112112.171 7     92155.965 3
  21620928.867    -2468823.393 7  -1878473.505 2
  24661750.289     3964398.285 3   3022060.883 1
  24118639.992    -2391985.590 5  -1199485.343 1
  22974737.047     4353941.323 6   3317194.987 1
  23904830.414    -3531630.912 5  -2337287.553 1
 90 10 22 11  4 30.0000000  0  6 02 06 11 15 18 13
  20752519.117      115572.534 7     94852.360 3
  21615598.063    -2496839.397 7  -1900304.159 2
  24671058.508     4013326.987 3   3060187.130 1
  24113872.203    -2417029.766 5  -1219000.268 1
  22984745.008     4406526.385 6   3358170.351 1
  23893726.445    -3589973.836 5  -2382749.581 1
 90 10 22 11  4 45.0000000  0  6 02 06 11 15 18 13
  20753186.977      119084.235 8     97588.745 3
  21610270.414    -2524829.396 7  -1922114.541 2
  24680381.383     4062314.525 4   3098359.219 1
  24109122.844    -2441995.232 5  -1238453.857 1
  22994759.523     4459150.622 6   3399176.241 1
  23882628.875    -3648288.083 5  -2428189.243 1
 90 10 22 11  5  0.0000000  0  6 02 06 11 15 18 13
  20753863.859      122642.406 8    100361.339 3
  21604949.641    -2552798.257 7  -1943908.465 2
  24689712.750     4111355.627 5   3136573.047 1
  24104386.273    -2466886.840 5  -1257849.897 1
  23004779.313     4511808.556 6   3440208.403 1
  23871535.711    -3706578.289 5  -2473610.178 1
 90 10 22 11  5 15.0000000  0  6 02 06 11 15 18 13
  20754552.133      126254.375 7    103175.865 3
  21599632.766    -2580738.340 7  -1965679.952 2
  24699055.555     4160457.333 4   3174834.123 1
  24099666.234    -2491696.505 5  -1277182.094 1
  23014807.734     4564507.651 6   3481272.620 1
  23860451.344    -3764836.625 5  -2519006.284 1
 90 10 22 11  5 30.0000000  0  6 02 06 11 15 18 13
  20755248.211      129923.480 7    106034.911 3
  21594323.180    -2608645.907 7  -1987426.103 2
  24708411.844     4209622.740 4   3213144.815 1
  24094964.039    -2516420.646 5  -1296447.651 1
  23024844.102     4617251.017 6   3522371.350 1
  23849373.977    -3823059.115 5  -2564374.439 1
 90 10 22 11  5 45.0000000  0  6 02 06 11 15 18 13
  20755956.141      133634.804 7    108926.854 3
  21589014.172    -2636535.453 7  -2009158.215 2
  24717777.516     4258836.821 5   3251493.451 1
  24090273.406    -2541073.847 5  -1315657.931 1
  23034886.703     4670023.475 6   3563492.742 1
  23838298.070    -3881260.041 5  -2609725.792 1
 90 10 22 11  6  0.0000000  0  6 02 06 11 15 18 13
  20756662.273      137346.652 7    111819.205 3
  21583703.430    -2664448.513 7  -2030908.647 2
  24727144.836     4308057.510 5   3289847.238 1
  24085584.828    -2565697.469 5  -1334845.154 1
  23044926.781     4722782.933 6   3604604.006 1
  23827218.680    -3939480.765 5  -2655092.575 1
 90 10 22 11  6 15.0000000  0  6 02 06 11 15 18 13
  20757379.766      141113.259 7    114754.225 3
  21578397.164    -2692330.654 7  -2052634.998 2
  24736519.492     4357338.673 5   3328248.142 1
  24080916.711    -2590236.802 5  -1353966.702 1
  23054973.117     4775583.213 6   3645747.076 1
  23816144.695    -3997666.748 5  -2700432.294 1
 90 10 22 11  6 30.0000000  0  6 02 06 11 15 18 13
  20758106.539      144937.893 7    117734.457 3
  21573098.625    -2720178.304 7  -2074334.465 2
  24745911.945     4406683.336 5   3366698.545 1
  24076260.438    -2614687.653 5  -1373019.293 1
  23065029.625     4828427.622 6   3686924.531 1
  23805081.281    -4055814.531 5  -2745742.263 1
 90 10 22 11  6 45.0000000  0  6 02 06 11 15 18 13
  20758843.648      148811.423 7    120752.789 3
  21567803.102    -2748000.030 7  -2096013.732 2
  24755312.461     4456082.160 5   3405191.138 1
  24071623.031    -2639058.934 5  -1392009.879 1
  23075093.406     4881306.899 6   3728129.162 1
  23794021.453    -4113932.474 5  -2791028.971 1
 90 10 22 11  7  0.0000000  0  6 02 06 11 15 18 13
  20759589.219      152730.882 7    123806.914 3
  21562513.195    -2775798.709 7  -2117675.040 2
  24764721.609     4505531.844 5   3443723.353 1
  24067003.125    -2663353.143 5  -1410940.413 1
  23085161.297     4934217.493 6   3769358.196 1
  23782966.633    -4172022.974 5  -2836294.267 1
 90 10 22 11  7 15.0000000  0  6 02 06 11 15 18 13
  20760344.844      156699.137 7    126899.055 3
  21557228.547    -2803571.222 7  -2139315.951 2
  24774141.859     4555034.895 5   3482297.171 1
  24062390.492    -2687567.117 5  -1429808.413 1
  23095237.000     4987162.119 6   3810613.745 1
  23771920.508    -4230082.767 5  -2881535.670 1
 90 10 22 11  7 30.0000000  0  6 02 06 11 15 18 13
  20761114.523      160741.079 7    130048.616 3
  21551952.430    -2831292.370 7  -2160916.842 2
  24783578.102     4604615.933 5   3520931.728 1
  24057804.563    -2711675.587 5  -1448594.218 1
  23105322.477     5040165.350 6   3851914.963 1
  23760879.758    -4288086.510 5  -2926733.388 1
 90 10 22 11  7 45.0000000  0  6 02 06 11 15 18 13
  20761881.305      164773.511 7    133190.766 3
  21546672.594    -2859044.999 7  -2182542.268 2
  24793011.133     4654191.321 5   3559561.915 1
  24053223.273    -2735761.585 5  -1467362.530 1
  23115404.133     5093143.780 6   3893196.839 1
  23749837.531    -4346117.118 5  -2971952.053 1
 90 10 22 11  8  0.0000000  0  6 02 06 11 15 18 13
  20762659.055      168857.077 7    136372.759 3
  21541397.453    -2886768.374 7  -2204144.894 2
  24802454.086     4703821.549 5   3598234.825 1
  24048653.836    -2759763.885 5  -1486065.604 1
  23125491.820     5146157.722 6   3934506.404 1
  23738800.406    -4404113.437 5  -3017143.956 1
 90 10 22 11  8 15.0000000  0  6 02 06 11 15 18 13
  20763443.773      172987.754 7    139591.465 3
  21536126.078    -2914465.634 7  -2225727.178 2
  24811910.492     4753502.589 5   3636947.304 1
  24044101.516    -2783685.568 5  -1504705.867 1
  23135584.906     5199203.224 6   3975840.556 1
  23727770.336    -4462078.677 5  -3062311.667 1
 90 10 22 11  8 30.0000000  0  6 02 06 11 15 18 13
  20764239.602      177164.695 7    142846.223 3
  21530861.305    -2942137.724 7  -2247289.847 2
  24821372.789     4803233.251 5   3675698.511 1
  24039563.820    -2807527.511 5  -1523283.989 1
  23145686.594     5252279.051 6   4017198.338 1
  23716745.570    -4520013.431 5  -3107455.620 1
 90 10 22 11  8 45.0000000  0  6 02 06 11 15 18 13
  20765043.961      181391.142 7    146139.564 3
  21525600.328    -2969781.091 7  -2268830.131 2
  24830847.719     4853016.406 5   3714490.554 1
  24035045.594    -2831286.183 5  -1541797.225 1
  23155793.992     5305387.901 6   4058581.862 1
  23705729.203    -4577913.896 5  -3152572.864 1
 90 10 22 11  9  0.0000000  0  6 02 06 11 15 18 13
  20765855.742      185659.328 7    149465.424 3
  21520344.742    -2997403.305 7  -2290353.936 2
  24840327.695     4902843.831 5   3753317.136 1
  24030535.695    -2854968.879 5  -1560251.255 1
  23165904.602     5358521.499 6   4099984.660 1
  23694716.773    -4635787.578 5  -3197669.228 1
 90 10 22 11  9 15.0000000  0  6 02 06 11 15 18 13
  20766679.148      189983.996 7    152835.293 3
  21515094.320    -3024989.218 7  -2311849.453 2
  24849823.203     4952730.143 5   3792189.619 1
  24026049.242    -2878560.172 5  -1578634.071 1
  23176021.945     5411694.777 6   4141418.379 1
  23683710.367    -4693619.281 5  -3242732.884 1
 90 10 22 11  9 30.0000000  0  6 02 06 11 15 18 13
  20767509.555      194347.411 7    156235.352 3
  21509849.023    -3052556.236 7  -2333330.248 2
  24859325.070     5002657.254 5   3831093.806 1
  24021572.703    -2902077.457 5  -1596959.215 1
  23186145.680     5464889.818 6   4182869.063 1
  23672710.250    -4751426.283 5  -3287777.322 1
 90 10 22 11  9 45.0000000  0  6 02 06 11 15 18 13
  20768347.078      198755.272 7    159670.044 3
  21504608.828    -3080098.295 7  -2354791.595 2
  24868832.328     5052630.707 5   3870034.189 1
  24017112.242    -2925514.566 5  -1615221.883 1
  23196273.031     5518111.892 6   4224340.803 1
  23661715.453    -4809202.408 5  -3332797.673 1
 90 10 22 11 10  0.0000000  0  6 02 06 11 15 18 13
  20769193.742      203204.173 7    163136.720 3
  21499370.164    -3107618.502 7  -2376235.910 2
  24878349.711     5102646.844 5   3909007.803 1
  24012668.641    -2948874.717 5  -1633424.571 1
  23206405.477     5571357.366 6   4265830.774 1
  23650727.305    -4866950.424 5  -3377796.108 1
 90 10 22 11 10 15.0000000  0  6 02 06 11 15 18 13
  20770051.055      207706.249 7    166644.838 3
  21494139.148    -3135104.594 7  -2397653.636 2
  24887879.016     5152717.262 5   3948023.714 1
  24008238.891    -2972145.029 5  -1651557.272 1
  23216543.813     5624637.982 6   4307348.131 1
  23639746.438    -4924657.720 5  -3422762.843 1
 90 10 22 11 10 30.0000000  0  6 02 06 11 15 18 13
  20770919.563      212268.321 7    170199.700 3
  21488917.328    -3162549.367 7  -2419039.176 2
  24897418.000     5202848.728 5   3987087.206 1
  24003829.578    -2995318.360 6  -1669614.405 1
  23226690.477     5677960.519 6   4348898.144 1
  23628772.180    -4982317.205 5  -3467692.299 1
 90 10 22 11 10 45.0000000  0  6 02 06 11 15 18 13
  20771802.281      216909.397 7    173816.120 3
  21483707.164    -3189933.564 7  -2440377.512 2
  24906973.938     5253059.746 5
  23999440.195    -3018375.619 5  -1687581.091 1
  23236848.648     5731343.634 6   4390495.366 1
  23617812.914    -5039909.330 5  -3512569.250 1
 90 10 22 11 11  0.0000000  0  6 02 06 11 15 18 13
  20772696.031      221604.738 7    177474.829 3
  21478502.539    -3217281.690 7  -2461687.741 2
  24916536.445     5303325.281 5
  23995072.781    -3041341.024 6  -1705476.192 1
  23247014.336     5784761.930 6   4432120.009 1
  23606862.031    -5097458.732 5  -3557412.943 1
 90 10 22 11 11 15.0000000  0  6 02 06 11 15 18 13
  20773597.836      226342.986 7    181166.969 3
  21473300.961    -3244604.666 7  -2482978.378 2
  24926110.273     5353634.036 5
  23990717.148    -3064225.349 5  -1723308.122 1
  23257184.789     5838204.105 6   4473763.255 1
  23595917.523    -5154976.043 5  -3602231.627 1
 90 10 22 11 11 30.0000000  0  6 02 06 11 15 18 13
  20774509.367      231133.370 7    184899.731 3
  21468109.422    -3271893.044 7  -2504242.043 2
  24935693.164     5403994.705 5
  23986383.508    -3087019.115 6  -1741069.482 1
  23267360.625     5891679.272 6   4515432.224 1
  23584980.625    -5212451.513 5  -3647017.719 1
 90 10 22 11 11 45.0000000  0  7 02 06 11 15 18 13 09
  20775428.992      235967.814 7    188666.825 3
  21462921.195    -3299154.510 7  -2525484.750 2
  24945285.719     5454399.032 5        -0.46611
  23982060.711    -3109730.136 5  -1758766.378 1
  23277541.555     5945178.872 6   4557120.213 1
  23574049.188    -5269892.939 5  -3691777.241 1
  24490383.945          -0.58213
 90 10 22 11 12  0.0000000  0  7 02 06 11 15 18 13 09
  20776358.289      240853.029 7    192473.486 3
  21457740.938    -3326382.159 7  -2546701.100 2
  24954886.570     5504853.272 5
  23977754.141    -3132351.136 5  -1776393.105 1
  23287727.234     5998709.222 6   4598832.177 1
  23563126.055    -5327293.360 5  -3736504.847 1
  24482073.734      -43648.946 3
 90 10 22 11 12 15.0000000  0  7 02 06 11 15 18 13 09
  20777296.969      245784.445 7    196316.140 3
  21452565.180    -3353580.044 7  -2567894.253 2
  24964496.727     5555352.878 5
  23973467.063    -3154886.032 5  -1793952.747 1
  23297918.852     6052265.817 6   4640564.584 1
  23552209.016    -5384656.506 5  -3781203.391 1
  24473762.453      -87317.222 3
 90 10 22 11 12 30.0000000  0  7 02 06 11 15 18 13 09
  20778244.891      250765.303 7    200197.327 3
  21447396.656    -3380744.651 7  -2589061.472 2
  24974116.164     5605900.610 5
  23969196.406    -3177331.747 6  -1811442.893 1
  23308118.070     6105851.477 6   4682319.642 1
  23541302.383    -5441978.507 5  -3825869.888 1
  24465453.453     -131002.082 3
 90 10 22 11 12 45.0000000  0  7 02 06 11 15 18 13 09
  20779202.195      255795.945 7    204117.305 3
  21442232.484    -3407875.538 7  -2610202.422 2
  24983743.859     5656496.508 5        -0.41211
  23964939.930    -3199687.261 6  -1828862.764 1
  23318318.242     6159466.320 6   4724097.437 1
  23530403.336    -5499258.485 5  -3870503.629 1
  24457135.766     -174703.104 3
 90 10 22 11 13  0.0000000  0  7 02 06 11 15 18 13 09
  20780167.469      260866.050 7    208068.042 3
  21437077.203    -3434982.494 7  -2631324.718 2
  24993378.633     5707130.097 5     39454.359 1
  23960699.336    -3221962.058 6  -1846219.738 1
  23328524.305     6213099.822 6   4765889.784 1
  23519509.016    -5556506.627 5  -3915112.561 1
  24448814.594     -218430.167 3        -0.26711
 90 10 22 11 13 15.0000000  0  7 02 06 11 15 18 13 09
  20781141.391      265983.829 7    212055.920 3
  21431922.773    -3462057.113 7  -2652421.830 2
  25003022.313     5757809.318 5     78944.664 1
  23956476.852    -3244147.708 6  -1863507.246 1
  23338736.523     6266759.746 6   4807702.699 1
  23508623.406    -5613714.243 5  -3959689.926 1
  24440490.148     -262174.936 3    -34087.094 1
 90 10 22 11 13 30.0000000  0  7 02 06 11 15 18 13 09
  20782122.594      271142.059 7    216075.321 3
  21426775.773    -3489106.390 7  -2673499.185 2
  25012673.523     5808526.518 4    118464.533 1
  23952270.219    -3266251.210 6  -1880730.747 1
  23348951.875     6320438.641 6   4849530.404 1
  23497742.664    -5670888.138 5  -4004240.986 1
  24432163.492     -305944.709 4    -68193.376 1
 90 10 22 11 13 45.0000000  0  7 02 06 11 15 18 13 09
  20783114.781      276357.330 7    220139.169 3
  21421634.977    -3516113.519 7  -2694543.705 2
  25022335.570     5859297.834 4    158026.650 1
  23948086.773    -3288255.644 6  -1897877.039 1
  23359172.227     6374152.897 6   4891385.659 1
  23486872.656    -5728011.277 5  -4048752.532 1
  24423831.477     -349722.462 4
 90 10 22 11 14  0.0000000  0  7 02 06 11 15 18 13 09
  20784117.383      281625.396 7    224244.156 3
  21416505.188    -3543082.130 7  -2715558.204 2
  25032007.281     5910119.079 5
  23943918.086    -3310164.613 6  -1914948.947 1
  23369398.969     6427898.031 6   4933264.980 1
  23476009.414    -5785087.487 5  -4093227.483 1
  24415497.648     -393512.272 4
 90 10 22 11 14 15.0000000  0  7 02 06 11 15 18 13 09
  20785129.672      286941.936 7    228386.917 3
  21411379.969    -3570016.374 7  -2736545.925 2
  25041684.234     5960985.523 4
  23939764.977    -3331982.024 6  -1931949.510 1
  23379632.023     6481669.262 6   4975164.637 1
  23465160.039    -5842120.432 5  -4137668.735 1
  24407161.633     -437318.336 4        -0.40011
 90 10 22 11 14 30.0000000  0  7 02 06 11 15 18 13 09
  20786150.102      292306.549 7    232567.133 3
  21406260.438    -3596916.423 7  -2757506.998 2
  25051372.656     6011896.399 4
  23935632.242    -3353708.204 6  -1948878.989 1
  23389869.094     6535465.960 6   5017084.140 1
  23454312.602    -5899110.228 5  -4182076.355 1
  24398820.406     -481140.956 4    -34147.908 1
 90 10 22 11 14 45.0000000  0  6 02 06 15 18 13 09
  20787180.406      297720.712 7    236785.963 3
  21401148.945    -3623780.399 7  -2778439.967 2
  23931515.594    -3375340.951 6  -1965735.649 1
  23400111.344     6589289.489 6   5059024.560 1
  23443477.594    -5956054.821 5  -4226448.774 1
  24390478.563     -524978.238 4    -68306.856 1
 90 10 22 11 15  0.0000000  0  6 02 06 15 18 13 09
  20788221.211      303189.233 7    241047.150 3
  21396045.000    -3650603.290 7  -2799340.919 2
  23927415.875    -3396875.564 6  -1982515.855 1
  23410359.641     6643144.305 6   5100989.339 1
  23432649.984    -6012949.192 5  -4270782.040 1
  24382140.680     -568825.395 5   -102473.446 1
 90 10 22 11 15 15.0000000  0  6 02 06 15 18 13 09
  20789271.492      308710.825 7    245349.692 3
  21390947.852    -3677385.837 7  -2820210.438 2
  23923337.508    -3418312.867 6  -1999220.231 1
  23420614.789     6697029.069 6   5142977.486 1
  23421834.766    -6069794.103 5  -4315076.775 1
  24373790.414     -612683.373 4   -136648.484 1
 90 10 22 11 15 30.0000000  0  6 02 06 15 18 13 09
  20790330.898      314280.958 7    249690.053 3
  21385858.461    -3704132.487 7  -2841051.979 2
  23919275.570    -3439656.524 6  -2015851.647 1
  23430873.352     6750938.899 6   5184985.142 1
  23411024.531    -6126593.500 5  -4359336.026 1
  24365442.383     -656556.586 4   -170835.345 1
 90 10 22 11 15 45.0000000  0  6 02 06 15 18 13 09
  20791400.891      319901.165 7    254069.432 3
  21380774.195    -3730841.390 7  -2861864.118 2
  23915231.508    -3460904.673 6  -2032408.632 1
  23441134.633     6804874.695 5   5227013.031 1
  23400226.242    -6183345.514 5  -4403558.365 1
  24357086.078     -700443.281 5   -205032.793 1
 90 10 22 11 16  0.0000000  0  6 02 06 15 18 13 09
  20792479.375      325567.790 7    258484.983 3
  21375699.289    -3757515.807 7  -2882649.368 2
  23911206.180    -3482061.029 6  -2048894.093 1
  23451400.836     6858832.677 5   5269058.205 1
  23389433.242    -6240053.420 6  -4447746.352 1
  24348736.586     -744346.891 5   -239243.401 1
 90 10 22 11 16 15.0000000  0  6 02 06 15 18 13 09
  20793563.758      331265.809 7    262924.993 3
  21370629.367    -3784170.658 7  -2903419.387 2
  23907193.547    -3503140.030 6  -2065319.292 1
  23461672.461     6912797.384 5   5311108.613 1
  23378647.992    -6296731.849 6  -4491911.321 1
  24340375.398     -788282.329 5   -273478.798 1
 90 10 22 11 16 30.0000000  0  6 02 06 15 18 13 09
  20794656.945      337010.772 7    267401.585 3
  21365562.570    -3810789.889 7  -2924161.643 2
  23903201.898    -3524125.514 6  -2081671.605 1
  23471945.047     6966784.596 6   5353176.557 1
  23367869.023    -6353364.456 6  -4536040.646 1
  24332008.508     -832233.747 4   -307726.626 1
 90 10 22 11 16 45.0000000  0  6 02 06 15 18 13 09
  20795757.617      342795.717 7    271909.337 3
  21360501.141    -3837380.102 7  -2944881.292 2
  23899223.031    -3545024.165 6  -2097956.251 1
  23482222.789     7020786.839 6   5395256.231 1
  23357103.031    -6409957.845 6  -4580139.384 1
  24323639.922     -876208.065 4   -341992.318 1
 90 10 22 11 17  0.0000000  0  6 02 06 15 18 13 09
  20796865.820      348620.342 7    276448.008 3
  21355447.813    -3863941.308 7  -2965578.334 2
  23895264.648    -3565835.616 6  -2114172.960 1
  23492503.672     7074803.644 6   5437347.251 1
  23346342.797    -6466512.118 6  -4624207.627 1
  24315272.570     -920205.104 5   -376275.730 1
 90 10 22 11 17 15.0000000  0  6 02 06 15 18 13 09
  20797983.148      354491.663 7    281023.064 3
  21350399.391    -3890466.324 7  -2986247.175 2
  23891319.711    -3586552.986 6  -2130316.352 1
  23502784.898     7128841.505 6   5479454.676 1
  23335589.250    -6523019.715 6  -4668239.513 1
  24306895.266     -964217.970 5   -410571.480 1
 90 10 22 11 17 30.0000000  0  6 02 06 15 18 13 09
  20799111.055      360415.491 7    285639.036 3
  21345360.727    -3916948.992 7  -3006883.014 2
  23887400.148    -3607169.782 6  -2146381.377 1
  23513072.336     7182906.237 5   5521583.041 1
  23324844.289    -6579474.377 6  -4712230.152 1
  24298515.844    -1008240.455 5   -444874.673 1
 90 10 22 11 17 45.0000000  0  6 02 06 15 18 13 09
  20800249.133      366398.890 7    290301.426 3
  21340329.336    -3943381.684 7  -3027479.917 2
  23883496.164    -3627678.455 6  -2162362.150 1
  23523368.125     7237004.628 5   5563737.634 1
  23314113.258    -6635868.386 6  -4756173.517 1
  24290141.680    -1052265.304 5   -479179.721 1
 90 10 22 11 18  0.0000000  0  6 02 06 15 18 13 09
  20801399.789      372442.020 7    295010.357 3
  21335309.461    -3969764.133 7  -3048037.660 2
  23879614.672    -3648078.383 6  -2178258.188 1
  23533669.141     7291136.263 5   5605918.112 1
  23303393.352    -6692201.343 6  -4800069.328 1
  24281760.180    -1096292.224 5   -513486.468 1
 90 10 22 11 18 15.0000000  0  6 02 06 15 18 13 09
  20802558.438      378532.097 7    299755.871 3
  21330296.820    -3996108.843 7  -3068566.007 2
  23875749.883    -3668382.252 6  -2194079.366 1
  23543974.328     7345288.584 5   5648114.728 1
  23292682.313    -6748485.339 6  -4843926.990 1
  24273386.273    -1140333.609 5
 90 10 22 11 18 30.0000000  0  6 02 06 15 18 13 09
  20803725.484      384662.916 7    304533.130 3
  21325289.172    -4022421.594 7  -3089069.450 2
  23871906.211    -3688596.019 6  -2209830.362 1
  23554280.969     7399454.829 5   5690322.187 1
  23281980.328    -6804726.233 6  -4887751.068 1
  24264996.563    -1184395.646 5
 90 10 22 11 18 45.0000000  0  6 02 06 15 18 13 09
  20804900.625      390839.794 7    309346.277 3
  21320288.820    -4048696.836 7  -3109543.672 2
  23868074.570    -3708713.779 6  -2225506.525 1
  23564589.852     7453639.764 5   5732544.221 1
  23271288.500    -6860918.536 6  -4931537.274 1
  24256612.844    -1228472.913 5
 90 10 22 11 19  0.0000000  0  6 02 06 15 18 13 09
  20806084.141      397059.879 7    314193.098 3
  21315297.109    -4074937.272 7  -3129990.755 2
  23864262.734    -3728738.027 6  -2241109.814 1
  23574905.750     7507840.398 5   5774778.489 1
  23260604.008    -6917064.639 6  -4975287.472 1
  24248219.945    -1272568.042 5
 90 10 22 11 19 15.0000000  0  6 02 06 15 18 13 09
  20807276.648      403324.885 7    319074.915 3
  21310308.141    -4101140.733 7  -3150409.038 2
  23860472.367    -3748666.783 6  -2256638.694 1
  23585222.883     7562058.454 5   5817026.322 1
  23249928.406    -6973162.178 6  -5018999.823 1
  24239824.391    -1316679.148 5
 90 10 22 11 19 30.0000000  0  6 02 06 15 18 13 09
  20808476.078      409632.384 7    323989.842 3
  21305329.938    -4127309.132 7  -3170799.995 2
  23856699.703    -3768502.060 6  -2272094.750 1
  23595543.250     7616291.140 5   5859285.562 1
  23239261.648    -7029213.162 6  -5062675.928 1
  24231427.234    -1360808.090 5        -0.11311
 90 10 22 11 19 45.0000000  0  6 02 06 15 18 13 09
  20809687.414      415996.079 7    328948.562 3
  21300359.836    -4153428.626 7  -3191152.850 2
  23852945.227    -3788229.789 6  -2287466.996 1
  23605869.094     7670551.780 5   5901566.564 1
  23228607.977    -7085203.501 6  -5106304.746 1
  24223027.484    -1404941.236 5    -34389.584 1
 90 10 22 11 20  0.0000000  0  6 02 06 15 18 13 09
  20810908.297      422411.273 7    333947.410 3
  21295399.227    -4179503.572 7  -3211470.985 2
  23849208.531    -3807854.018 6  -2302758.587 1
  23616198.422     7724835.260 5   5943865.382 1
  23217962.766    -7141137.356 6  -5149889.558 1
  24214628.602    -1449082.955 5    -68785.739 1
 90 10 22 11 20 15.0000000  0  6 02 06 15 18 13 09
  20812138.156      428876.492 7    338985.243 3
  21290444.242    -4205535.010 7  -3231755.217 2
  23845493.305    -3827375.838 6  -2317970.385 1
  23626531.727     7779140.294 5   5986180.980 1
  23207329.281    -7197015.603 6  -5193431.051 1
  24206229.156    -1493234.595 5   -103189.600 1
 90 10 22 11 20 30.0000000  0  6 02 06 15 18 13 09
  20813377.594      435389.721 7    344060.482 3
  21285498.633    -4231524.819 7  -3252007.007 2
  23841800.359    -3846797.341 6  -2333104.015 1
  23636869.180     7833464.163 5   6028511.258 1
  23196706.320    -7252839.870 6  -5236930.456 1
  24197821.445    -1537398.040 4   -137602.685 1
 90 10 22 11 20 45.0000000  0  6 02 06 15 18 13 09
  20814627.969      441958.953 7    349179.362 3
  21280561.992    -4257464.646 7  -3272219.855 2
  23838123.680    -3866109.671 6  -2348152.570 1
  23647214.219     7887814.765 5   6070862.359 1
  23186096.328    -7308601.843 6  -5280381.345 1
  24189421.516    -1581564.897 5   -172018.388 1
 90 10 22 11 21  0.0000000  0  6 02 06 15 18 13 09
  20815886.617      448570.776 7    354331.433 3
  21275633.461    -4283367.667 7  -3292404.030 2
  23834464.828    -3885326.236 6  -2363126.492 1
  23657557.250     7942178.555 5   6113223.758 1
  23175493.320    -7364314.638 6  -5323793.900 1
  24181012.508    -1625748.599 4   -206447.250 1
 90 10 22 11 21 15.0000000  0  6 02 06 15 18 13 09
  20817150.641      455220.574 7    359513.087 3
  21270708.523    -4309238.201 7  -3312562.881 2
  23830827.008    -3904451.171 6  -2378029.030 1
  23667904.539     7996550.436 5   6155591.447 1
  23164901.094    -7419982.570 6  -5367171.510 1
  24172595.430    -1669953.447 4   -240892.541 1
 90 10 22 11 21 30.0000000  0  6 02 06 15 18 13 09
  20818424.641      461912.944 7    364727.923 3
  21265793.633    -4335070.959 7  -3332692.302 2
  23827208.266    -3923479.334 6  -2392856.161 1
  23678252.883     8050935.002 5   6197969.031 1
  23154317.430    -7475600.398 6  -5410510.064 1
  24164184.836    -1714174.626 4   -275350.615 1
 90 10 22 11 21 45.0000000  0  6 02 06 15 18 13 09
  20819707.820      468650.985 7    369978.340 3
  21260886.656    -4360863.101 7  -3352790.071 2
  23823601.953    -3942407.937 6  -2407605.700 1
  23688605.633     8105334.650 5   6240358.372 1
  23143743.750    -7531164.752 6  -5453806.964 1
  24155765.000    -1758409.052 4   -309818.982 1
 90 10 22 11 22  0.0000000  0  6 02 06 15 18 13 09
  20820999.156      475439.511 7    375268.100 3
  21255986.219    -4386609.204 7  -3372851.968 2
  23820022.234    -3961231.153 6  -2422273.136 1
  23698961.281     8159754.050 5   6282763.100 1
  23133180.945    -7586670.033 6  -5497057.805 1
  24147346.563    -1802651.532 4   -344293.642 1
 90 10 22 11 22 15.0000000  0  6 02 06 15 18 13 09
  20822299.539      482275.211 7    380594.619 3
  21251096.477    -4412312.417 7  -3392880.441 2
  23816457.328    -3979952.103 6  -2436860.884 1
  23709319.719     8214189.735 5   6325180.524 1
  23122629.508    -7642119.284 6  -5540265.007 1
  24138924.930    -1846905.186 4   -378776.983 1
 90 10 22 11 22 30.0000000  0  6 02 06 15 18 13 09
  20823612.914      489176.751 7    385972.443 3
  21246215.539    -4437953.476 7  -3412860.483 2
  23812918.914    -3998551.949 6  -2451354.249 1
  23719686.023     8268660.069 5   6367624.920 1
  23112093.414    -7697493.460 6  -5583413.718 1
  24130503.727    -1891151.089 4   -413254.283 1
 90 10 22 11 22 45.0000000  0  6 02 06 15 18 13 09
  20824935.883      496126.085 7    391387.507 3
  21241345.328    -4463550.169 7  -3432805.955 2
  23809398.453    -4017047.968 6  -2465766.723 1
  23730053.281     8323146.722 5   6410082.053 1
  23101566.555    -7752810.092 6  -5626517.571 1
  24122084.813    -1935406.986 4   -447739.402 1
 90 10 22 11 23  0.0000000  0  6 02 06 15 18 13 09
  20826267.406      503123.220 7    396839.818 3
  21236482.633    -4489102.302 7  -3452716.708 2
  23805899.320    -4035440.109 6  -2480098.247 1
  23740424.477     8377649.500 5   6452551.767 1
  23091050.148    -7808068.579 6  -5669576.126 1
  24113660.633    -1979672.883 5   -482232.267 1
 90 10 22 11 23 15.0000000  0  6 02 06 15 18 13 09
  20827608.367      510168.945 7    402329.991 3
  21231628.773    -4514608.771 7  -3472591.879 2
  23802422.695    -4053727.050 6  -2494347.800 1
  23750800.820     8432168.707 5   6495034.238 1
  23080548.117    -7863268.172 6  -5712588.782 1
  24105236.047    -2023947.642 5   -516732.090 1
 90 10 22 11 23 30.0000000  0  6 02 06 15 18 13 09
  20828958.242      517263.338 7    407858.087 3
  21226784.125    -4540069.193 7  -3492431.169 2
  23798963.211    -4071908.370 6  -2508515.047 1
  23761176.875     8486704.223 5   6537529.446 1
  23070054.828    -7918408.085 6  -5755554.932 1
  24096808.359    -2068231.095 5   -551238.677 1
 90 10 22 11 23 45.0000000  0  6 02 06 15 18 13 09
  20830316.109      524400.417 7    413419.447 3
  21221948.391    -4565489.178 7  -3512238.950 2
  23795521.289    -4089989.847 6  -2522604.501 1
  23771555.766     8541249.878 5   6580032.555 1
  23059571.531    -7973493.728 6  -5798478.803 1
  24088378.047    -2112529.015 5   -585756.516 1
 90 10 22 11 24  0.0000000  0  6 02 06 15 18 13 09
  20831686.648      531601.660 7    419030.802 3
  21217123.063    -4590846.838 7  -3531998.165 2
  23792100.711    -4107949.285 6  -2536598.868 1
  23781942.297     8595826.853 5   6622560.061 1
  23049104.867    -8028503.190 6  -5841343.308 1
  24079945.984    -2156819.441 4   -620268.540 1
 90 10 22 11 24 15.0000000  0  6 02 06 15 18 13 09
  20833063.492      538840.402 7    424671.383 3
  21212303.555    -4616168.688 7  -3551729.477 2
  23788700.883    -4125813.161 6  -2550518.756 1
  23792329.336     8650408.152 5   6665090.944 1
  23038645.391    -8083462.835 6  -5884168.989 1
  24071517.445    -2201129.088 4   -654795.515 1
 90 10 22 11 24 30.0000000  0  6 02 06 15 18 13 09
  20834451.016      546127.196 7    430349.403 3
  21207493.398    -4641443.533 7  -3571424.167 2
  23785324.602    -4143570.717 6  -2564355.814 1
  23802720.352     8705004.288 5   6707633.385 1
  23028196.477    -8138361.651 6  -5926947.284 1
  24063085.523    -2245446.971 5   -689328.899 1
 90 10 22 11 24 45.0000000  0  6 02 06 15 18 13 09
  20835845.977      553460.798 7    436063.902 3
  21202692.320    -4666672.607 7  -3591083.184 2
  23781966.328    -4161222.850 6  -2578110.716 1
  23813111.055     8759613.664 5   6750186.151 1
  23017763.141    -8193200.235 6  -5969678.651 1
  24054646.734    -2289774.291 5   -723869.662 1
 90 10 22 11 25  0.0000000  0  6 02 06 15 18 13 09
  20837252.953      560855.361 7    441825.894 3
  21197903.195    -4691841.418 7  -3610695.245 2
  23778629.781    -4178755.299 6  -2591772.341 1
  23823507.320     8814249.706 5   6792759.675 1
  23007341.352    -8247964.381 6  -6012352.009 1
  24046213.781    -2334096.814 5   -758406.728 1
 90 10 22 11 25 15.0000000  0  6 02 06 15 18 13 09
  20838666.523      568280.114 7    447611.413 3
  21193119.586    -4716980.471 7  -3630284.120 2
  23775308.359    -4196198.218 6  -2605364.231 1
  23833903.344     8868881.643 5   6835330.014 1
  22996929.258    -8302684.172 6  -6054990.802 1
  24037777.180    -2378444.910 5   -792963.641 1
 90 10 22 11 25 30.0000000  0  6 02 06 15 18 13 09
  20840085.398      575741.410 7    453425.405 3
  21188341.984    -4742082.730 7  -3649844.319 2
  23772008.445    -4213544.636 6  -2618880.896 1
  23844300.633     8923515.980 5   6877902.220 1
  22986525.594    -8357352.894 6  -6097589.808 1
  24029332.555    -2422811.798 5   -827535.254 1
 90 10 22 11 25 45.0000000  0  6 02 06 15 18 13 09
  20841514.922      583251.992 7    459277.803 3
  21183575.141    -4767135.373 7  -3669365.857 2
  23768729.133    -4230781.403 6  -2632312.136 1
  23854700.570     8978164.853 5   6920485.765 1
  22976133.453    -8411957.469 6  -6140138.802 1
  24020890.641    -2467184.807 5   -862111.623 1
 90 10 22 11 26  0.0000000  0  6 02 06 15 18 13 09
  20842952.984      590808.154 7    465165.718 3
  21178818.219    -4792141.821 7  -3688851.398 2
  23765468.211    -4247912.297 6  -2645660.872 1
  23865099.742     9032824.168 5   6963077.429 1
  22965755.109    -8466501.148 6  -6182640.373 1
  24012446.922    -2511567.367 5   -896695.409 1
 90 10 22 11 26 15.0000000  0  6 02 06 15 18 13 09
  20844399.445      598413.624 7    471092.055 3
  21174067.992    -4817098.061 7  -3708297.820 2
  23762227.109    -4264933.155 6  -2658923.861 1
  23875503.727     9087497.545 5   7005680.053 1
  22955388.961    -8520979.801 6  -6225091.253 1
  24003998.414    -2555955.682 5   -931283.724 1
 90 10 22 11 26 30.0000000  0  6 02 06 15 18 13 09
  20845857.781      606071.074 7    477058.899 3
  21169328.508    -4842001.006 7  -3727702.714 2
  23759011.461    -4281840.851 6  -2672098.676 1
  23885911.703     9142187.479 5   7048295.588 1
  22945035.508    -8575390.109 6  -6267488.899 1
  23995550.148    -2600346.569 5   -965873.990 1
 90 10 22 11 26 45.0000000  0  6 02 06 15 18 13 09
  20847323.008      613772.660 7    483060.131 3
  21164597.789    -4866858.264 7  -3747072.006 2
  23755814.438    -4298643.193 6  -2685191.381 1
  23896320.711     9196885.725 5   7090917.583 1
  22934690.570    -8629739.661 6  -6309839.205 1
  23987103.398    -2644747.865 5  -1000472.392 1
 90 10 22 11 27  0.0000000  0  6 02 06 15 18 13 09
  20848795.391      621511.511 7    489090.407 3
  21159875.648    -4891676.270 7  -3766410.704 2
  23752636.523    -4315346.465 6  -2698206.899 1
  23906728.805     9251585.100 5   7133540.457 1
  22924360.133    -8684034.768 6  -6352147.072 1
  23978647.234    -2689166.098 5  -1035083.976 1
 90 10 22 11 27 15.0000000  0  6 02 06 15 18 13 09
  20850276.430      629293.607 7    495154.383 3
  21155161.914    -4916448.702 7  -3785713.896 2
  23749474.695    -4331944.068 6  -2711140.078 1
  23917140.172     9306291.398 5   7176168.743 1
  22914040.234    -8738269.208 6  -6394407.662 1
  23970192.203    -2733595.045 5  -1069703.934 1
 90 10 22 11 27 30.0000000  0  6 02 06 15 18 13 09
  20851765.742      637119.408 7    501252.410 3
  21150456.656    -4941174.824 7  -3804980.999 2
  23746340.430    -4348435.489 6  -2723990.525 1
  23927551.469     9361004.631 5   7218802.428 1
  22903730.398    -8792442.074 6  -6436620.281 1
  23961736.656    -2778034.231 5  -1104331.900 1
 90 10 22 11 27 45.0000000  0  6 02 06 15 18 13 09
  20853261.344      644983.406 7    507380.197 3
  21145760.422    -4965859.850 7  -3824216.082 3
  23743221.078    -4364826.042 6  -2736762.365 1
  23937962.961     9415719.290 5   7261437.224 1
  22893432.766    -8846558.274 6  -6478788.737 1
  23953273.242    -2822488.650 4  -1138971.686 1
 90 10 22 11 28  0.0000000  0  6 02 06 15 18 13 09
  20854766.313      652886.208 7    513538.224 3
  21141069.492    -4990502.940 7  -3843418.490 2
  23740120.156    -4381114.584 6  -2749454.718 1
  23948375.883     9470435.219 5   7304073.018 1
  22883145.563    -8900616.887 6  -6520912.326 1
  23944816.195    -2866957.856 5  -1173623.022 1
 90 10 22 11 28 15.0000000  0  6 02 06 15 18 13 09
  20856278.508      660834.341 7    519731.571 3
  21136389.508    -5015097.369 7  -3862582.978 2
  23737042.227    -4397294.631 6  -2762062.547 1
  23958789.844     9525159.141 5   7346715.032 1
  22872871.359    -8954611.045 6  -6562985.691 1
  23936352.016    -2911435.110 4  -1208280.598 1
 90 10 22 11 28 30.0000000  0  6 02 06 15 18 13 09
  20857801.367      668836.640 7    525967.124 3
  21131720.422    -5039633.747 7  -3881702.231 3
  23733983.992    -4413356.436 6  -2774578.218 1
  23969206.094     9579899.497 5   7389369.860 1
  22862611.539    -9008531.378 6  -6605001.526 1
  23927884.391    -2955911.286 4  -1242937.374 1
 90 10 22 11 28 45.0000000  0  6 02 06 15 18 13 09
  20859333.516      676889.179 7    532241.823 3
  21127062.617    -5064115.806 7  -3900779.160 2
  23730954.656    -4429303.940 6  -2787004.843 1
  23979624.242     9634651.927 5   7432034.075 1
  22852364.266    -9062381.296 6  -6646962.503 1
  23919425.664    -3000389.805 4  -1277595.951 1
 90 10 22 11 29  0.0000000  0  6 02 06 15 18 13 09
  20860875.672      684993.881 7    538557.171 3
  21122414.484    -5088541.107 7  -3919811.863 2
  23727937.438    -4445134.543 6  -2799340.370 1
  23990047.008     9689418.396 5   7474709.239 1
  22842129.938    -9116158.583 6  -6688866.870 1
  23910956.688    -3044868.503 4  -1312254.664 1
 90 10 22 11 29 15.0000000  0  6 02 06 15 18 13 09
  20862430.078      693156.946 7    544918.002 3
  21117778.906    -5112903.198 7  -3938795.308 2
  23724948.789    -4460842.383 6  -2811580.228 1
  24000472.672     9744204.390 5   7517399.607 1
  22831911.328    -9169856.794 6  -6730709.618 1
  23902498.570    -3089341.275 4  -1346908.747 1
 90 10 22 11 29 30.0000000  0  6 02 06 15 18 13 09
  20863991.555      701366.647 7    551315.170 3
  21113151.469    -5137213.542 7  -3957738.434 2
  23721980.469    -4476438.560 6  -2823733.085 1
  24010897.125     9798998.014 5   7560095.952 1
  22821706.195    -9223487.058 6  -6772499.431 1
  23894031.422    -3133819.450 4  -1381567.074 1
 90 10 22 11 29 45.0000000  0  6 02 06 15 18 13 09
  20865561.047      709614.295 7    557741.906 3
  21108533.234    -5161480.520 7  -3976647.766 2
  23719033.195    -4491931.265 6  -2835805.322 1
  24021325.039     9853790.543 5   7602791.438 1
  22811511.805    -9277057.408 6  -6814242.551 1
  23885565.641    -3178311.611 4  -1416236.270 1
 90 10 22 11 30  0.0000000  0  6 02 06 15 18 13 09
  20867139.734      717911.413 7    564207.189 3
  21103926.719    -5185692.263 7  -3995514.063 2
  23716106.148    -4507308.607 6  -2847787.644 1
  24031754.695     9908593.120 5   7645494.738 1
  22801329.844    -9330556.101 6  -6855929.838 1
  23877105.039    -3222805.906 5  -1450907.138 1
 90 10 22 11 30 15.0000000  0  6 02 06 15 18 13 09
  20868724.617      726237.026 7    570694.672 3
  21099324.781    -5209869.537 7  -4014353.495 2
  23713199.203    -4522591.408 6  -2859696.298 1
  24042181.266     9963384.314 5   7688189.172 1
  22791160.172    -9384003.906 6  -6897577.474 1
  23868632.195    -3267323.258 4  -1485595.993 1
 90 10 22 11 30 30.0000000  0  6 02 06 15 18 13 09
  20870317.711      734606.519 7    577216.354 3
  21094734.383    -5233996.470 7  -4033153.702 2
  23710311.016    -4537763.980 6  -2871519.068 1
  24052608.648    10018179.389 5   7730886.628 1
  22781002.227    -9437384.841 6  -6939172.999 1
  23860153.531    -3311847.966 4  -1520290.561 1
 90 10 22 11 30 45.0000000  0  6 02 06 15 18 13 09
  20871918.516      743017.345 7    583770.241 3
  21090151.797    -5258075.188 7  -4051916.337 2
  23707443.141    -4552828.354 6  -2883257.518 1
  24063035.766    10072975.672 5   7773585.031 1
  22770857.148    -9490700.970 6  -6980718.035 1
  23851678.828    -3356382.097 4  -1554992.460 1
 90 10 22 11 31  0.0000000  0  6 02 06 15 18 13 09
  20873523.430      751458.389 7    590347.674 3
  21085577.000    -5282116.743 7  -4070650.011 2
  23704598.109    -4567795.813 6  -2894920.464 1
  24073461.094    10127761.658 5   7816275.449 1
  22760721.156    -9543963.123 6  -7022221.012 1
  23843200.766    -3400936.832 4  -1589710.433 1
 90 10 22 11 31 15.0000000  0  6 02 06 15 18 13 09
  20875138.258      759940.203 7    596956.880 3
  21081011.922    -5306110.264 7  -4089346.260 2
  23701766.742    -4582655.172 6  -2906499.171 1
  24083886.242    10182547.607 5   7858965.769 1
  22750598.000    -9597160.342 6  -7063673.380 1
  23834719.727    -3445501.367 4  -1624436.046 1
 90 10 22 11 31 30.0000000  0  6 02 06 15 18 13 09
  20876761.328      768472.001 7    603605.032 3
  21076457.578    -5330045.926 7  -4107997.421 2
  23698961.273    -4597396.688 6  -2917986.047 1
  24094314.508    10237342.547 5   7901663.140 1
  22740489.352    -9650282.824 6  -7105067.517 1
  23826241.531    -3490066.244 4  -1659161.883 1
 90 10 22 11 31 45.0000000  0  6 02 06 15 18 13 09
  20878394.555      777053.561 7    610291.963 3
  21071913.430    -5353923.748 7  -4126603.517 2
  23696180.703    -4612020.396 6  -2929381.145 1
  24104741.688    10292145.937 5   7944367.093 1
  22730394.930    -9703330.277 6  -7146403.183 1
  23817762.391    -3534631.282 4  -1693887.900 1
 90 10 22 11 32  0.0000000  0  6 02 06 15 18 13 09
  20880035.992      785681.340 7    617014.903 3
  21067380.227    -5377747.279 7  -4145167.310 2
  23693420.430    -4626529.873 6  -2940687.211 1
  24115169.344    10346953.754 5   7987074.490 1
  22720313.984    -9756306.342 6  -7187683.230 1
  23809279.336    -3579200.034 4  -1728616.754 1
 90 10 22 11 32 15.0000000  0  6 02 06 15 18 13 09
  20881684.539      794345.906 7    623766.510 3
  21062855.016    -5401525.183 7  -4163695.548 2
  23690681.188    -4640934.157 6  -2951911.315 1
  24125599.164    10401756.315 5   8029777.782 1
  22710244.078    -9809219.744 6  -7228914.443 1
  23800797.906    -3623781.620 5  -1763355.643 1
 90 10 22 11 32 30.0000000  0  6 02 06 15 18 13 09
  20883337.406      803030.577 7    630533.780 3
  21058335.016    -5425273.949 7  -4182201.078 2
  23687954.461    -4655249.197 6  -2963065.873 1
  24136023.820    10456536.983 5   8072463.984 1
  22700184.141    -9862086.727 6  -7270109.483 1
  23792308.602    -3668392.373 5  -1798117.265 1
 90 10 22 11 32 45.0000000  0  6 02 06 15 18 13 09
  20884999.633      811764.714 7    637339.602 3
  21053827.922    -5448964.113 7  -4200660.948 2
  23685252.563    -4669445.712 6  -2974128.072 1
  24146452.289    10511324.815 5   8115155.819 1
  22690137.031    -9914877.611 6  -7311245.234 1
  23783817.016    -3713002.939 5  -1832878.741 1
 90 10 22 11 33  0.0000000  0  6 02 06 15 18 13 09
  20886672.969      820557.766 7    644191.330 3
  21049333.609    -5472585.616 7  -4219067.315 2
  23682578.055    -4683513.540 6  -2985090.007 1
  24156880.023    10566128.856 5   8157860.244 1
  22680108.133    -9967582.519 6  -7352313.981 1
  23775328.297    -3757603.487 5  -1867632.410 1
 90 10 22 11 33 15.0000000  0  6 02 06 15 18 13 09
  20888349.367      829363.227 7    651052.728 3
  21044841.430    -5496184.692 7  -4237456.208 2
  23679916.438    -4697499.186 6  -2995987.888 1
  24167301.992    10620902.079 5   8200540.671 1
  22670086.578   -10020247.564 6  -7393351.681 1
  23766837.695    -3802240.244 5  -1902414.277 1
 90 10 22 11 33 30.0000000  0  6 02 06 15 18 13 09
  20890032.359      838211.293 7    657947.323 3
  21040360.930    -5519730.909 7  -4255803.912 2
  23677273.445    -4711372.282 6  -3006798.087 1
  24177724.813    10675674.585 5   8243220.556 1
  22660078.719   -10072842.120 6  -7434334.453 1
  23758342.141    -3846883.080 5  -1937200.899 1
 90 10 22 11 33 45.0000000  0  6 02 06 15 18 13 09
  20891727.750      847120.052 7    664889.208 3
  21035893.703    -5543205.779 7  -4274096.021 2
  23674655.641    -4725114.292 6  -3017506.128 1
  24188149.977    10730464.352 5   8285913.876 1
  22650087.641   -10125347.472 6  -7475247.695 1
  23749847.766    -3891513.249 5  -1971977.648 1
 90 10 22 11 34  0.0000000  0  6 02 06 15 18 13 09
  20893430.766      856073.495 7    671865.917 3
  21031437.359    -5566624.939 7  -4292344.717 2
  23672066.359    -4738740.785 6  -3028124.162 1
  24198575.859    10785255.126 5   8328607.980 1
  22640110.273   -10177779.218 6  -7516103.596 1
  23741356.719    -3936146.586 5  -2006756.863 1
 90 10 22 11 34 15.0000000  0  6 02 06 15 18 13 09
  20895145.789      865081.887 7    678885.445 3
  21026993.016    -5589977.827 7  -4310541.769 2
  23669495.906    -4752241.061 6  -3038643.852 1
  24209007.609    10840056.733 5   8371310.571 1
  22630146.742   -10230127.064 6  -7556894.112 1
  23732867.484    -3980772.885 5  -2041530.594 1
 90 10 22 11 34 30.0000000  0  6 02 06 15 18 13 09
  20896869.234      874141.288 7    685944.716 3
  21022560.445    -5613268.180 7  -4328690.099 2
  23666952.516    -4765618.958 6  -3049068.172 1
  24219435.609    10894864.962 5   8414018.238 1
  22620202.406   -10282394.231 6  -7597621.762 1
  23724372.594    -4025395.602 5  -2076301.535 1
 90 10 22 11 34 45.0000000  0  6 02 06 15 18 13 09
  20898602.070      883242.476 7    693036.545 3
  21018139.148    -5636504.840 7  -4346796.591 2
  23664431.055    -4778883.604 6  -3059404.253 1
  24229865.625    10949670.376 5   8456723.797 1
  22610269.266   -10334589.700 6  -7638293.555 1
  23715881.719    -4070023.827 5  -2111076.763 1
 90 10 22 11 35  0.0000000  0  6 02 06 15 18 13 09
  20900345.680      892408.777 7    700179.115 3
  21013732.383    -5659664.110 7  -4364842.779 2
  23661927.961    -4792011.237 6  -3069633.573 1
  24240297.820    11004495.935 5   8499444.999 1
  22600354.313   -10386689.554 6  -7678890.833 1
  23707388.758    -4114634.065 5  -2145837.980 1
 90 10 22 11 35 15.0000000  0  6 02 06 15 18 13 09
  20902102.750      901642.248 7    707374.029 3
  21009340.445    -5682743.464 7  -4382826.694 2
  23659454.688    -4804999.423 6  -3079754.230 1
  24250733.477    11059343.724 5   8542183.529 1
  22590460.617   -10438691.239 6  -7719411.622 1
  23698903.977    -4159223.793 5  -2180583.189 1
 90 10 22 11 35 30.0000000  0  6 02 06 15 18 13 09
  20903865.406      910905.737 7    714592.327 3
  21004957.367    -5705779.996 7  -4400777.237 2
  23657005.555    -4817885.261 6  -3089795.115 1
  24261168.461    11114175.726 5   8584909.728 1
  22580575.836   -10490631.778 6  -7759884.762 1
  23690415.891    -4203830.138 5  -2215341.373 1
 90 10 22 11 35 45.0000000  0  6 02 06 15 18 13 09
  20905635.563      920204.913 7    721838.439 3
  21000582.867    -5728767.670 7  -4418689.710 2
  23654572.617    -4830662.527 6  -3099751.433 1
  24271602.367    11168997.521 5   8627628.060 1
  22570704.125   -10542504.938 6  -7800305.399 1
  23681924.594    -4248447.370 5  -2250108.036 1
 90 10 22 11 36  0.0000000  0  6 02 06 15 18 13 09
  20907414.359      929554.077 7    729123.501 3
  20996220.133    -5751691.858 7  -4436552.716 2
  23652165.438    -4843316.837 6  -3109611.920 1
  24282034.437    11223823.363 5   8670349.492 1
  22560849.102   -10594296.229 6  -7840662.237 1
  23673437.922    -4293060.715 5  -2284871.694 1
 90 10 22 11 36 15.0000000  0  6 02 06 15 18 13 09
  20909203.070      938953.424 7    736447.664 3
  20991870.125    -5774551.969 7  -4454365.793 2
  23649783.969    -4855847.606 6  -3119376.134 1
  24292469.383    11278653.311 4   8713074.119 1
  22551008.922   -10646005.123 6  -7880954.875 1
  23664947.742    -4337669.736 5  -2319631.926 1
 90 10 22 11 36 30.0000000  0  6 02 06 15 18 13 09
  20911005.641      948423.994 7    743827.329 3
  20987536.578    -5797326.875 7  -4472112.472 2
  23647427.820    -4868233.647 6  -3129027.584 1
  24302905.219    11333507.769 4   8755817.848 1
  22541189.898   -10697610.133 6  -7921166.561 1
  23656460.641    -4382253.292 5  -2354372.368 1
 90 10 22 11 36 45.0000000  0  6 02 06 15 18 13 09
  20912819.133      957957.491 7    751256.027 3
  20983217.188    -5820024.327 7  -4489798.793 3
  23645095.609    -4880482.829 6  -3138572.395 1
  24313347.578    11388378.203 4   8798574.037 1
  22531388.344   -10749119.128 6  -7961303.429 1
  23647985.273    -4426819.467 5  -2389099.250 1
 90 10 22 11 37  0.0000000  0  6 02 06 15 18 13 09
  20914641.687      967537.014 7    758720.592 3
  20978908.414    -5842661.031 7  -4507437.787 2
  23642783.984    -4892611.775 6  -3148023.516 1
  24323788.367    11443247.470 4   8841329.310 1
  22521599.773   -10800548.498 6  -8001378.257 1
  23639502.688    -4471384.969 5  -2423825.604 1
 90 10 22 11 37 15.0000000  0  6 02 06 15 18 13 09
  20916470.086      977142.990 7    766205.768 3
  20974610.406    -5865256.339 7  -4525044.522 3
  23640498.617    -4904639.989 6  -3157396.146 1
  24334224.961    11498095.484 4   8884068.031 1
  22511825.711   -10851917.609 6  -8041406.130 1
  23631021.602    -4515969.104 5  -2458566.480 1
 90 10 22 11 37 30.0000000  0  6 02 06 15 18 13 09
  20918308.430      986803.659 7    773733.557 3
  20970323.563    -5887781.492 7  -4542596.591 2
  23638231.297    -4916538.831 6  -3166667.950 1
  24344666.070    11552950.465 4   8926812.128 1
  22502067.266   -10903197.507 6  -8081364.484 1
  23622534.617    -4560543.134 5  -2493299.488 1
 90 10 22 11 37 45.0000000  0  6 02 06 15 18 13 09
  20920156.914      996519.804 7    781304.579 3
  20966050.797    -5910235.236 7  -4560093.017 2
  23635991.727    -4928306.978 6  -3175837.920 1
  24355103.391    11607813.079 4   8969562.264 1
  22492325.359   -10954387.168 6  -8121252.528 1
  23614057.781    -4605106.114 5  -2528023.869 1
 90 10 22 11 38  0.0000000  0  6 02 06 15 18 13 09
  20922015.320     1006281.635 7    788911.197 3
  20961789.906    -5932627.039 7  -4577541.170 2
  23633776.047    -4939953.915 6  -3184913.449 1
  24365544.391    11662673.281 5   9012310.472 1
  22482601.234   -11005495.811 6  -8161077.450 1
  23605575.250    -4649667.521 5  -2562747.019 1
 90 10 22 11 38 15.0000000  0  6 02 06 15 18 13 09
  20923876.781     1016064.338 7    796534.080 3
  20957535.000    -5954981.633 7  -4594960.334 3
  23631578.625    -4951504.378 6  -3193913.799 1
  24375978.578    11717505.811 5   9055037.109 1
  22472884.266   -11056548.002 6  -8200858.361 1
  23597097.719    -4694252.288 5  -2597488.391 1
 90 10 22 11 38 30.0000000  0  6 02 06 15 18 13 09
  20925747.094     1025893.524 7    804193.185 3
  20953292.766    -5977273.042 7  -4612330.265 2
  23629405.664    -4962932.693 6  -3202818.959 1
  24386414.000    11772335.873 5   9097761.860 1
  22463187.336   -11107517.913 6  -8240575.177 1
  23588612.273    -4738834.372 5  -2632227.676 1
 90 10 22 11 38 45.0000000  0  6 02 06 15 18 13 09
  20927625.281     1035767.378 7    811887.098 3
  20949064.063    -5999502.734 7  -4629652.103 2
  23627252.828    -4974240.010 6  -3211629.849 1
  24396846.359    11827161.639 5   9140483.236 1
  22453502.313   -11158406.881 6  -8280228.894 1
  23580131.227    -4783415.334 5  -2666966.066 1
 90 10 22 11 39  0.0000000  0  6 02 06 15 18 13 09
  20929511.031     1045672.604 7    819605.457 3
  20944842.805    -6021683.479 7  -4646935.797 3
  23625120.469    -4985439.547 6  -3220356.752 1
  24407275.922    11881969.602 5   9183190.730 1
  22443830.938   -11209227.776 6  -8319829.601 1
  23571646.953    -4828008.007 5  -2701713.599 1
 90 10 22 11 39 15.0000000  0  6 02 06 15 18 13 09
  20931403.133     1055617.619 7    827354.815 3
  20940633.367    -6043806.736 7  -4664174.701 3
  23623012.570    -4996522.561 6  -3228992.847 1
  24417703.289    11936767.977 4   9225890.773 1
  22434176.016   -11259971.839 6  -8359370.428 1
  23563155.547    -4872603.975 5  -2736463.697 1
 90 10 22 11 39 30.0000000  0  6 02 06 15 18 13 09
  20933304.781     1065606.489 7    835138.346 3
  20936434.398    -6065868.199 7  -4681365.453 3
  23620925.688    -5007484.921 6  -3237534.944 1
  24428127.602    11991560.007 4   9268585.845 1
  22424534.273   -11310634.388 6  -8398847.726 1
  23554663.664    -4917199.068 5  -2771213.125 1
 90 10 22 11 39 45.0000000  0  6 02 06 15 18 13 09
  20935214.500     1075643.155 7    842959.123 3
  20932247.852    -6087863.520 7  -4698504.663 3
  23618865.602    -5018322.273 6  -3245979.621 1
  24438555.164    12046349.559 4   9311279.003 1
  22414908.945   -11361211.229 6  -8438258.250 1
  23546186.023    -4961789.009 5  -2805958.525 1
 90 10 22 11 40  0.0000000  0  6 02 06 15 18 13 09
  20937136.055     1085738.601 7    850825.702 3
  20928078.898    -6109781.123 7  -4715583.310 3
  23616828.187    -5029023.327 6  -3254318.090 1
  24448980.359    12101147.493 4   9353978.693 1
  22405304.234   -11411691.004 6  -8477593.131 1
  23537697.258    -5006362.165 5  -2840690.855 1
 90 10 22 11 40 15.0000000  0  6 02 06 15 18 13 09
  20939063.563     1095871.014 7    858721.089 3
  20923918.008    -6131642.707 7  -4732618.310 3
  23614815.461    -5039609.604 6  -3262567.129 1
  24459407.617    12155931.801 4   9396667.751 1
  22395711.836   -11462095.142 6  -8516869.080 1
  23529215.750    -5050940.485 5  -2875427.187 1
 90 10 22 11 40 30.0000000  0  6 02 06 15 18 13 09
  20940998.125     1106034.970 7    866641.048 3
  20919768.008    -6153453.360 7  -4749613.626 3
  23612817.664    -5050086.346 6  -3270730.820 1
  24469832.125    12210696.792 4   9439341.748 1
  22386133.555   -11512428.640 6  -8556089.988 1
  23520728.680    -5095529.141 5  -2910171.591 1
 90 10 22 11 40 45.0000000  0  6 02 06 15 18 13 09
  20942942.391     1116254.706 7    874604.481 3
  20915630.703    -6175188.741 7  -4766550.288 3
  23610849.281    -5060429.095 6  -3278790.100 1
  24480249.148    12265466.035 5   9482019.091 1
  22376573.625   -11562667.011 6  -8595236.762 1
  23512252.906    -5140103.742 5  -2944905.034 1
 90 10 22 11 41  0.0000000  0  6 02 06 15 18 13 09
  20944891.000     1126496.550 7    882585.140 3
  20911503.281    -6196882.010 7  -4783454.136 3
  23608903.516    -5070671.222 6  -3286770.976 1
  24490668.609    12320206.028 5   9524673.625 1
  22367024.586   -11612843.522 6  -8634335.336 1
  23503764.000    -5184697.494 5  -2979653.408 1
 90 10 22 11 41 15.0000000  0  6 02 06 15 18 13 09
  20946851.016     1136791.559 7    890607.224 3
  20907389.148    -6218501.805 7  -4800300.728 3
  23606975.344    -5080781.533 6  -3294649.122 1
  24501084.078    12374947.180 5   9567329.091 1
  22357495.289   -11662926.767 6  -8673361.224 1
  23495280.625    -5229279.249 5  -3014392.448 1
 90 10 22 11 41 30.0000000  0  6 02 06 15 18 13 09
  20948818.008     1147132.271 7    898664.920 3
  20903287.313    -6240055.173 7  -4817095.555 3
  23605079.031    -5090767.129 6  -3302430.099 1
  24511500.563    12429681.970 5   9609979.587 1
  22347981.180   -11712923.525 6  -8712319.733 1
  23486797.484    -5273856.078 5  -3049127.630 1
 90 10 22 11 41 45.0000000  0  6 02 06 15 18 13 09
  20950797.617     1157535.281 7    906771.158 3
  20899202.422    -6261525.170 7  -4833825.425 3
  23603205.609    -5100611.056 6  -3310100.684 1
  24521918.711    12484426.862 5   9652637.942 1
  22338487.031   -11762816.994 6  -8751197.751 1
  23478319.273    -5318411.097 5  -3083845.818 1
 90 10 22 11 42  0.0000000  0  6 02 06 15 18 13 09
  20952780.945     1167963.688 7    914897.188 3
  20895126.039    -6282948.561 7  -4850518.966 3
  23601351.867    -5110350.118 6  -3317689.551 1
  24532334.438    12539144.225 5   9695274.841 1
  22329005.039   -11812644.034 6  -8790024.006 1
  23469839.422    -5362981.412 5  -3118575.928 1
 90 10 22 11 42 15.0000000  0  6 02 06 15 18 13 09
  20954769.437     1178404.189 7    923032.640 3
  20891054.672    -6304338.299 7  -4867186.286 3
  23599516.266    -5119997.453 6  -3325206.942 1
  24542735.359    12593820.739 5   9737879.931 1
  22319533.891   -11862417.213 7  -8828808.291 1
  23461348.047    -5407579.724 5  -3153327.830 1
 90 10 22 11 42 30.0000000  0  6 02 06 15 18 13 09
  20956763.961     1188885.232 7    931199.684 3
  20886995.719    -6325665.728 7  -4883805.062 3
  23597701.086    -5129524.169 6  -3332630.353 1
  24553135.586    12648484.603 5   9780475.138 1
  22310077.930   -11912107.632 7  -8867528.088 1
  23452864.852    -5452177.531 5  -3188079.365 1
 90 10 22 11 42 45.0000000  0  6 02 06 15 18 13 09
  20958770.742     1199432.036 7    939417.972 3
  20882956.445    -6346905.064 7  -4900355.195 3
  23595919.523    -5138904.789 6  -3339939.909 1
  24563542.430    12703160.796 5   9823079.974 1
  22300641.953   -11961689.900 7  -8906163.611 1
  23444382.320    -5496748.996 5  -3222810.379 1
 90 10 22 11 43  0.0000000  0  6 02 06 15 18 13 09
  20960787.305     1210029.131 7    947675.451 3
  20878927.469    -6368071.577 7  -4916848.580 3
  23594157.719    -5148154.703 6  -3347147.614 1
  24573946.766    12757833.232 5   9865681.846 1
  22291225.859   -12011179.277 7  -8944726.757 1
  23435903.813    -5541309.665 5  -3257532.960 1
 90 10 22 11 43 15.0000000  0  6 02 06 15 18 13 09
  20962808.914     1220656.399 7    955956.435 3
  20874910.031    -6389185.217 7  -4933300.774 3
  23592418.586    -5157293.864 6  -3354269.044 1
  24584347.008    12812481.708 5   9908265.108 1
  22281821.758   -12060595.364 7  -8983232.797 1
  23427425.039    -5585879.512 5  -3292262.732 1
 90 10 22 11 43 30.0000000  0  6 02 06 15 18 13 09
  20964844.648     1231351.793 7    964290.509 3
  20870909.039    -6410207.537 7  -4949681.800 3
  23590705.844    -5166283.744 6  -3361274.137 1
  24594750.086    12867144.137 5   9950859.210 1
  22272438.250   -12109899.478 7  -9021651.578 1
  23418942.406    -5630420.069 5  -3326969.632 1
 90 10 22 11 43 45.0000000  0  6 02 06 15 18 13 09
  20966893.227     1242122.430 7    972683.215 3
  20866927.906    -6431130.877 7  -4965985.702 3
  23589026.313    -5175117.135 6  -3368157.277 1
  24605154.297    12921827.492 4   9993469.635 1
  22263079.711   -12159084.505 7  -9059977.569 1
  23410478.008    -5674924.106 5  -3361648.089 1
 90 10 22 11 44  0.0000000  0  6 02 06 15 18 13 09
  20968953.531     1252948.264 7    981118.930 3
  20862961.250    -6451975.275 7  -4982228.086 3
  23587372.031    -5183813.946 6  -3374934.005 1
  24615561.234    12976510.814 4  10036080.007 1
  22253738.945   -12208170.249 7  -9098226.186 1
  23402013.555    -5719411.428 5  -3396313.546 1
 90 10 22 11 44 15.0000000  0  6 02 06 15 18 13 09
  20971022.648     1263814.414 7    989586.062 3
  20859006.547    -6472755.286 7  -4998420.300 3
  23585739.813    -5192388.952 6  -3381615.823 1
  24625962.813    13031179.224 4  10078678.751 1
  22244414.063   -12257170.977 7  -9136408.570 1
  23393553.695    -5763896.657 5  -3430977.366 1
 90 10 22 11 44 30.0000000  0  6 02 06 15 18 13 09
  20973094.750     1274708.444 7    998074.910 3
  20855062.492    -6493483.155 7  -5014571.882 3
  23584130.633    -5200854.195 6  -3388212.099 1
  24636360.734    13085819.770 4  10121255.805 1
  22235103.789   -12306098.868 7  -9174534.186 1
  23385078.648    -5808392.081 5  -3465649.115 1
 90 10 22 11 44 45.0000000  0  6 02 06 15 18 13 09
  20975179.828     1285666.715 7   1006613.824 3
  20851134.945    -6514121.920 7  -5030654.034 3
  23582543.945    -5209173.090 6  -3394694.341 1
  24646761.336    13140469.254 3  10163839.814 1
  22225813.664   -12354916.928 7  -9212574.224 1
  23376616.773    -5852860.758 5  -3500300.020 1
 90 10 22 11 45  0.0000000  0  6 02 06 15 18 13 09
  20977289.523     1296749.101 7   1015249.445 3
  20847236.445    -6534611.272 7  -5046619.760 2
  23581002.836    -5217285.426 5  -3401015.653 1
  24657172.742    13195186.919 3  10206476.937 1
  22216556.617   -12403564.784 7  -9250481.641 1
  23368173.195    -5897242.732 5  -3534883.363 1
 90 10 22 11 45 15.0000000  0  6 02 06 15 18 13 09
  20979397.016     1307826.012 7   1023880.806 3
  20843340.422    -6555080.715 7  -5062569.976 3
  23579473.078    -5225320.732 6  -3407276.918 1
  24667574.195    13249842.843 3  10249065.987 1
  22207307.664   -12452172.038 7  -9288357.418 1
  23359716.414    -5941667.337 5  -3569499.922 1
 90 10 22 11 45 30.0000000  0  6 02 06 15 18 13 09
  20981517.711     1318969.401 7   1032563.965 3
  20839462.477    -6575457.610 7  -5078448.081 3
  23577972.000    -5233206.608 6  -3413421.740 1
  24677973.406    13304508.706 3  10291662.779 1
  22198078.703   -12500666.256 7  -9326145.115 1
  23351270.734    -5986062.239 5  -3604093.350 1
 90 10 22 11 45 45.0000000  0  6 02 06 15 18 13 09
  20983643.203     1330141.744 7   1041269.688 3
  20835596.055    -6595779.783 7  -5094283.544 3
  23576495.117    -5240980.596 6  -3419479.385 1
  24688374.305    13359146.554 3  10334237.693 1
  22188865.633   -12549084.704 7  -9363873.769 1
  23342818.008    -6030464.983 5  -3638692.880 1
 90 10 22 11 46  0.0000000  0  6 02 06 15 18 13 09
  20985771.477     1341323.661 7   1049982.864 3
  20831735.836    -6616065.787 7  -5110090.817 3
  23575028.281    -5248661.580 6  -3425464.562 1
  24698761.031    13413736.930 3  10376775.656 1
  22179662.164   -12597446.150 7  -9401558.005 1
  23334368.227    -6074894.409 5  -3673313.205 1
 90 10 22 11 46 15.0000000  0  6 02 06 15 18 13 09
  20987905.703     1352538.977 7   1058722.069 3
  20827886.188    -6636291.602 7  -5125851.188 3
  23573592.914    -5256225.559 6  -3431358.576 1
  24709145.109    13468303.465 3  10419295.004 1
  22170476.133   -12645726.614 7  -9439179.139 1
  23325908.273    -6119326.571 5  -3707935.671 1
 90 10 22 11 46 30.0000000  0  6 02 06 15 18 13 09
  20990049.695     1363803.508 7   1067499.627 3
  20824052.539    -6656441.145 7  -5141552.130 3
  23572178.055    -5263656.262 6  -3437148.702 1
  24719527.961    13522861.681 3  10461807.887 1
  22161306.734   -12693909.844 7  -9476724.508 1
  23317456.891    -6163745.387 5  -3742547.710 1
 90 10 22 11 46 45.0000000  0  6 02 06 15 18 13 09
  20992200.805     1375108.963 7   1076309.073 3
  20820230.961    -6676522.302 7  -5157199.786 3
  23570788.133    -5270962.147 6  -3442841.599 1
  24729905.078    13577403.063 4  10504307.664 1
  22152153.656   -12742003.883 7  -9514200.366 1
  23309003.836    -6208158.910 5  -3777155.651 1
 90 10 22 11 47  0.0000000  0  6 02 06 15 18 13 09
  20994363.961     1386474.911 7   1085165.654 3
  20816426.102    -6696515.267 7  -5172778.720 3
  23569425.930    -5278123.353 6  -3448421.750 1
  24740287.352    13631946.772 4  10546809.266 1
  22143022.656   -12789988.603 7  -9551591.047 1
  23300557.578    -6252547.193 5  -3811743.921 1
 90 10 22 11 47 15.0000000  0  6 02 06 15 18 13 09
  20996533.477     1397879.397 7   1094052.267 3
  20812635.109    -6716441.665 7  -5188305.783 3
  23568086.336    -5285161.437 6  -3453905.948 1
  24750661.516    13686470.429 3  10589295.258 1
  22133908.094   -12837885.763 7  -9588913.501 1
  23292112.633    -6296932.093 5  -3846329.546 1
 90 10 22 11 47 30.0000000  0  6 02 06 15 18 13 09
  20998709.055     1409313.754 7   1102962.150 3
  20808854.078    -6736309.910 7  -5203787.534 3
  23566767.750    -5292085.526 6  -3459301.341 1
  24761029.961    13740965.119 3  10631758.636 1
  22124809.797   -12885703.720 7  -9626174.232 1
  23283665.977    -6341322.212 5  -3880919.231 1
 90 10 22 11 47 45.0000000  0  6 02 06 15 18 13 09
  21000894.164     1420791.390 7   1111905.764 3
  20805086.945    -6756106.314 7  -5219213.303 3
  23565471.406    -5298881.731 5  -3464597.079 1
  24771396.828    13795444.230 3  10674209.901 1
  22115728.039   -12933428.655 7  -9663362.485 1
  23275216.922    -6385703.692 5  -3915502.178 1
 90 10 22 11 48  0.0000000  0  6 02 06 15 18 13 09
  21003084.477     1432304.697 7   1120877.173 3
  20801331.383    -6775838.022 7  -5234588.659 3
  23564206.094    -5305556.961 6  -3469798.558 1
  24781760.336    13849899.585 3  10716642.650 1
  22106662.523   -12981067.864 7  -9700483.948 1
  23266773.672    -6430083.753 5  -3950084.043 1
 90 10 22 11 48 15.0000000  0  6 02 06 15 18 13 09
  21005283.383     1443859.166 7   1129880.651 3
  20797590.977    -6795499.310 7  -5249909.144 3
  23562957.453    -5312105.670 6  -3474901.439 1
  24792117.641    13904336.658 3  10759061.149 1
  22097614.414   -13028615.246 7  -9737533.845 1
  23258331.297    -6474456.864 5  -3984660.517 1
 90 10 22 11 48 30.0000000  0  6 02 06 15 18 13 09
  21007487.031     1455436.644 7   1138902.062 3
  20793859.555    -6815107.932 7  -5265188.589 3
  23561734.008    -5318546.068 6  -3479919.923 1
  24802469.117    13958736.958 3  10801450.998 1
  22088581.070   -13076088.832 7  -9774526.242 1
  23249884.195    -6518840.687 5  -4019245.307 1
 90 10 22 11 48 45.0000000  0  6 02 06 15 18 13 09
  21009697.805     1467058.188 7   1147957.809 3
  20790142.188    -6834642.628 7  -5280410.431 3
  23560531.961    -5324856.786 6  -3484837.371 1
  24812818.203    14013121.362 3  10843828.420 1
  22079564.078   -13123467.137 7  -9811444.395 1
  23241441.906    -6563214.205 5  -4053822.074 1
 90 10 22 11 49  0.0000000  0  6 02 06 15 18 13 09
  21011919.086     1478732.943 7   1157055.018 3
  20786440.234    -6854093.797 7  -5295567.187 3
  23559357.180    -5331028.444 6  -3489646.449 1
  24823167.539    14067498.609 3  10886200.300 1
  22070568.844   -13170740.816 7  -9848281.022 1
  23233002.508    -6607567.802 5  -4088383.281 1
 90 10 22 11 49 15.0000000  0  6 02 06 15 18 13 09
  21014149.438     1490448.122 7   1166183.731 3
  20782752.945    -6873474.169 7  -5310668.779 3
  23558208.000    -5337073.751 6  -3494357.074 1
  24833510.117    14121855.515 3  10928556.325 1
  22061589.867   -13217922.033 7  -9885045.599 1
  23224564.703    -6651914.107 5  -4122938.832 1
 90 10 22 11 49 30.0000000  0  6 02 06 15 18 13 09
  21016385.438     1502203.508 7   1175343.771 3
  20779078.836    -6892783.454 7  -5325714.975 3
  23557080.547    -5342992.737 6  -3498969.267 1
  24843852.961    14176191.550 3  10970896.090 1
  22052628.305   -13265010.823 7  -9921738.158 1
  23216125.070    -6696253.075 5  -4157488.682 1
 90 10 22 11 49 45.0000000  0  6 02 06 15 18 13 09
  21018632.289     1514011.439 7   1184544.757 3
  20775419.820    -6912008.949 7  -5340695.880 3
  23555979.672    -5348772.678 6  -3503473.100 1
  24854189.938    14230518.972 4  11013229.142 1
  22043688.016   -13311994.584 7  -9958348.871 1
  23207691.117    -6740572.011 5  -4192022.917 1
 90 10 22 11 50  0.0000000  0  6 02 06 15 18 13 09
  21020888.422     1525868.905 7   1193784.339 3
  20771776.531    -6931153.405 7  -5355613.636 3
  23554906.109    -5354416.429 6  -3507870.813 1
  24864526.094    14284834.444 4  11055552.920 1
  22034766.695   -13358876.009 7  -9994879.842 1
  23199260.180    -6784873.812 5  -4226543.787 1
 90 10 22 11 50 15.0000000  0  6 02 06 15 18 13 09
  21023153.117     1537762.163 7   1203051.814 3
  20768146.320    -6950230.314 7  -5370478.759 3
  23553857.102    -5359937.684 6  -3512173.081 1
  24874856.914    14339123.846 5  11097856.364 1
  22025862.695   -13405668.458 7 -10031341.491 1
  23190834.742    -6829171.775 5  -4261061.674 1
 90 10 22 11 50 30.0000000  0  5 02 06 15 13 09
  21025423.383     1549697.062 7   1212351.737 3
  20764529.469    -6969233.171 7  -5385286.171 3
  23552829.750    -5365330.284 6  -3516375.101 1
  22016977.133   -13452365.462 7 -10067728.752 1
  23182401.086    -6873459.902 5  -4295571.886 1
 90 10 22 11 50 45.0000000  0  5 02 06 15 13 09
  21027702.203     1561665.261 7   1221677.606 3
  20760926.359    -6988170.434 7  -5400042.476 3
  23551828.648    -5370602.525 6  -3520483.354 1
  22008106.625   -13498975.242 7 -10104048.055 1
  23173975.938    -6917746.241 5  -4330080.731 1
 90 10 22 11 51  0.0000000  0  5 02 06 15 13 09
  21029986.234     1573675.720 7   1231036.401 3
  20757336.703    -7007032.740 7  -5414740.373 3
  23550849.000    -5375744.917 6  -3524490.405 1
  21999255.477   -13545488.369 7 -10140292.044 1
  23165550.969    -6962021.538 5  -4364580.955 1
 90 10 22 11 51 15.0000000  0  5 02 06 15 13 09
  21032279.484     1585721.604 7   1240422.804 3
  20753760.164    -7025826.254 7  -5429384.674 3
  23549892.023    -5380764.084 6  -3528401.439 1
  21990421.828   -13591911.360 7 -10176465.795 1
  23157129.891    -7006292.283 5  -4399077.628 1
 90 10 22 11 51 30.0000000  0  5 02 06 15 13 09
  21034581.945     1597826.507 7   1249855.193 3
  20750201.813    -7044527.413 7  -5443957.005 3
  23548967.227    -5385636.378 6  -3532198.033 1
  21981609.508   -13638220.282 7 -10212550.663 1
  23148704.188    -7050534.754 5  -4433552.270 1
 90 10 22 11 51 45.0000000  0  5 02 06 15 13 09
  21036895.477     1609978.285 7   1259324.108 3
  20746658.844    -7063148.336 7  -5458466.817 3
  23548064.875    -5390374.062 6  -3535889.720 1
  21972816.414   -13684427.124 7 -10248555.985 1
  23140289.563    -7094761.110 5  -4468014.374 1
 90 10 22 11 52  0.0000000  0  5 02 06 15 13 09
  21039220.242     1622192.924 7   1268842.008 3
  20743133.781    -7081672.246 7  -5472901.034 3
  23547191.469    -5394960.840 6  -3539463.840 1
  21964046.820   -13730515.439 7 -10284468.957 1
  23131881.969    -7138954.822 5  -4502451.031 1
 90 10 22 11 52 15.0000000  0  5 02 06 15 13 09
  21041551.836     1634447.901 7   1278391.340 3
  20739622.820    -7100121.541 7  -5487277.108 3
  23546342.844    -5399419.016 6  -3542937.736 1
  21955294.008   -13776507.363 7 -10320306.811 1
  23123475.945    -7183138.104 5  -4536879.554 1
 90 10 22 11 52 30.0000000  0  5 02 06 15 13 09
  21043890.484     1646737.527 7   1287967.671 3
  20736124.828    -7118501.435 7  -5501599.101 3
  23545517.023    -5403753.924 6  -3546315.580 1
  21946559.836   -13822408.221 7 -10356073.710 1
  23115067.719    -7227316.521 5  -4571304.280 1
 90 10 22 11 52 45.0000000  0  5 02 06 15 13 09
  21046236.508     1659067.316 7   1297575.298 3
  20732641.727    -7136806.095 7  -5515862.470 3
  23544716.578    -5407959.785 6  -3549592.861 1
  21937843.242   -13868212.298 7 -10391765.195 1
  23106663.781    -7271484.040 5  -4605720.530 1
 90 10 22 11 53  0.0000000  0  5 02 06 15 13 09
  21048592.602     1671450.392 7   1307224.447 3
  20729175.500    -7155022.106 7  -5530056.768 3
  23543944.805    -5412023.616 6  -3552759.479 1
  21929147.508   -13913906.250 7 -10427370.867 1
  23098262.461    -7315627.355 5  -4640117.910 1
 90 10 22 11 53 15.0000000  0  5 02 06 15 13 09
  21050952.180     1683848.173 7   1316885.052 3
  20725719.883    -7173188.192 7  -5544212.162 3
  23543189.625    -5415984.131 6  -3555845.587 1
  21920466.039   -13959528.333 7 -10462920.535 1
  23089858.602    -7359785.069 5  -4674526.522 1
 90 10 22 11 53 30.0000000  0  5 02 06 15 13 09
  21053316.234     1696276.835 7   1326569.722 3
  20722274.961    -7191287.301 7  -5558315.366 3
  23542458.086    -5419824.618 6  -3558838.162 1
  21911800.883   -14005061.741 7 -10498401.106 1
  23081461.969    -7403940.525 5  -4708933.347 1
 90 10 22 11 53 45.0000000  0  5 02 06 15 13 09
  21055688.992     1708742.033 7   1336282.860 3
  20718843.742    -7209313.621 7  -5572361.852 3
  23541751.516    -5423539.139 6  -3561732.596 1
  21903154.211   -14050500.560 7 -10533807.979 1
  23073056.898    -7448087.764 5  -4743333.792 1
 90 10 22 11 54  0.0000000  0  5 02 06 15 13 09
  21058067.961     1721244.922 7   1346025.367 3
  20715428.539    -7227265.859 7  -5586350.608 3
  23541071.711    -5427126.432 6  -3564527.880 1
  21894526.852   -14095843.406 7 -10569140.061 1
  23064657.852    -7492225.388 5  -4777726.732 1
 90 10 22 11 54 15.0000000  0  5 02 06 15 13 09
  21060456.867     1733795.068 7   1355804.706 3
  20712026.844    -7245133.883 7  -5600273.740 3
  23540414.078    -5430576.331 6  -3567216.112 1
  21885917.953   -14141080.266 7 -10604389.554 1
  23056261.578    -7536343.526 5  -4812104.497 1
 90 10 22 11 54 30.0000000  0  5 02 06 15 13 09
  21062851.008     1746378.384 7   1365609.886 3
  20708642.109    -7262931.362 7  -5614141.904 3
  23539780.234    -5433903.065 6  -3569808.366 1
  21877327.336   -14186225.021 7 -10639567.275 1
  23047869.641    -7580455.954 5  -4846477.817 1
 90 10 22 11 54 45.0000000  0  5 02 06 15 13 09
  21065253.430     1759002.314 7   1375446.710 3
  20705269.055    -7280650.877 7  -5627949.318 3
  23539173.742    -5437099.392 6  -3572298.992 1
  21868755.875   -14231269.887 7 -10674667.157 1
  23039475.281    -7624555.149 5  -4880840.814 1
 90 10 22 11 55  0.0000000  0  5 02 06 15 13 09
  21067662.344     1771665.094 7   1385313.805 3
  20701911.695    -7298293.610 7  -5641696.895 3
  23538588.641    -5440166.757 6  -3574689.151 1
  21860203.305   -14276216.192 7 -10709690.244 1
  23031085.273    -7668642.442 5  -4915194.544 1
 90 10 22 11 55 15.0000000  0  5 02 06 15 13 09
  21070078.992     1784363.619 7   1395208.755 3
  20698569.484    -7315862.556 7  -5655386.977 3
  23538027.758    -5443107.793 6  -3576980.865 1
  21851667.266   -14321066.928 7 -10744638.860 1
  23022697.703    -7712720.649 5  -4949541.185 1
 90 10 22 11 55 30.0000000  0  5 02 06 15 13 09
  21072505.875     1797109.550 7   1405140.646 3
  20695241.914    -7333345.839 7  -5669010.311 3
  23537495.656    -5445911.178 6  -3579165.302 1
  21843153.039   -14365809.981 7 -10779503.573 1
  23014314.977    -7756778.167 5  -4983871.718 1
 90 10 22 11 55 45.0000000  0  5 02 06 15 13 09
  21074938.742     1809901.294 7   1415108.238 3
  20691930.883    -7350744.698 7  -5682567.871 3
  23536988.555    -5448578.363 6  -3581243.628 1
  21834660.008   -14410446.779 7 -10814285.477 1
  23005933.406    -7800816.267 5  -5018187.124 1
 90 10 22 11 56  0.0000000  0  5 02 06 15 13 09
  21077378.797     1822723.476 7   1425099.545 3
  20688633.984    -7368074.003 7  -5696071.217 3
  23536502.203    -5451124.081 6  -3583227.299 1
  21826182.719   -14454992.220 7 -10848996.203 1
  22997558.031    -7844849.659 5  -5052498.852 1
 90 10 22 11 56 15.0000000  0  5 02 06 15 13 09
  21079821.695     1835557.476 7   1435100.065 3
  20685344.719    -7385352.094 7  -5709534.665 3
  23536038.844    -5453566.736 6  -3585130.664 1
  21817720.023   -14499464.485 7 -10883649.915 1
  22989172.742    -7888896.918 5  -5086821.380 1
 90 10 22 11 56 30.0000000  0  5 02 06 15 13 09
  21082272.516     1848438.745 7   1445137.411 3
  20682075.305    -7402543.202 7  -5722930.337 3
  23535599.977    -5455871.017 6  -3586926.200 1
  21809278.359   -14543827.768 7 -10918218.702 1
  22980790.297    -7932922.239 5  -5121126.822 1
 90 10 22 11 56 45.0000000  0  5 02 06 15 13 09
  21084737.008     1861388.737 7   1455228.309 3
  20678823.320    -7419625.630 7  -5736241.321 3
  23535193.469    -5458015.301 6  -3588597.070 1
  21800860.328   -14588060.631 7 -10952685.864 1
  22972423.961    -7976903.966 5  -5155398.289 1
 90 10 22 11 57  0.0000000  0  5 02 06 15 13 09
  21087210.484     1874388.156 7   1465357.727 3
  20675589.742    -7436618.429 7  -5749482.462 3
  23534810.641    -5460018.869 6  -3590158.281 1
  21792464.438   -14632181.884 7 -10987066.057 1
  22964058.164    -8020861.038 5  -5189650.553 1
 90 10 22 11 57 15.0000000  0  5 02 06 15 13 09
  21089694.328     1887436.956 7   1475525.621 3
  20672372.977    -7453521.374 7  -5762653.589 2
  23534455.148    -5461881.842 6  -3591609.947 1
  21784090.422   -14676191.363 7
  22955701.078    -8064793.428 5
 90 10 22 11 57 30.0000000  0  5 02 06 15 13 09
  21092184.633     1900529.590 7   1485727.674 3
  20669172.750    -7470339.750 7  -5775758.817 3
  23534126.828    -5463609.303 6  -3592956.029 1
  21775735.313   -14720094.382 7
  22947346.133    -8108706.430 5
 90 10 22 11 57 45.0000000  0  5 02 06 15 13 09
  21094684.953     1913670.505 7   1495967.346 3
  20665988.859    -7487068.599 7  -5788794.284 3
  23533827.109    -5465196.567 6  -3594192.845 1
  21767402.320   -14763886.163 7 -11089692.744 1
  22938993.938    -8152595.245 5  -5292300.570 1
 90 10 22 11 58  0.0000000  0  5 02 06 15 13 09
  21097196.594     1926862.289 7   1506246.662 3
  20662823.070    -7503705.173 7  -5801757.853 3
  23533552.625    -5466641.082 6  -3595318.435 1
  21759091.461   -14807563.831 7 -11123727.287 1
  22930642.063    -8196456.979 5  -5326478.536 1
 90 10 22 11 58 15.0000000  0  5 02 06 15 13 09
  21099712.531     1940087.406 7   1516551.942 3
  20659672.320    -7520266.620 7  -5814662.882 3
  23533299.086    -5467960.293 6  -3596346.394 1
  21750797.961   -14851144.184 7 -11157685.989 1
  22922300.742    -8240308.816 5  -5360648.794 1
 90 10 22 11 58 30.0000000  0  5 02 06 15 13 09
  21102234.578     1953342.205 7   1526880.357 3
  20656534.406    -7536756.117 7  -5827511.841 2
  23533071.984    -5469157.526 6  -3597279.291 1
  21742521.320   -14894630.779 7 -11191571.642 1
  22913958.055    -8284154.202 5  -5394814.024 1
 90 10 22 11 58 45.0000000  0  5 02 06 15 13 09
  21104762.289     1966622.608 7   1537228.723 3
  20653408.523    -7553177.698 7  -5840307.883 3
  23532867.945    -5470236.744 6  -3598120.239 1
  21734264.070   -14938027.338 7 -11225387.139 1
  22905614.969    -8327996.838 5  -5428977.108 1
 90 10 22 11 59  0.0000000  0  5 02 06 15 13 09
  21107294.602     1979934.078 7   1547601.294 3
  20650298.008    -7569525.570 7  -5853046.485 3
  23532684.883    -5471192.555 6  -3598865.018 1
  21726025.383   -14981328.204 7 -11259128.073 1
  22897270.266    -8371831.111 5  -5463133.668 1
 90 10 22 11 59 15.0000000  0  5 02 06 15 13 09
  21109836.297     1993291.728 7   1558009.851 3
  20647204.461    -7585784.376 7  -5865715.685 3
  23532529.313    -5472009.775 6  -3599501.808 1
  21717805.102   -15024518.185 7 -11292782.592 1
  22888940.039    -8415641.872 5  -5497271.939 1
 90 10 22 11 59 30.0000000  0  5 02 06 15 13 09
  21112386.781     2006690.102 7   1568450.135 3
  20644126.672    -7601959.025 7  -5878319.308 3
  23532400.734    -5472693.280 6  -3600034.401 1
  21709607.398   -15067602.208 7 -11326354.552 1
  22880599.422    -8459433.941 5  -5531395.618 1
 90 10 22 11 59 45.0000000  0  5 02 06 15 13 09
  21114948.813     2020153.826 7   1578941.345 3
  20641068.789    -7618024.736 7  -5890838.041 3
  23532300.813    -5473218.368 6  -3600443.559 1
  21701433.633   -15110555.284 7 -11359824.474 1
  22872279.703    -8503182.338 5  -5565485.266 1
 90 10 22 12  0  0.0000000  0  5 02 06 15 13 09
  21117522.516     2033675.729 7   1589477.887 3
  20638031.711    -7633988.273 7  -5903277.159 3
  23532229.484    -5473592.022 6  -3600734.713 1
  21693283.563   -15153384.372 7 -11393197.778 1
  22863958.687    -8546894.115 5  -5599546.386 1
 90 10 22 12  0 15.0000000  0  5 02 06 15 13 09
  21120100.641     2047227.882 7   1600038.003 3
  20635007.984    -7649877.329 7  -5915658.239 3
  23532178.188    -5473842.473 5
  21685151.453   -15196117.291 7 -11426496.149 1
  22855643.602    -8590596.945 5  -5633600.538 1
 90 10 22 12  0 30.0000000  0  5 02 06 15 13 09
  21122688.398     2060821.199 7   1610630.193 3
  20631999.797    -7665680.719 7  -5927972.575 3
  23532158.578    -5473958.715 6
  21677040.055   -15238742.484 7 -11459710.576 1
  22847331.250    -8634279.532 5  -5667638.910 1
 90 10 22 12  0 45.0000000  0  5 02 06 15 13 09
  21125283.789     2074466.110 7   1621262.587 3
  20629012.250    -7681387.920 7  -5940211.950 3
  23532162.727    -5473930.292 6
  21668952.109   -15281249.371 7 -11492832.818 1
  22839022.008    -8677931.483 6  -5701653.412 1
 90 10 22 12  1  0.0000000  0  5 02 06 15 13 09
  21127897.328     2088198.349 7   1631963.028 3
  20626047.828    -7696962.547 7  -5952348.024 3
  23532203.000    -5473720.986 5
  21660892.594   -15323601.823 7 -11525834.721 1
  22830727.555    -8721516.644 5  -5735615.877 1
 90 10 22 12  1 15.0000000  0  5 02 06 15 13 09
  21130524.063     2102002.029 7   1642719.135 3
  20623106.531    -7712420.334 7  -5964393.052 3
  23532274.633    -5473346.710 5
  21652859.195   -15365815.688 7 -11558728.630 1
  22822445.750    -8765050.510 5  -5769538.362 1
 90 10 22 12  1 30.0000000  0  5 02 06 15 13 09
  21133163.047     2115867.439 7   1653523.351 3
  20620185.695    -7727770.749 7  -5976354.420 3
  23532376.688    -5472816.943 6        -0.22411
  21644850.500   -15407900.124 7 -11591521.690 1
  22814172.664    -8808542.558 6  -5803428.258 1
 90 10 22 12  1 45.0000000  0  5 02 06 15 13 09
  21135802.297     2129734.986 7   1664329.229 3
  20617273.195    -7743073.123 7  -5988278.345 3
  23532494.969    -5472190.808 6       487.674 1
  21636855.469   -15449914.459 7 -11624260.125 1
  22805890.328    -8852052.155 6  -5837331.835 1
 90 10 22 12  2  0.0000000  0  5 02 06 15 13 09
  21138447.758     2143642.191 7   1675166.009 3
  20614377.063    -7758289.274 7  -6000135.088 3
  23532639.273    -5471431.061 6      1079.692 1
  21628880.953   -15491820.904 7 -11656914.488 1
  22797613.867    -8895541.304 6  -5871219.481 1
 90 10 22 12  2 15.0000000  0  5 02 06 15 13 09
  21141108.117     2157620.754 7   1686058.393 3
  20611504.328    -7773387.513 7  -6011899.947 3
  23532816.352    -5470506.052 6      1800.479 1
  21620932.461   -15533587.600 7 -11689459.963 1
  22789350.625    -8938978.172 6  -5905066.379 1
 90 10 22 12  2 30.0000000  0  5 02 06 15 13 09
  21143771.469     2171620.038 7   1696966.920 3
  20608644.742    -7788418.272 7  -6023612.228 2
  23533013.461    -5469466.230 6      2610.729 1
  21613001.477   -15575265.144 7 -11721935.964 1
  22781081.680    -8982413.192 6  -5938911.842 1
 90 10 22 12  2 45.0000000  0  5 02 06 15 13 09
  21146447.250     2185681.925 7   1707924.235 3
  20605805.063    -7803339.175 7  -6035238.906 3
  23533241.672    -5468269.500 6      3543.250 1
  21605097.188   -15616811.037 7 -11754309.379 1
  22772823.273    -9025804.120 6  -5972722.959 1
 90 10 22 12  3  0.0000000  0  5 02 06 15 13 09
  21149133.563     2199798.382 7   1718924.067 3
  20602985.367    -7818157.954 7  -6046786.006 3
  23533495.508    -5466924.099 6      4591.621 1
  21597213.422   -15658232.944 7 -11786586.183 1
  22764577.148    -9069158.671 6  -6006505.723 1
 90 10 22 12  3 15.0000000  0  5 02 06 15 13 09
  21151826.039     2213948.815 7   1729950.378 3
  20600180.977    -7832894.984 7  -6058269.407 3
  23533776.352    -5465450.311 6      5740.028 1
  21589349.805   -15699551.511 7 -11818782.461 1
  22756331.016    -9112497.360 6  -6040276.119 1
 90 10 22 12  3 30.0000000  0  5 02 06 15 13 09
  21154531.398     2228160.344 7   1741024.294 3
  20597397.289    -7847522.909 7  -6069667.792 3
  23534087.883    -5463820.885 6      7009.719 1
  21581514.156   -15740739.063 7 -11850876.647 1
  22748090.547    -9155792.520 6  -6074012.607 1
 90 10 22 12  3 45.0000000  0  5 02 06 15 13 09
  21157246.898     2242437.202 7   1752149.123 3
  20594635.117    -7862037.052 7  -6080977.511 3
  23534427.047    -5462031.226 6      8404.264 1
  21573700.922   -15781791.221 7 -11882865.331 1
  22739863.234    -9199039.628 6  -6107711.656 1
 90 10 22 12  4  0.0000000  0  5 02 06 15 13 09
  21159971.406     2256753.686 7   1763304.818 3
  20591890.813    -7876462.928 7  -6092218.450 3
  23534794.008    -5460107.245 6      9903.480 1
  21565910.602   -15822733.249 7 -11914768.202 1
  22731635.375    -9242264.221 6  -6141393.144 1
 90 10 22 12  4 15.0000000  0  5 02 06 15 13 09
  21162704.719     2271112.695 7   1774493.654 3
  20589162.023    -7890797.373 7  -6103388.149 3
  23535186.391    -5458045.947 6     11509.683 1
  21558140.563   -15863562.146 7 -11946582.921 1
  22723415.563    -9285463.254 6  -6175054.732 1
 90 10 22 12  4 30.0000000  0  5 02 06 15 13 09
  21165440.664     2285496.480 7   1785701.796 3
  20586448.922    -7905057.778 7  -6114500.154 3
  23535601.758    -5455865.222 6     13208.958 1
  21550390.039   -15904295.473 7 -11978323.164 1
  22715193.328    -9328654.105 6  -6208709.926 1
 90 10 22 12  4 45.0000000  0  5 02 06 15 13 09
  21168188.047     2299924.464 7   1796944.374 3
  20583752.570    -7919224.370 7  -6125539.057 3
  23536042.438    -5453545.267 6     15016.716 1
  21542659.102   -15944913.187 7 -12009973.324 1
  22706981.313    -9371816.887 6  -6242343.258 1
 90 10 22 12  5  0.0000000  0  5 02 06 15 13 09
  21170948.852     2314436.509 7   1808252.456 3
  20581083.023    -7933256.991 7  -6136473.565 2
  23536518.977    -5451046.110 6     16964.103 1
  21534960.461   -15985375.218 7 -12041502.167 1
  22698784.266    -9414911.506 6  -6275923.477 1
 90 10 22 12  5 15.0000000  0  5 02 06 15 13 09
  21173715.492     2328977.054 7   1819582.745 3
  20578426.844    -7947210.872 7  -6147346.718 3
  23537019.164    -5448423.314 6     19007.842 1
  21527279.914   -16025737.066 7 -12072952.952 1
  22690582.406    -9457993.244 6  -6309493.673 1
 90 10 22 12  5 30.0000000  0  5 02 06 15 13 09
  21176490.531     2343556.694 7   1830943.503 3
  20575789.406    -7961075.457 7  -6158150.294 3
  23537541.414    -5445666.147 6     21156.294 1
  21519620.602   -16065987.937 7 -12104317.265 1
  22682386.586    -9501051.548 6  -6343045.584 1
 90 10 22 12  5 45.0000000  0  5 02 06 15 13 09
  21179271.750     2358178.258 7   1842336.933 3
  20573167.953    -7974847.398 7  -6168881.672 3
  23538093.813    -5442771.274 6     23412.048 1
  21511982.781   -16106124.555 7 -12135592.544 1
  22674200.633    -9544082.861 6  -6376576.467 1
 90 10 22 12  6  0.0000000  0  5 02 06 15 13 09
  21182063.609     2372844.739 7   1853765.359 3
  20570565.391    -7988523.218 7  -6179538.158 3
  23538672.195    -5439736.222 6     25777.015 1
  21504367.023   -16146143.512 7 -12166776.137 1
  22666016.195    -9587084.044 6  -6410083.884 1
 90 10 22 12  6 15.0000000  0  5 02 06 15 13 09
  21184850.320     2387493.322 7   1865179.837 3
  20567970.500    -8002165.616 7  -6190168.598 3
  23539264.391    -5436623.855 6     28202.237 1
  21496762.195   -16186107.543 7 -12197916.938 1
  22657827.273    -9630117.559 6  -6443616.484 1
 90 10 22 12  6 30.0000000  0  5 02 06 15 13 09
  21187651.047     2402207.824 7   1876645.672 3
  20565396.039    -8015690.597 7  -6200707.545 3
  23539886.406    -5433350.019 6     30753.274 1
  21489183.125   -16225932.692 7 -12228949.515 1
  22649647.102    -9673099.538 6  -6477108.938 1
 90 10 22 12  6 45.0000000  0  5 02 06 15 13 09
  21190466.031     2417001.593 7   1888173.280 3
  20562847.344    -8029084.583 7  -6211144.410 2
  23540543.547    -5429901.235 6     33440.627 1
  21481634.656   -16265605.145 7 -12259863.105 1
  22641480.734    -9716016.317 6  -6510550.580 1
 90 10 22 12  7  0.0000000  0  5 02 06 15 13 09
  21193297.781     2431881.896 7   1899768.324 3
  20560324.367    -8042339.756 7  -6221473.116 3
  23541231.938    -5426270.490 6     36269.788 1
  21474116.133   -16305117.425 7 -12290651.882 1
  22633330.938    -9758860.209 6  -6543935.428 1
 90 10 22 12  7 15.0000000  0  5 02 06 15 13 09
  21196123.055     2446724.981 7   1911334.366 3
  20557805.500    -8055579.840 7  -6231790.067 3
  23541936.180    -5422581.319 6     39144.464 1
  21466602.734   -16344593.139 7 -12321412.170 1
  22625168.539    -9801754.870 6  -6577359.839 1
 90 10 22 12  7 30.0000000  0  5 02 06 15 13 09
  21198976.305     2461718.508 7   1923017.635 3
  20555324.422    -8068616.677 7  -6241948.641 3
  23542684.430    -5418645.550 6     42211.303 1
  21459133.492   -16383844.311 7 -12351997.491 1
  22617031.727    -9844512.193 6  -6610677.220 1
 90 10 22 12  7 45.0000000  0  5 02 06 15 13 09
  21201843.000     2476792.571 7   1934763.655 3
  20552869.258    -8081520.094 7  -6252003.252 3
  23543469.047    -5414533.392 6     45415.586 1
  21451694.867   -16422940.699 7 -12382462.203 1
  22608906.375    -9887201.854 6  -6643941.897 1
 90 10 22 12  8  0.0000000  0  5 02 06 15 13 09
  21204728.352     2491952.237 7   1946576.379 3
  20550441.484    -8094284.620 7  -6261949.634 3
  23544283.516    -5410239.396 6     48761.548 1
  21444284.547   -16461876.728 7 -12412801.954 1
  22600795.906    -9929818.351 6  -6677149.554 1
 90 10 22 12  8 15.0000000  0  5 02 06 15 13 09
  21207621.289     2507154.596 7   1958422.369 3
  20548030.180    -8106952.654 7  -6271820.829 3
  23545128.469    -5405806.764 6     52215.564 1
  21436897.680   -16500695.188 7 -12443050.095 1
  22592693.484    -9972404.210 6  -6710333.340 1
 90 10 22 12  8 30.0000000  0  5 02 06 15 13 09
  21210536.891     2522478.510 7   1970363.078 3
  20545652.930    -8119445.276 7  -6281555.338 3
  23546013.734    -5401156.428 6     55839.207 1
  21429549.086   -16539316.868 7 -12473144.906 1
  22584611.438   -10014880.499 6  -6743431.746 1
 90 10 22 12  8 45.0000000  0  5 02 06 15 13 09
  21213457.477     2537822.838 7   1982319.691 3
  20543288.844    -8131863.171 7  -6291231.617 3
  23546918.359    -5396389.570 6     59553.638 1
  21422218.414   -16577842.539 7 -12503164.897 1
  22576529.281   -10057347.896 6  -6776523.219 1
 90 10 22 12  9  0.0000000  0  5 02 06 15 13 09
  21216373.008     2553143.751 7   1994258.065 3
  20540931.547    -8144250.145 7  -6300883.804 3
  23547841.305    -5391550.055 6     63324.676 1
  21414896.148   -16616316.249 7 -12533144.404 1
  22568443.844   -10099850.230 6  -6809641.910 1
 90 10 22 12  9 15.0000000  0  5 02 06 15 13 09
  21219264.164     2568337.589 7   2006097.416 3
  20538560.859    -8156709.597 7  -6310592.469 3
  23548754.008    -5386741.557 6     67071.556 1
  21407565.867   -16654841.202 7 -12563163.840 1
  22560327.148   -10142490.810 6  -6842868.339 1
 90 10 22 12  9 30.0000000  0  5 02 06 15 13 09
  21222166.508     2583591.665 7   2017983.704 3
  20536212.492    -8169054.030 7  -6320211.509 3
  23549701.484    -5381776.837 6     70940.170 1
  21400260.172   -16693229.939 7 -12593077.129 1
  22552219.883   -10185081.997 6  -6876056.273 1
 90 10 22 12  9 45.0000000  0  5 02 06 15 13 09
  21225081.297     2598900.452 7   2029912.630 3
  20533884.367    -8181288.332 7  -6329744.728 3
  23550672.016    -5376660.986 6     74926.533 1
  21392979.367   -16731487.680 7 -12622888.345 1
  22544124.180   -10227629.171 6  -6909209.908 1
 90 10 22 12 10  0.0000000  0  5 02 06 15 13 09
  21228004.102     2614265.832 7   2041885.649 3
  20531576.922    -8193410.734 7  -6339190.759 3
  23551677.805    -5371392.133 6     79032.139 1
  21385724.641   -16769612.308 7 -12652595.835 1
  22536041.141   -10270129.930 6  -6942327.382 1
 90 10 22 12 10 15.0000000  0  5 02 06 15 13 09
  21230936.430     2629671.734 7   2053890.243 3
  20529288.633    -8205436.707 7  -6348561.645 3
  23552704.555    -5365986.324 6     83244.451 1
  21378491.875   -16807619.534 7 -12682211.851 1
  22527957.547   -10312599.959 6  -6975420.909 1
 90 10 22 12 10 30.0000000  0  5 02 06 15 13 09
  21233874.672     2645114.007 7   2065923.180 3
  20527018.063    -8217370.076 7  -6357860.374 3
  23553757.219    -5360447.399 6     87560.502 1
  21371282.094   -16845512.976 7 -12711739.197 1
  22519882.578   -10355043.257 6  -7008493.600 1
 90 10 22 12 10 45.0000000  0  5 02 06 15 13 09
  21236817.680     2660581.753 7   2077975.968 3
  20524762.844    -8229221.560 7  -6367095.296 2
  23554837.086    -5354786.290 6     91971.739 1
  21364090.953   -16883303.680 7 -12741186.492 1
  22511806.555   -10397470.194 6  -7041553.547 1
 90 10 22 12 11  0.0000000  0  5 02 06 15 13 09
  21239762.617     2676054.115 7   2090032.355 3
  20522519.469    -8241011.707 7  -6376282.420 3
  23555931.328    -5349024.232 6     96461.666 1
  21356913.906   -16921012.406 7 -12770569.913 1
  22503731.313   -10439901.757 6  -7074617.098 1
 90 10 22 12 11 15.0000000  0  5 02 06 15 13 09
  21242712.695     2691561.501 7   2102116.026 3
  20520292.742    -8252709.891 7  -6385397.887 3
  23557055.969    -5343130.655 6    101054.053 1
  21349760.430   -16958608.084 7 -12799865.240 1
  22495663.148   -10482306.767 6  -7107659.962 1
 90 10 22 12 11 30.0000000  0  5 02 06 15 13 09
  21245677.844     2707143.967 7   2114258.207 3
  20518092.500    -8264275.943 7  -6394410.394 3
  23558207.336    -5337065.218 6    105780.361 1
  21342634.875   -16996050.886 7 -12829041.439 1
  22487604.477   -10524645.512 6  -7140651.188 1
 90 10 22 12 11 45.0000000  0  5 02 06 15 13 09
  21248656.789     2722794.081 7   2126453.097 3
  20515915.102    -8275716.783 7  -6403325.334 3
  23559393.578    -5330835.282 6    110634.858 1
  21335538.266   -17033347.745 7 -12858103.925 1
  22479558.422   -10566924.754 6  -7173596.039 1
 90 10 22 12 12  0.0000000  0  5 02 06 15 13 09
  21251643.969     2738489.426 7   2138683.234 3
  20513757.102    -8287054.568 7  -6412159.970 3
  23560607.039    -5324463.432 6    115599.927 1
  21328464.977   -17070520.703 7 -12887069.854 1
  22471522.156   -10609166.488 6  -7206511.661 1
 90 10 22 12 12 15.0000000  0  5 02 06 15 13 09
  21254640.805     2754239.391 7   2150955.931 3
  20511620.922    -8298279.791 7  -6420906.897 3
  23561846.781    -5317940.202 6    120682.968 1
  21321415.563   -17107560.217 7 -12915931.806 1
  22463492.930   -10651361.257 6  -7239390.698 1
 90 10 22 12 12 30.0000000  0  5 02 06 15 13 09
  21257645.938     2770032.946 7   2163262.595 3
  20509504.242    -8309403.119 7  -6429574.425 2
  23563116.578    -5311276.768 6    125875.237 1
  21314390.320   -17144477.365 7 -12944698.408 1
  22455469.250   -10693519.786 6  -7272241.492 1
 90 10 22 12 12 45.0000000  0  5 02 06 15 13 09
  21260658.875     2785867.410 7   2175601.135 3
  20507406.227    -8320426.918 7  -6438164.398 2
  23564410.289    -5304475.597 6    131174.843 1
  21307388.430   -17181274.330 7 -12973371.363 1
  22447456.438   -10735644.333 6  -7305065.813 1
 90 10 22 12 13  0.0000000  0  5 02 06 15 13 09
  21263679.625     2801737.149 7   2187967.159 3
  20505326.789    -8331356.630 7  -6446681.058 2
  23565731.672    -5297542.141 6    136577.533 1
  21300407.898   -17217956.491 7 -13001954.854 1
  22439441.906   -10777740.230 6  -7337867.802 1
 90 10 22 12 13 15.0000000  0  5 02 06 15 13 09
  21266707.680     2817650.715 7   2200367.336 3
  20503267.172    -8342183.447 7  -6455117.543 3
  23567074.609    -5290468.235 6    142089.661 1
  21293450.398   -17254515.320 7 -13030442.253 1
  22431440.898   -10819798.706 6  -7370640.631 1
 90 10 22 12 13 30.0000000  0  5 02 06 15 13 09
  21269742.047     2833598.651 7   2212794.297 3
  20501224.188    -8352916.516 7  -6463480.975 2
  23568449.109    -5283263.217 6    147703.950 1
  21286515.859   -17290960.123 7 -13058840.797 1
  22423441.258   -10861829.050 6  -7403391.548 1
 90 10 22 12 13 45.0000000  0  5 02 06 15 13 09
  21272784.258     2849587.728 7   2225253.316 3
  20499201.656    -8363548.895 7  -6471765.948 2
  23569841.930    -5275920.264 6    153425.734 1
  21279604.531   -17327283.811 7 -13087144.959 1
  22415451.828   -10903824.028 6  -7436114.885 1
 90 10 22 12 14  0.0000000  0  5 02 06 15 13 09
  21275837.898     2865630.363 7   2237754.067 3
  20497198.539    -8374067.982 7  -6479962.639 2
  23571271.711    -5268426.835 6    159264.766 1
  21272716.602   -17363473.767 7 -13115344.919 1
  22407468.508   -10945771.111 6  -7468800.921 1
 90 10 22 12 14 15.0000000  0  5 02 06 15 13 09
  21278898.477     2881719.170 7   2250290.798 3
  20495217.008    -8384480.490 7  -6488076.280 2
  23572725.508    -5260789.976 6    165215.558 1
  21265853.836   -17399536.944 7 -13143446.100 1
  22399495.227   -10987677.254 6  -7501455.054 1
 90 10 22 12 14 30.0000000  0  5 02 06 15 13 09
  21281966.922     2897843.662 7   2262855.333 3
  20493255.109    -8394796.680 7  -6496114.868 2
  23574201.586    -5253020.239 6    171269.896 1
  21259014.539   -17435483.483 7 -13171456.376 1
  22391525.719   -11029552.329 6  -7534084.982 1
 90 10 22 12 14 45.0000000  0  5 02 06 15 13 09
  21285040.516     2913996.489 7   2275441.947 3
  20491308.227    -8405023.763 7  -6504084.025 2
  23575703.359    -5245124.958 6    177422.049 1
  21252195.133   -17471320.547 7 -13199381.355 1
  22383560.578   -11071403.557 6  -7566696.319 1
 90 10 22 12 15  0.0000000  0  5 02 06 15 13 09
  21288120.047     2930183.323 7   2288055.061 3
  20489380.406    -8415155.809 7  -6511979.127 2
  23577232.188    -5237098.909 6    183676.121 1
  21245396.844   -17507042.450 7 -13227216.599 2
  22375600.461   -11113225.089 6  -7599284.519 1
 90 10 22 12 15 15.0000000  0  5 02 06 15 13 09
  21291207.297     2946400.091 7   2300691.502 3
  20487469.336    -8425196.794 7  -6519803.275 2
  23578784.328    -5228946.034 6    190028.994 1
  21238620.906   -17542653.177 7 -13254965.214 1
  22367650.438   -11155020.763 6  -7631852.577 1
 90 10 22 12 15 30.0000000  0  5 02 06 15 13 09
  21294303.273     2962667.280 7   2313367.232 3
  20485580.188    -8435125.755 7  -6527540.130 3
  23580361.320    -5220645.406 6    196497.021 1
  21231869.469   -17578131.942 7 -13282610.998 2
  22359704.367   -11196769.717 6  -7664384.213 1
 90 10 22 12 15 45.0000000  0  5 02 06 15 13 09
  21297401.438     2978947.908 7   2326053.429 3
  20483704.992    -8444979.376 7  -6535218.279 2
  23581962.266    -5212234.293 6    203051.126 1
  21225135.297   -17613515.428 7 -13310182.545 2
  22351761.469   -11238508.463 6  -7696907.918 1
 90 10 22 12 16  0.0000000  0  5 02 06 15 13 09
  21300505.547     2995257.092 7   2338761.882 3
  20481847.305    -8454742.418 7  -6542825.846 2
  23583587.297    -5203697.659 6    209703.039 1
  21218423.203   -17648788.263 7 -13337667.861 2
  22343825.672   -11280221.718 6  -7729411.743 1
 90 10 22 12 16 15.0000000  0  5 02 06 15 13 09
  21303616.703     3011611.307 7   2351505.424 3
  20480010.188    -8464398.031 7  -6550349.700 2
  23585238.641    -5195019.218 6    216465.456 1
  21211734.977   -17683933.836 7 -13365054.014 2
  22335895.625   -11321892.660 6  -7761882.588 1
 90 10 22 12 16 30.0000000  0  5 02 06 15 13 09
  21306726.453     3027950.361 7   2364237.154 3
  20478181.703    -8474006.304 7  -6557836.661 2
  23586906.820    -5186258.707 6    223291.824 1
  21205061.617   -17719012.556 7 -13392388.077 1
  22327960.727   -11363581.532 6  -7794367.425 1
 90 10 22 12 16 45.0000000  0  5 02 06 15 13 09
  21309837.188     3044302.467 7   2376979.054 3
  20476367.148    -8483538.852 7  -6565264.621 2
  23588591.891    -5177388.264 6    230203.851 1
  21198402.758   -17753995.561 7 -13419647.555 2
  22320030.180   -11405259.619 6  -7826843.851 1
 90 10 22 12 17  0.0000000  0  5 02 06 15 13 09
  21312955.641     3060693.223 7   2389751.066 3
  20474572.930    -8492969.848 7  -6572613.453 2
  23590308.352    -5168382.271 6    237221.500 1
  21191768.695   -17788857.090 7 -13446812.375 2
  22312107.422   -11446901.084 6  -7859291.742 1
 90 10 22 12 17 15.0000000  0  5 02 06 15 13 09
  21316093.477     3077177.470 7   2402595.933 3
  20472807.984    -8502243.970 7  -6579840.043 2
  23592057.820    -5159185.825 6    244387.556 1
  21185169.320   -17823542.115 7 -13473839.666 2
  22304199.164   -11488450.586 6  -7891667.975 1
 90 10 22 12 17 30.0000000  0  5 02 06 15 13 09
  21319227.023     3093643.805 7   2415426.833 3
  20471051.992    -8511472.435 7  -6587031.058 2
  23593823.492    -5149910.482 6    251615.084 1
  21178581.406   -17858161.968 7 -13500816.173 2
  22296289.203   -11530019.487 6  -7924059.318 1
 90 10 22 12 17 45.0000000  0  5 02 06 15 13 09
  21322364.898     3110134.160 7   2428276.448 3
  20469312.555    -8520612.970 7  -6594153.553 2
  23595611.625    -5140513.901 6    258937.089 1
  21172013.617   -17892674.339 7 -13527708.923 2
  22288383.969   -11571565.181 6  -7956432.575 1
 90 10 22 12 18  0.0000000  0  5 02 06 15 13 09
  21325508.727     3126653.014 7   2441148.290 3
  20467590.672    -8529660.849 7  -6601203.847 2
  23597423.547    -5130991.748 6    266356.947 1
  21165467.180   -17927074.546 7 -13554514.277 2
  22280479.945   -11613083.072 6  -7988784.179 1
 90 10 22 12 18 15.0000000  0  5 02 06 15 13 09
  21328655.828     3143195.255 7   2454038.339 3
  20465886.047    -8538620.813 7  -6608185.637 2
  23599257.805    -5121349.509 6    273870.377 1
  21158941.172   -17961367.353 7 -13581235.941 2
  22272589.023   -11654577.844 6  -8021117.752 1
 90 10 22 12 18 30.0000000  0  5 02 06 15 13 09
  21331810.688     3159774.193 7   2466956.987 3
  20464199.898    -8547479.605 7  -6615088.593 2
  23601117.094    -5111573.751 6    281487.844 1
  21152438.336   -17995539.558 7 -13607863.627 2
  22264698.828   -11696036.118 6  -8053422.891 1
 90 10 22 12 18 45.0000000  0  5 02 06 15 13 09
  21334973.336     3176392.547 7   2479906.353 3
  20462534.125    -8556234.189 7  -6621910.348 2
  23603005.977    -5101661.620 6    289211.579 1
  21145959.633   -18029588.440 7 -13634395.217 2
  22256813.883   -11737454.938 6  -8085697.297 1
 90 10 22 12 19  0.0000000  0  5 02 06 15 13 09
  21338142.758     3193047.181 7   2492883.984 3
  20460887.273    -8564887.517 7  -6628653.202 2
  23604916.117    -5091616.154 6    297039.212 1
  21139503.898   -18063516.785 7 -13660832.883 2
  22248938.813   -11778837.015 6  -8117943.063 1
 90 10 22 12 19 15.0000000  0  5 02 06 15 13 09
  21341320.172     3209740.489 7   2505891.756 3
  20459260.391    -8573436.723 7  -6635314.919 2
  23606851.773    -5081435.237 6    304972.389 1
  21133070.320   -18097321.921 7 -13687174.531 2
  22241073.375   -11820179.489 6  -8150157.980 1
 90 10 22 12 19 30.0000000  0  5 02 06 15 13 09
  21344503.930     3226471.985 7   2518929.280 3
  20457653.078    -8581881.985 7  -6641895.639 2
  23608816.750    -5071119.140 6    313010.898 1
  21126661.836   -18131004.196 7 -13713420.452 2
  22233213.844   -11861482.595 6  -8182342.212 1
 90 10 22 12 19 45.0000000  0  5 02 06 15 13 09
  21347695.188     3243242.004 7   2531996.825 3
  20456065.719    -8590222.986 7  -6648395.123 2
  23610806.133    -5060667.785 6    321154.809 1
  21120274.969   -18164563.241 7 -13739570.342 2
  22225360.648   -11902745.900 6  -8214495.430 1
 90 10 22 12 20  0.0000000  0  5 02 06 15 13 09
  21350894.258     3260053.481 7   2545096.675 3
  20454498.813    -8598456.541 7  -6654810.885 2
  23612820.805    -5050077.695 6    329406.822 1
  21113912.828   -18197995.728 7 -13765621.632 2
  22217516.422   -11943965.779 6  -8246614.816 1
 90 10 22 12 20 15.0000000  0  5 02 06 15 13 09
  21354102.766     3276913.722 7   2558234.520 3
  20452954.672    -8606574.822 7  -6661136.820 2
  23614863.492    -5039342.111 6    337772.201 1
  21107576.914   -18231294.143 7 -13791568.444 2
  22209683.063   -11985135.023 6  -8278694.742 1
 90 10 22 12 20 30.0000000  0  5 02 06 15 13 09
  21357318.172     3293811.732 7   2571401.797 3
  20451429.156    -8614588.752 7  -6667381.447 2
  23616933.773    -5028472.030 6    346242.395 1
  21101262.766   -18264469.548 7 -13817419.406 2
  22201856.711   -12026264.325 6  -8310743.542 1
 90 10 22 12 20 45.0000000  0  5 02 06 15 13 09
  21360539.484     3310740.511 7   2584593.052 3
  20449923.813    -8622505.069 7  -6673550.005 2
  23619022.484    -5017474.178 6    354812.148 1
  21094972.641   -18297528.459 7 -13843179.594 2
  22194036.734   -12067360.082 6  -8342766.207 1
 90 10 22 12 21  0.0000000  0  5 02 06 15 13 09
  21363767.547     3327707.885 7   2597814.374 3
  20448436.289    -8630315.563 7  -6679636.107 2
  23621142.320    -5006341.244 6    363487.167 1
  21088704.125   -18330463.004 7 -13868842.869 2
  22186225.336   -12108414.258 6  -8374756.466 1
 90 10 22 12 21 15.0000000  0  5 02 06 15 13 09
  21367004.836     3344719.217 7   2611069.957 3
  20446971.914    -8638014.815 7  -6685635.526 2
  23623291.320    -4995067.791 6    372271.667 1
  21082463.016   -18363267.615 7 -13894404.896 2
  22178419.586   -12149421.236 6  -8406709.954 1
 90 10 22 12 21 30.0000000  0  5 02 06 15 13 09
  21370250.609     3361775.091 7   2624360.242 3
  20445528.328    -8645602.072 7  -6691547.673 2
  23625458.758    -4983653.372 6    381166.021 1
  21076244.859   -18395941.461 7 -13919865.026 2
  22170628.297   -12190380.089 6  -8438625.933 1
 90 10 22 12 21 45.0000000  0  5 02 06 15 13 09
  21373503.094     3378868.132 7   2637679.490 3
  20444104.258    -8653084.308 7  -6697377.990 2
  23627659.391    -4972105.089 6    390164.679 1
  21070050.406   -18428492.056 7 -13945229.119 2
  22162839.852   -12231298.140 6  -8470510.127 1
 90 10 22 12 22  0.0000000  0  5 02 06 15 13 09
  21376762.867     3395997.893 7   2651027.354 3
  20442699.758    -8660461.677 7  -6703126.589 2
  23629879.648    -4960423.514 6    399267.204 1
  21063879.945   -18460919.508 7 -13970497.252 2
  22155062.234   -12272175.091 6  -8502362.300 1
 90 10 22 12 22 15.0000000  0  5 02 06 15 13 09
  21380030.070     3413167.338 7   2664406.138 3
  20441317.367    -8667731.091 7  -6708791.071 2
  23632129.313    -4948605.861 6    408475.755 1
  21057732.766   -18493220.426 7 -13995666.794 2
  22147292.391   -12313007.958 6  -8534180.110 1
 90 10 22 12 22 30.0000000  0  5 02 06 15 13 09
  21383304.891     3430372.994 7   2677813.134 3
  20439953.492    -8674895.585 7  -6714373.795 2
  23634405.516    -4936655.436 6    417787.768 1
  21051609.883   -18525398.130 7 -14020740.318 2
  22139529.031   -12353799.749 6  -8565965.919 1
 90 10 22 12 22 45.0000000  0  5 02 06 15 13 09
  21386586.438     3447619.962 7   2691252.329 3
  20438611.992    -8681949.923 7  -6719870.686 2
  23636703.984    -4924567.040 6    427207.291 1
  21045511.250   -18557447.719 7 -14045714.018 2
  22131774.320   -12394544.822 6  -8597715.329 1
 90 10 22 12 23  0.0000000  0  5 02 06 15 13 09
  21389877.539     3464911.908 7   2704726.569 3
  20437290.242    -8688890.387 7  -6725278.842 2
  23639030.805    -4912337.373 6    436736.894 1
  21039436.617   -18589365.360 7 -14070584.899 2
  22124031.977   -12435239.785 6  -8629425.683 1
 90 10 22 12 23 15.0000000  0  5 02 06 15 13 09
  21393176.680     3482251.081 7   2718237.612 3
  20435991.766    -8695714.502 7  -6730596.335 2
  23641384.992    -4899964.468 6    446378.117 1
  21033388.539   -18621148.460 7 -14095350.948 2
  22116297.523   -12475881.906 6  -8661094.859 1
 90 10 22 12 23 30.0000000  0  5 02 06 15 13 09
  21396484.164     3499628.735 7   2731778.638 3
  20434713.922    -8702430.489 7  -6735829.574 2
  23643767.789    -4887456.833 6    456124.312 1
  21027365.266   -18652805.650 7 -14120018.883 2
  22108571.594   -12516479.500 6  -8692729.349 1
 90 10 22 12 23 45.0000000  0  5 02 06 15 13 09
  21399797.117     3517038.526 7   2745344.707 3
  20433454.680    -8709044.667 7  -6740983.483 2
  23646170.781    -4874820.881 6    465970.508 1
  21021363.625   -18684343.269 7 -14144593.642 2
  22100853.188   -12557038.589 6  -8724333.842 1
 90 10 22 12 24  0.0000000  0  5 02 06 15 13 09
  21403116.672     3534488.252 7   2758941.890 3
  20432217.367    -8715549.190 7  -6746051.941 2
  23648603.992    -4862048.708 6    475922.828 1
  21015386.977   -18715753.216 7 -14169068.918 2
  22093144.164   -12597551.374 6  -8755902.238 1
 90 10 22 12 24 15.0000000  0  5 02 06 15 13 09
  21406446.633     3551984.336 7   2772575.205 3
  20431002.094    -8721936.949 7  -6751029.416 2
  23651057.508    -4849133.890 5    485986.315 1
  21009434.695   -18747028.781 7 -14193439.479 2
  22085444.531   -12638010.613 6  -8787428.914 1
 90 10 22 12 24 30.0000000  0  5 02 06 15 13 09
  21409782.766     3569518.550 7   2786238.228 3
  20429806.594    -8728216.183 7  -6755922.328 2
  23653544.172    -4836085.009 5    496154.268 1
  21003507.500   -18778178.245 7 -14217711.781 2
  22077755.203   -12678424.458 6  -8818920.224 1
 90 10 22 12 24 45.0000000  0  5 02 06 15 13 09
  21413128.586     3587094.057 7   2799933.428 3
  20428633.203    -8734383.383 7  -6760727.943 2
  23656050.219    -4822898.791 5    506429.231 1
  20997605.023   -18809198.207 7 -14241883.173 2
  22070072.438   -12718789.497 6  -8850373.499 1
 90 10 22 12 25  0.0000000  0  5 02 06 15 13 09
  21416481.422     3604711.798 7   2813661.532 2
  20427481.555    -8740437.406 7  -6765445.372 2
  23658583.797    -4809574.430 5    516811.850 1
  20991726.609   -18840087.610 7 -14265952.832 2
  22062402.570   -12759104.211 6  -8881787.560 1
 90 10 22 12 25 15.0000000  0  5 02 06 15 13 09
  21419839.430     3622367.356 7   2827419.105 3
  20426350.484    -8746382.692 7  -6770078.058 2
  23661150.250    -4796116.447 5    527298.572 1
  20985872.609   -18870850.699 7 -14289924.056 2
  22054739.500   -12799373.192 6  -8913165.987 1
 90 10 22 12 25 30.0000000  0  5 02 06 15 13 09
  21423206.914     3640066.462 7   2841210.611 3
  20425240.273    -8752213.050 7  -6774621.191 2
  23663734.320    -4782519.250 5    537893.801 1
  20980043.141   -18901481.695 7 -14313792.355 2
  22047085.570   -12839590.098 6  -8944503.834 1
 90 10 22 12 25 45.0000000  0  5 02 06 15 13 09
  21426584.914     3657809.665 7   2855036.487 2
  20424152.359    -8757927.751 7  -6779074.209 2
  23666349.773    -4768782.074 5    548598.071 1
  20974239.539   -18931979.791 7 -14337557.101 2
  22039443.203   -12879754.007 6  -8975800.384 1
 90 10 22 12 26  0.0000000  0  5 02 06 15 13 09
  21429967.453     3675591.449 7   2868892.422 3
  20423086.508    -8763532.096 7  -6783441.234 2
  23668991.992    -4754910.727 5    559406.913 1
  20968459.828   -18962350.285 7 -14361222.412 2
  22031808.930   -12919870.364 6  -9007059.887 1
 90 10 22 12 26 15.0000000  0  5 02 06 15 13 09
  21433360.953     3693418.840 7   2882783.893 2
  20422041.375    -8769018.770 7  -6787716.571 2
  23671655.086    -4740898.091 5    570325.837 1
  20962706.820   -18992586.076 7 -14384782.758 2
  22024185.570   -12959931.608 6  -9038276.429 1
 90 10 22 12 26 30.0000000  0  5 02 06 15 13 09
  21436760.766     3711286.986 7   2896707.126 3
  20421020.531    -8774392.542 7  -6791903.929 2
  23674343.664    -4726749.120 5    581350.997 1
  20956977.602   -19022692.203 7 -14408242.073 2
  22016571.773   -12999942.408 6  -9069453.675 1
 90 10 22 12 26 45.0000000  0  5 02 06 15 13 09
  21440168.289     3729192.020 7   2910659.099 3
  20420017.742    -8779657.004 7  -6796006.110 2
  23677062.039    -4712468.047 5    592479.088 1
  20951272.664   -19052672.209 7 -14431603.113 2
  22008967.305   -13039906.432 6  -9100594.472 1
 90 10 22 12 27  0.0000000  0  5 02 06 15 13 09
  21443584.711     3747141.661 7   2924645.828 2
  20419038.086    -8784804.317 7  -6800017.004 2
  23679809.617    -4698046.943 5    603716.307 1
  20945593.734   -19082517.867 7 -14454859.465 2
  22001373.320   -13079815.499 6  -9131692.445 1
 90 10 22 12 27 15.0000000  0  5 02 06 15 13 09
  21447006.633     3765129.837 7   2938662.584 3
  20418080.820    -8789840.025 7  -6803940.935 2
  23682581.633    -4683491.966 5    615057.843 1
  20939938.102   -19112235.175 7 -14478015.799 2
  21993788.867   -13119675.337 6  -9162752.054 1
 90 10 22 12 27 30.0000000  0  5 02 06 15 13 09
  21450438.898     3783170.347 7   2952720.116 3
  20417145.789    -8794749.993 7  -6807766.887 2
  23685380.055    -4668789.413 5    626514.363 1
  20934310.734   -19141810.278 7 -14501061.326 2
  21986215.992   -13159471.552 6  -9193762.085 1
 90 10 22 12 27 45.0000000  0  5 02 06 15 13 09
  21453877.016     3801231.653 7   2966793.858 2
  20416229.133    -8799565.863 7  -6811519.513 2
  23688197.398    -4653971.155 5    638061.056 1
  20928703.578   -19171274.715 7 -14524020.622 2
  21978648.125   -13199235.789 6  -9224747.205 1
 90 10 22 12 28  0.0000000  0  5 02 06 15 13 09
  21457321.586     3819337.342 7   2980902.184 2
  20415334.984    -8804263.998 7  -6815180.403 2
  23691045.711    -4639013.418 5    649716.424 1
  20923122.578   -19200604.795 7 -14546875.225 2
  21971091.813   -13238944.056 6  -9255688.703 1
 90 10 22 12 28 15.0000000  0  5 02 06 15 13 09
  21460775.031     3837485.460 7   2995043.568 2
  20414463.500    -8808845.864 7  -6818750.689 2
  23693916.977    -4623918.288 5    661478.857 1
  20917565.883   -19229802.334 7 -14569626.545 2
  21963547.461   -13278597.884 6  -9286587.796 1
 90 10 22 12 28 30.0000000  0  5 02 06 15 13 09
  21464235.461     3855670.707 7   3009213.882 2
  20413612.070    -8813316.565 7  -6822234.363 2
  23696818.305    -4608690.961 5    673344.286 1
  20912034.000   -19258872.351 7 -14592278.500 2
  21956009.273   -13318202.516 6  -9317448.539 1
 90 10 22 12 28 45.0000000  0  5 02 06 15 13 09
  21467705.484     3873901.412 7   3023419.622 2
  20412784.953    -8817667.521 7  -6825624.719 2
  23699734.242    -4593323.224 5    685319.134 1
  20906527.617   -19287806.546 7 -14614824.623 2
  21948483.766   -13357748.887 6  -9348263.888 1
 90 10 22 12 29  0.0000000  0  5 02 06 15 13 09
  21471183.508     3892174.127 7   3037658.088 2
  20411979.102    -8821902.036 7  -6828924.345 2
  23702685.859    -4577818.545 5    697400.703 1
  20901047.586   -19316608.165 7 -14637267.433 2
  21940969.672   -13397240.310 6  -9379036.425 1
 90 10 22 12 29 15.0000000  0  5 02 06 15 13 09
  21474668.039     3910491.077 7   3051931.035 2
  20411195.508    -8826017.701 7  -6832131.358 2
  23705659.750    -4562175.104 5    709590.395 1
  20895592.367   -19345274.957 7 -14659605.189 2
  21933464.133   -13436674.487 6  -9409764.350 1
 90 10 22 12 29 30.0000000  0  5 02 06 15 13 09
  21478161.016     3928844.929 7   3066232.733 3
  20410433.898    -8830021.565 7  -6835251.259 2
  23708671.062    -4546400.485 5    721882.294 1
  20890161.766   -19373814.125 7 -14681843.496 2
  21925970.461   -13476058.164 6  -9440452.931 1
 90 10 22 12 29 45.0000000  0  5 02 06 15 13 09
  21481663.273     3947244.733 7   3080570.238 2
  20409694.016    -8833904.579 7  -6838276.987 2
  23711695.109    -4530485.618 5    734283.475 1
  20884756.039   -19402216.581 7 -14703975.274 2
  21918488.758   -13515382.183 6  -9471095.014 1
 90 10 22 12 30  0.0000000  0  5 02 06 15 13 09
  21485170.141     3965683.344 7   3094937.980 2
  20408978.313    -8837673.486 7  -6841213.799 2
  23714749.883    -4514437.474 5    746788.520 1
  20879377.063   -19430489.293 7 -14726005.955 2
  21911015.602   -13554653.361 6  -9501695.933 1
 90 10 22 12 30 15.0000000  0  5 02 06 15 13 09
  21488688.305     3984165.066 7   3109339.323 2
  20408282.906    -8841323.889 7  -6844058.277 2
  23717830.445    -4498252.133 5    759400.462 1
  20874022.203   -19458627.886 7 -14747932.125 2
  21903551.945   -13593867.099 6  -9532252.091 1
 90 10 22 12 30 30.0000000  0  5 02 06 15 13 09
  21492213.664     4002693.641 7   3123777.172 3
  20407612.039    -8844851.728 7  -6846807.246 2
  23720939.469    -4481925.839 5    772122.236 1
  20868693.609   -19486628.587 7 -14769750.845 2
  21896101.016   -13633019.205 6  -9562760.221 1
 90 10 22 12 30 45.0000000  0  5 02 06 15 13 09
  21495748.680     4021268.217 7   3138250.866 3
  20406963.500    -8848257.783 7  -6849461.319 2
  23724068.070    -4465459.486 5    784953.146 1
  20863391.273   -19514491.912 7 -14791462.520 2
  21888663.063   -13672110.193 6  -9593220.728 1
 90 10 22 12 31  0.0000000  0  5 02 06 15 13 09
  21499291.445     4039888.401 7   3152760.096 2
  20406338.828    -8851542.233 7  -6852020.636 2
  23727229.063    -4448853.749 5    797892.674 1
  20858115.117   -19542218.040 7 -14813067.288 2
  21881236.328   -13711140.238 6  -9623633.746 1
 90 10 22 12 31 15.0000000  0  5 02 06 15 13 09
  21502842.617     4058549.542 7   3167301.242 3
  20405735.805    -8854709.350 7  -6854488.518 2
  23730418.281    -4432113.506 5    810937.005 1
  20852864.180   -19569811.756 7 -14834568.875 2
  21873818.508   -13750113.535 6  -9654002.547 1
 90 10 22 12 31 30.0000000  0  5 02 06 15 13 09
  21506402.430     4077253.197 7   3181875.515 2
  20405156.203    -8857757.431 7  -6856863.649 2
  23733629.641    -4415237.034 5    824087.486 1
  20847639.750   -19597271.298 7 -14855965.916 2
  21866414.938   -13789028.448 6  -9684325.849 1
 90 10 22 12 31 45.0000000  0  5 02 06 15 13 09
  21509969.328     4095995.950 7   3196480.251 2
  20404597.570    -8860689.770 7  -6859148.590 2
  23736864.609    -4398227.471 5    837341.680 1
  20842438.352   -19624600.105 7 -14877261.080 2
  21859019.242   -13827887.903 6  -9714605.941 1
 90 10 22 12 32  0.0000000  0  5 02 06 15 13 09
  21513543.055     4114774.237 7   3211112.680 2
  20404061.328    -8863509.611 7  -6861345.876 2
  23740124.195    -4381088.965 5    850696.344 1
  20837261.648   -19651801.444 7 -14898456.924 2
  21851634.109   -13866695.166 6  -9744845.359 1
 90 10 22 12 32 15.0000000  0  5 02 06 15 13 09
  21517123.328     4133590.655 7   3225774.822 3
  20403546.586    -8866214.462 7  -6863453.560 2
  23743410.023    -4363819.142 5    864153.339 1
  20832111.086   -19678872.786 7 -14919551.469 2
  21844260.328   -13905447.514 6  -9775041.994 1
 90 10 22 12 32 30.0000000  0  5 02 06 15 13 09
  21520712.289     4152456.442 7   3240475.428 2
  20403055.852    -8868792.718 7  -6865462.597 2
  23746727.688    -4346406.811 5    877721.364 1
  20826986.000   -19705802.790 7 -14940535.885 2
  21836898.594   -13944133.247 6  -9805186.720 1
 90 10 22 12 32 45.0000000  0  5 02 06 15 13 09
  21524311.625     4171370.399 7   3255213.577 2
  20402588.227    -8871245.310 7  -6867373.706 2
  23750062.664    -4328853.075 5    891399.591 1
  20821887.688   -19732592.483 7 -14961410.965 2
  21829550.820   -13982753.231 6  -9835280.202 1
 90 10 22 12 33  0.0000000  0  5 02 06 15 13 09
  21527917.430     4190314.219 7   3269974.996 2
  20402142.922    -8873590.392 7  -6869201.040 2
  23753427.133    -4311176.386 5    905173.628 1
  20816813.336   -19759259.914 7 -14982190.779 2
  21822209.273   -14021325.500 6  -9865336.515 1
 90 10 22 12 33 15.0000000  0  5 02 06 15 13 09
  21531527.922     4209295.839 7   3284765.867 2
  20401718.773    -8875819.731 7  -6870938.185 2
  23756816.797    -4293369.145 5    919049.381 1
  20811763.188   -19785797.303 7 -15002869.260 2
  21814880.391   -14059841.731 6  -9895349.155 1
 90 10 22 12 33 30.0000000  0  5 02 06 15 13 09
  21535149.320     4228320.683 7   3299590.416 2
  20401318.852    -8877927.720 7  -6872580.776 2
  23760231.078    -4275425.666 5    933031.303 1
  20806739.141   -19812199.035 7 -15023442.033 2
  21807563.531   -14098295.877 6  -9925313.419 1
 90 10 22 12 33 45.0000000  0  5 02 06 15 13 09
  21538777.750     4247392.117 7   3314451.270 2
  20400940.297    -8879910.847 7  -6874126.073 2
  23763677.789    -4257342.929 5    947121.724 1
  20801742.477   -19838461.645 7 -15043906.398 2
  21800258.203   -14136684.833 6  -9955226.880 1
 90 10 22 12 34  0.0000000  0  5 02 06 15 13 09
  21542414.602     4266502.100 7   3329342.160 2
  20400585.352    -8881776.813 7  -6875580.085 2
  23767139.672    -4239128.997 5    961314.385 1
  20796769.250   -19864593.053 7 -15064268.526 2
  21792962.664   -14175015.899 6  -9985095.243 2
 90 10 22 12 34 15.0000000  0  5 02 06 15 13 09
  21546058.820     4285651.592 7   3344263.839 2
  20400252.656    -8883524.593 7  -6876941.988 2
  23770628.461    -4220783.080 5    975609.896 1
  20791821.766   -19890592.271 7 -15084527.649 2
  21785680.312   -14213287.912 6 -10014917.584 1
 90 10 22 12 34 30.0000000  0  5 02 06 15 13 09
  21549711.219     4304838.899 7   3359214.983 2
  20399942.516    -8885155.967 7  -6878213.194 2
  23774147.242    -4202307.347 5    990006.554 1
  20786898.547   -19916461.078 7 -15104685.153 2
  21778408.500   -14251502.510 6 -10044695.193 1
 90 10 22 12 34 45.0000000  0  5 02 06 15 13 09
  21553367.859     4324067.829 7   3374198.559 2
  20399654.375    -8886666.806 7  -6879390.476 2
  23777681.188    -4183697.674 5   1004507.584 1
  20782002.797   -19942195.451 7 -15124737.906 2
  21771149.031   -14289655.324 6 -10074424.646 1
 90 10 22 12 35  0.0000000  0  5 02 06 15 13 09
  21557037.016     4343341.409 7   3389216.926 2
  20399390.938    -8888053.615 7  -6880471.111 2
  23781250.320    -4164951.534 5   1019114.951 1
  20777131.680   -19967792.047 7 -15144683.298 2
  21763900.344   -14327742.883 6 -10104103.264 1
 90 10 22 12 35 15.0000000  0  5 02 06 15 13 09
  21560710.563     4362649.898 7   3404262.506 2
  20399148.438    -8889326.315 7  -6881462.836 2
  23784843.320    -4146078.686 5   1033821.053 1
  20772284.461   -19993260.688 7 -15164528.984 2
  21756662.594   -14365775.058 6 -10133738.719 2
 90 10 22 12 35 30.0000000  0  5 02 06 15 13 09
  21564391.609     4381996.177 7   3419337.521 2
  20398928.430    -8890481.589 7  -6882363.052 2
  23788460.336    -4127076.268 5   1048628.121 1
  20767463.039   -20018598.427 7 -15184272.673 2
  21749436.797   -14403748.400 6 -10163328.326 2
 90 10 22 12 35 45.0000000  0  5 02 06 15 13 09
  21568079.430     4401371.399 7   3434435.092 2
  20398729.508    -8891528.230 6  -6883178.619 2
  23792099.891    -4107953.336 5   1063529.100 1
  20762665.188   -20043814.216 7 -15203921.330 2
  21742220.859   -14441671.234 6 -10192878.585 2
 90 10 22 12 36  0.0000000  0  5 02 06 15 13 09
  21571771.813     4420779.610 7   3449558.366 2
  20398551.984    -8892462.125 6  -6883906.332 2
  23795766.313    -4088705.948 5   1078527.045 1
  20757890.555   -20068903.699 7 -15223471.574 2
  21735014.555   -14479539.598 6 -10222386.400 1
 90 10 22 12 36 15.0000000  0  5 02 06 15 13 09
  21575471.219     4440213.642 7
  20398393.883    -8893290.111 7  -6884551.523 2
  23799450.055    -4069341.616 5
  20753138.164   -20093874.185 7 -15242929.086 2
  21727817.047   -14517360.141 6 -10251856.942 2
 90 10 22 12 36 30.0000000  0  5 02 06 15 13 09
  21579177.648     4459687.738 7
  20398258.969    -8893997.796 7  -6885102.976 2
  23803157.742    -4049845.955 5
  20748412.242   -20118711.283 7 -15262282.666 2
  21720632.484   -14555118.251 6 -10281278.836 2
 90 10 22 12 36 45.0000000  0  5 02 06 15 13 09
  21582888.969     4479194.163 7   3495076.181 2
  20398146.281    -8894592.419 7  -6885566.324 2
  23806894.883    -4030226.619 5   1124095.306 1
  20743709.063   -20143422.529 7 -15281538.178 2
  21713456.586   -14592821.194 6 -10310657.753 2
 90 10 22 12 37  0.0000000  0  5 02 06 15 13 09
  21586608.078     4498738.277 7   3510305.352 2
  20398055.383    -8895068.620 6  -6885937.394 2
  23810653.672    -4010478.668 5   1139483.309 1
  20739031.602   -20168002.381 7 -15300691.307 2
  21706295.055   -14630463.421 6 -10339989.355 1
 90 10 22 12 37 15.0000000  0  5 02 06 15 13 09
  21590335.125     4518323.547 7   3525566.596 3
  20397988.211    -8895422.793 7  -6886213.376 2
  23814429.914    -3990598.552 5   1154974.302 1
  20734379.898   -20192447.286 7 -15319739.285 2
  21699144.648   -14668041.089 6 -10369270.658 2
 90 10 22 12 37 30.0000000  0  5 02 06 15 13 09
  21594068.328     4537938.601 7   3540851.046 2
  20397942.266    -8895666.032 7
  23818239.164    -3970598.009 5   1170559.126 1
  20729751.773   -20216768.867 7 -15338691.162 2
  21692003.148   -14705565.303 6 -10398510.297 2
 90 10 22 12 37 45.0000000  0  5 02 06 15 13 09
  21597805.875     4557586.674 7   3556161.226 2
  20397918.195    -8895795.071 7
  23822073.805    -3950474.187 5   1186240.022 1
  20725147.695   -20240963.628 7 -15357544.216 2
  21684873.781   -14743032.598 6 -10427705.599 2
 90 10 22 12 38  0.0000000  0  5 02 06 15 13 09
  21601550.148     4577264.877 7   3571494.889 2
  20397914.094    -8895812.678 6
  23825923.758    -3930229.741 5   1202014.893 1
  20720567.625   -20265034.662 7 -15376300.861 2
  21677754.594   -14780445.449 6 -10456858.460 1
 90 10 22 12 38 15.0000000  0  5 02 06 15 13 09
  21605304.453     4596986.674 7   3586862.522 2
  20397934.328    -8895705.391 6
  23829797.766    -3909851.869 5   1217893.746 1
  20716013.125   -20288968.201 7 -15394950.367 2
  21670646.094   -14817790.214 6 -10485958.281 1
 90 10 22 12 38 30.0000000  0  5 02 06 15 13 09
  21609066.789     4616758.384 7   3602269.047 2
  20397979.688    -8895466.683 6
  23833706.867    -3889334.113 5   1233881.600 1
  20711485.609   -20312758.000 7 -15413487.866 2
  21663555.289   -14855060.337 6 -10514999.923 2
 90 10 22 12 38 45.0000000  0  5 02 06 15 13 09
  21612837.656     4636577.809 7   3617712.746 2
  20398050.914    -8895098.266 7
  23837629.203    -3868678.577 5   1249976.805 1
  20706985.500   -20336406.097 7 -15431914.948 2
  21656476.633   -14892257.416 6 -10543984.664 2
 90 10 22 12 39  0.0000000  0  5 02 06 15 13 09
  21616616.703     4656436.150 7   3633186.776 2
  20398143.063    -8894608.852 7        -0.15212
  23841589.789    -3847894.650 5   1266172.063 1
  20702511.523   -20359921.255 7 -15450238.443 2
  21649410.688   -14929390.075 6 -10572919.198 2
 90 10 22 12 39 15.0000000  0  5 02 06 15 13 09
  21620402.117     4676329.314 7   3648687.940 2
  20398258.656    -8894002.503 6       472.328 2
  23845570.133    -3826986.290 5   1282464.273 1
  20698061.414   -20383307.549 7 -15468461.523 2
  21642355.547   -14966461.987 6 -10601806.405 2
 90 10 22 12 39 30.0000000  0  5 02 06 15 13 09
  21624196.859     4696265.561 7   3664222.672 2
  20398398.063    -8893270.829 6      1042.457 2
  23849572.453    -3805945.408 5   1298859.766 1
  20693636.328   -20406556.610 7 -15486577.668 2
  21635313.719   -15003464.655 6 -10630639.646 2
 90 10 22 12 39 45.0000000  0  5 02 06 15 13 09
  21627996.430     4716239.606 7   3679786.858 2
  20398560.391    -8892418.702 6      1706.449 2
  23853605.719    -3784777.414 5   1315354.288 1
  20689236.844   -20429673.785 7 -15504591.047 2
  21628285.477   -15040403.164 6 -10659422.905 2
 90 10 22 12 40  0.0000000  0  5 02 06 15 13 09
  21631804.953     4736253.403 7   3695382.018 2
  20398744.656    -8891444.300 6      2465.718 2
  23857656.438    -3763480.684 5   1331949.129 1
  20684863.906   -20452656.989 7 -15522500.031 2
  21621269.461   -15077275.102 6 -10688154.281 2
 90 10 22 12 40 15.0000000  0  5 02 06 15 13 09
  21635621.070     4756307.028 7   3711008.214 2
  20398954.336    -8890347.242 6      3320.566 2
  23861729.617    -3742055.534 5   1348644.037 1
  20680516.500   -20475506.279 7 -15540304.661 2
  21614265.961   -15114080.029 6 -10716833.448 2
 90 10 22 12 40 30.0000000  0  5 02 06 15 13 09
  21639444.359     4776399.111 7   3726664.377 2
  20399187.398    -8889128.772 6      4270.020 2
  23865832.219    -3720503.047 5   1365438.152 1
  20676193.289   -20498222.803 7 -15558005.844 2
  21607273.375   -15150819.209 6 -10745461.379 1
 90 10 22 12 40 45.0000000  0  5 02 06 15 13 09
  21643275.492     4796534.995 7   3742354.676 2
  20399442.133    -8887783.427 6      5318.338 2
  23869958.164    -3698818.078 5   1382335.523 1
  20671896.953   -20520800.976 7 -15575599.220 2
  21600296.328   -15187486.624 6 -10774033.393 2
 90 10 22 12 41  0.0000000  0  5 02 06 15 13 09
  21647115.680     4816714.047 7   3758078.605 2
  20399721.789    -8886311.437 6      6465.333 2
  23874109.992    -3677001.387 5   1399335.532 1
  20667625.891   -20543241.500 7 -15593085.339 2
  21593331.914   -15224082.617 6 -10802549.746 2
 90 10 22 12 41 15.0000000  0  5 02 06 15 13 09
  21650966.086     4836942.190 7   3773840.797 2
  20400027.477    -8884707.022 7      7715.527 2
  23878286.813    -3655047.540 5   1416442.410 1
  20663383.523   -20565538.548 7 -15610459.659 2
  21586382.586   -15260601.349 6 -10831005.898 2
 90 10 22 12 41 30.0000000  0  5 02 06 15 13 09
  21654822.547     4857206.766 7   3789631.363 2
  20400355.367    -8882982.485 7      9059.319 2
  23882486.133    -3632969.116 6   1433646.363 1
  20659164.727   -20587704.539 7 -15627731.851 2
  21579445.516   -15297054.888 6 -10859411.247 2
 90 10 22 12 41 45.0000000  0  5 02 06 15 13 09
  21658686.508     4877509.373 7   3805451.570 2
  20400707.070    -8881136.048 7     10498.101 2
  23886715.320    -3610764.761 6   1450948.450 1
  20654973.148   -20609738.051 7 -15644900.818 2
  21572522.273   -15333441.293 6 -10887764.287 2
 90 10 22 12 42  0.0000000  0  5 02 06 15 13 09
  21662557.961     4897856.427 7   3821306.418 2
  20401083.352    -8879161.190 7     12036.945 3
  23890968.063    -3588428.175 6   1468353.572 1
  20650805.609   -20631632.522 7 -15661961.440 2
  21565611.500   -15369753.732 6 -10916059.690 2
 90 10 22 12 42 15.0000000  0  5 02 06 15 13 09
  21666438.336     4918250.762 7   3837198.101 2
  20401483.625    -8877055.019 7     13678.118 2
  23895241.211    -3565956.878 5   1485863.657 1
  20646667.828   -20653385.120 7 -15678911.506 2
  21558716.555   -15405989.093 6 -10944295.039 2
 90 10 22 12 42 30.0000000  0  5 02 06 15 13 09
  21670327.078     4938688.603 7   3853123.686 2
  20401909.602    -8874821.109 6     15418.825 2
  23899540.086    -3543354.886 6   1503475.600 1
  20642553.164   -20674999.562 7 -15695753.923 2
  21551836.062   -15442151.130 6 -10972473.249 2
 90 10 22 12 42 45.0000000  0  5 02 06 15 13 09
  21674222.367     4959157.554 7   3869073.511 2
  20402356.086    -8872471.792 6     17249.453 2
  23903869.352    -3520634.391 6   1521179.847 1
  20638464.961   -20696488.233 7 -15712498.337 2
  21544965.008   -15478251.700 6 -11000603.562 2
 90 10 22 12 43  0.0000000  0  5 02 06 15 13 09
  21678128.586     4979676.573 7   3885062.348 2
  20402828.219    -8869987.846 7     19184.991 2
  23908212.117    -3497776.730 6   1538991.011 1
  20634403.000   -20717832.211 7 -15729129.999 2
  21538112.367   -15514271.486 6 -11028670.919 2
 90 10 22 12 43 15.0000000  0  5 02 06 15 13 09
  21682039.523     5000237.114 7   3901083.541 2
  20403324.938    -8867377.729 7     21218.846 2
  23912588.531    -3474790.711 6   1556902.185 1
  20630367.359   -20739039.939 7 -15745655.497 2
  21531270.250   -15550218.746 6 -11056681.773 2
 90 10 22 12 43 30.0000000  0  5 02 06 15 13 09
  21685959.805     5020837.922 7   3917136.113 2
  20403846.781    -8864642.553 6     23350.149 2
  23916986.070    -3451677.826 6   1574912.208 1
  20626356.758   -20760112.797 7 -15762075.900 2
  21524443.648   -15586094.533 6 -11084636.927 2
 90 10 22 12 43 45.0000000  0  5 02 06 15 13 09
  21689887.695     5041480.975 7   3933221.603 2
  20404389.664    -8861780.349 6     25580.435 2
  23921408.266    -3428436.641 6   1593022.203 1
  20622372.883   -20781048.860 7 -15778389.707 2
  21517631.469   -15621896.591 6 -11112534.636 2
 90 10 22 12 44  0.0000000  0  5 02 06 15 13 09
  21693825.469     5062168.173 7   3949341.499 2
  20404959.898    -8858788.971 6     27911.370 2
  23925857.813    -3405064.840 6   1611233.976 1
  20618415.391   -20801846.184 7 -15794595.407 2
  21510831.836   -15657622.597 6 -11140373.075 2
 90 10 22 12 44 15.0000000  0  5 02 06 15 13 09
  21697770.016     5082898.339 7   3965494.860 2
  20405552.789    -8855669.356 6     30342.237 2
  23930330.633    -3381563.887 6   1629546.399 1
  20614483.805   -20822505.678 7 -15810693.710 2
  21504048.211   -15693273.354 6 -11168152.884 2
 90 10 22 12 44 30.0000000  0  5 02 06 15 13 09
  21701724.063     5103677.485 7   3981686.404 2
  20406172.477    -8852415.230 6     32877.915 2
  23934827.820    -3357928.157 6   1647963.844 1
  20610579.539   -20843021.201 7 -15826679.824 2
  21497280.945   -15728842.347 6 -11195868.979 2
 90 10 22 12 44 45.0000000  0  5 02 06 15 13 09
  21705688.820     5124517.618 7   3997925.463 2
  20406820.578    -8849014.772 6     35527.615 2
  23939354.289    -3334145.804 6   1666495.533 1
  20606706.063   -20863381.046 7 -15842544.634 2
  21490529.086   -15764317.541 7 -11223511.987 2
 90 10 22 12 45  0.0000000  0  5 02 06 15 13 09
  21709662.867     5145397.081 7   4014195.171 2
  20407490.594    -8845489.355 7     38274.688 2
  23943904.633    -3310238.620 6   1685124.508 1
  20602857.492   -20883606.653 7 -15858304.836 2
  21483792.641   -15799720.155 6 -11251098.437 2
 90 10 22 12 45 15.0000000  0  5 02 06 15 13 09
  21713644.227     5166317.296 7   4030496.626 2
  20408185.391    -8841837.203 7     41120.526 2
  23948476.023    -3286205.151 6   1703851.878 1
  20599033.633   -20903696.468 7 -15873959.232 2
  21477069.867   -15835048.240 7 -11278626.809 2
 90 10 22 12 45 30.0000000  0  5 02 06 15 13 09
  21717634.805     5187285.314 7   4046835.332 2
  20408905.859    -8838051.449 6     44070.468 3
  23953072.789    -3262039.006 6   1722682.618 1
  20595238.227   -20923643.679 7 -15889502.505 2
  21470362.430   -15870294.914 6 -11306091.747 2
 90 10 22 12 45 45.0000000  0  5 02 06 15 13 09
  21721633.688     5208302.176 7   4063212.103 2
  20409652.281    -8834130.894 7     47125.440 2
  23957698.633    -3237739.079 6   1741617.619 1
  20591469.344   -20943447.244 7 -15904933.853 2
  21463670.180   -15905458.624 6 -11333492.041 2
 90 10 22 12 46  0.0000000  0  5 02 06 15 13 09
  21725640.883     5229362.587 7   4079622.807 2
  20410423.328    -8830080.534 7     50281.563 2
  23962347.328    -3213311.104 6   1760652.388 1
  20587728.172   -20963112.532 7 -15920257.448 2
  21456994.313   -15940544.126 6 -11360831.387 2
 90 10 22 12 46 15.0000000  0  5 02 06 15 13 09
  21729656.492     5250461.110 7   4096063.205 2
  20411216.625    -8825905.908 7     53534.518 3
  23967017.055    -3188760.428 6   1779782.781 1
  20584010.969   -20982644.829 7 -15935477.413 2
  21450331.734   -15975556.773 6 -11388113.969 2
 90 10 22 12 46 30.0000000  0  5 02 06 15 13 09
  21733680.102     5271603.101 7   4112537.483 2
  20412035.820    -8821601.392 6     56888.681 3
  23971715.266    -3164082.064 6   1799012.662 1
  20580319.688   -21002038.849 7 -15950589.635 2
  21443684.250   -16010490.888 6 -11415335.349 2
 90 10 22 12 46 45.0000000  0  5 02 06 15 13 09
  21737710.469     5292789.743 7   4129046.549 2
  20412880.758    -8817165.706 7     60345.058 2
  23976438.438    -3139274.856 6   1818342.938 1
  20576656.164   -21021293.350 7 -15965593.133 2
  21437051.742   -16045344.864 6 -11442494.294 2
 90 10 22 12 47  0.0000000  0  5 02 06 15 13 09
  21741751.641     5314018.832 7   4145588.687 2
  20413749.109    -8812600.818 7     63902.111 2
  23981179.305    -3114341.406 6   1837771.579 1
  20573017.992   -21040410.285 7 -15980489.441 2
  21430433.766   -16080120.501 6 -11469592.191 2
 90 10 22 12 47 15.0000000  0  5 02 06 15 13 09
  21745799.109     5335295.297 7   4162167.747 2
  20414643.789    -8807901.645 7     67563.801 3
  23985952.078    -3089276.640 6   1857302.552 1
  20569407.227   -21059384.961 7 -15995274.897 2
  21423832.508   -16114812.692 7 -11496625.069 2
 90 10 22 12 47 30.0000000  0  5 02 06 15 13 09
  21749857.453     5356615.965 7   4178781.245 2
  20415562.047    -8803071.419 7     71327.605 2
  23990741.102    -3064084.350 6   1876932.891 1
  20565823.352   -21078220.576 7 -16009951.992 2
  21417244.555   -16149424.086 7 -11523594.987 2
 90 10 22 12 47 45.0000000  0  5 02 06 15 13 09
  21753922.523     5377979.642 7   4195428.259 2
  20416506.422    -8798111.196 7     75192.714 3
  23995561.906    -3038765.979 6   1896661.478 1
  20562264.742   -21096918.425 7 -16024521.735 2
  21410672.734   -16183955.804 7 -11550502.818 2
 90 10 22 12 48  0.0000000  0  5 02 06 15 13 09
  21757994.109     5399381.194 7   4212104.788 2
  20417474.438    -8793025.891 7     79155.286 3
  24000399.367    -3013326.435 6   1916484.490 1
  20558731.875   -21115483.470 7 -16038988.003 2
  21404118.188   -16218412.622 7 -11577352.283 2
 90 10 22 12 48 15.0000000  0  5 02 06 15 13 09
  21762075.141     5420818.999 7   4228809.565 2
  20418464.133    -8787817.070 7     83214.108 2
  24005266.648    -2987767.395 6   1936400.602 1
  20555224.117   -21133917.307 7 -16053352.021 2
  21397574.883   -16252795.589 7 -11604144.207 2
 90 10 22 12 48 30.0000000  0  5 02 06 15 13 09
  21766160.977     5442299.818 7   4245547.857 2
  20419481.305    -8782477.757 7     87374.605 3
  24010153.719    -2962082.767 6   1956414.590 1
  20551742.820   -21152213.347 7 -16067608.671 2
  21391047.625   -16287098.000 7 -11630873.366 2
 90 10 22 12 48 45.0000000  0  5 02 06 15 13 09
  21770259.078     5463828.385 7   4262323.355 2
  20420522.859    -8777003.102 7     91640.570 3
  24015067.016    -2936267.889 6   1976530.059 1
  20548287.844   -21170366.704 7 -16081754.136 2
  21384536.703   -16321314.589 7 -11657535.640 2
 90 10 22 12 49  0.0000000  0  5 02 06 15 13 09
  21774364.430     5485403.659 7   4279135.254 2
  20421590.398    -8771394.064 7     96011.246 2
  24019999.188    -2910324.085 5   1996745.980 1
  20544861.320   -21188378.454 7 -16095789.263 2
  21378041.281   -16355446.048 7 -11684131.580 2
 90 10 22 12 49 15.0000000  0  5 02 06 15 13 09
  21778477.867     5507019.300 7   4295978.607 2
  20422682.539    -8765656.966 7    100481.703 3
  24024959.688    -2884258.197 6   2017057.049 1
  20541458.492   -21206255.169 7 -16109719.169 2
  21371561.023   -16389498.455 7 -11710665.920 2
 90 10 22 12 49 30.0000000  0  5 02 06 15 13 09
  21782600.000     5528681.059 7   4312857.892 2
  20423800.641    -8759785.782 7    105056.654 2
  24029944.117    -2858064.249 5   2037467.901 1
  20538084.672   -21223990.905 7 -16123539.215 2
  21365096.984   -16423465.642 7 -11737133.863 2
 90 10 22 12 49 45.0000000  0  5 02 06 15 13 09
  21786730.758     5550387.318 7   4329771.857 2
  20424941.023    -8753782.232 7    109734.741 3
  24034958.188    -2831744.560 6   2057976.731 1
  20534735.516   -21241587.346 7 -16137250.722 2
  21358650.180   -16457349.194 7 -11763536.629 2
 90 10 22 12 50  0.0000000  0  5 02 06 15 13 09
  21790869.281     5572136.818 7   4346719.506 2
  20426109.531    -8747647.416 7    114515.113 3
  24039987.328    -2805300.192 5   2078582.711 1
  20531412.758   -21259045.420 7 -16150854.413 2
  21352218.266   -16491149.770 7 -11789874.739 2
 90 10 22 12 50 15.0000000  0  5 02 06 15 13 09
  21795017.078     5593935.152 7   4363705.212 2
  20427302.539    -8741375.599 7    119402.238 2
  24045045.945    -2778725.698 5   2099290.089 1
  20528119.008   -21276360.054 7 -16164346.330 2
  21345801.820   -16524861.484 7 -11816143.606 2
 90 10 22 12 50 30.0000000  0  5 02 06 15 13 09
  21799172.445     5615774.738 7   4380723.059 2
  20428521.508    -8734974.345 7    124390.226 2
  24050125.398    -2752029.260 5   2120092.486 1
  20524849.391   -21293538.986 7 -16177732.502 2
  21339403.266   -16558491.920 7 -11842349.138 2
 90 10 22 12 50 45.0000000  0  5 02 06 15 13 09
  21803336.625     5637655.443 7   4397772.958 2
  20429764.320    -8728443.493 7    129479.199 3
  24055229.953    -2725211.073 5   2140989.764 1
  20521605.508   -21310582.058 7 -16191012.816 2
  21333018.625   -16592040.642 7 -11868490.998 2
 90 10 22 12 51  0.0000000  0  5 02 06 15 13 09
  21807509.273     5659580.230 7   4414857.204 2
  20431031.453    -8721780.120 7    134671.433 2
  24060356.133    -2698268.358 5   2161984.067 1
  20518389.016   -21327486.501 7 -16204185.103 2
  21326650.844   -16625504.280 7 -11894566.556 2
 90 10 22 12 51 15.0000000  0  5 02 06 15 13 09
  21811690.523     5681550.357 7   4431976.776 2
  20432325.273    -8714982.707 7    139968.114 2
  24065506.602    -2671200.001 5   2183076.259 1
  20515199.570   -21344251.051 7 -16217248.384 2
  21320299.305   -16658881.375 7 -11920574.682 2
 90 10 22 12 51 30.0000000  0  5 02 06 15 13 09
  21815878.281     5703561.343 7   4449128.181 2
  20433643.453    -8708055.910 7    145365.613 2
  24070680.086    -2644010.758 5   2204262.659 1
  20512034.492   -21360880.115 7 -16230206.090 2
  21313963.633   -16692176.155 7 -11946518.663 2
 90 10 22 12 51 45.0000000  0  5 02 06 15 13 09
  21820075.938     5725615.246 7   4466313.029 2
  20434986.406    -8700997.286 7    150865.832 2
  24075881.945    -2616698.806 5   2225544.679 1
  20508895.750   -21377371.403 7 -16243056.438 2
  21307644.531   -16725386.040 7 -11972396.499 2
 90 10 22 12 52  0.0000000  0  5 02 06 15 13 09
  21824279.930     5747710.288 7   4483529.937 2
  20436354.672    -8693808.578 7    156467.418 2
  24081100.070    -2589266.176 5   2246920.739 1
  20505784.242   -21393726.960 7 -16255801.022 2
  21301339.906   -16758512.612 7 -11998209.410 2
 90 10 22 12 52 15.0000000  0  5 02 06 15 13 09
  21828492.336     5769847.799 7   4500779.946 2
  20437746.828    -8686488.429 7    162171.429 2
  24086341.969    -2561711.651 5   2268391.773 1
  20502697.930   -21409945.298 7 -16268438.683 2
  21295053.391   -16791554.028 7 -12023955.965 2
 90 10 22 12 52 30.0000000  0  5 02 06 15 13 09
  21832711.508     5792023.413 7   4518059.633 2
  20439164.922    -8679041.091 7    167974.547 2
  24091609.680    -2534040.164 5   2289953.949 1
  20499636.891   -21426031.309 7 -16280973.228 2
  21288781.148   -16824514.746 7 -12049639.638 2
 90 10 22 12 52 45.0000000  0  5 02 06 15 13 09
  21836940.320     5814241.664 7   4535372.551 2
  20440606.570    -8671461.953 7    173880.365 2
  24096896.586    -2506247.327 5   2311610.683 1
  20496602.078   -21441980.239 7 -16293400.960 2
  21282525.922   -16857389.558 7 -12075256.373 2
 90 10 22 12 53  0.0000000  0  5 02 06 15 13 09
  21841177.773     5836511.135 7   4552725.373 2
  20442075.969    -8663742.305 7    179895.670 2
  24102214.211    -2478324.511 5   2333368.696 1
  20493594.211   -21457783.619 7 -16305715.278 2
  21276287.734   -16890169.806 7 -12100799.420 2
 90 10 22 12 53 15.0000000  0  5 02 06 15 13 09
  21845423.625     5858820.826 7   4570109.546 2
  20443568.711    -8655892.982 7    186012.020 2
  24107548.148    -2450282.904 5   2355219.277 1
  20490612.320   -21473452.325 7 -16317924.657 2
  21270064.648   -16922865.925 7 -12126276.916 2
 90 10 22 12 53 30.0000000  0  5 02 06 15 13 09
  21849678.703     5881180.767 7   4587532.869 2
  20445090.148    -8647904.082 7    192237.132 3
  24112904.227    -2422112.896 5   2377169.904 1
  20487658.492   -21488976.528 7 -16330021.433 2
  21263860.867   -16955467.678 7 -12151680.880 2
 90 10 22 12 53 45.0000000  0  5 02 06 15 13 09
  21853941.031     5903584.508 7   4604990.317 2
  20446636.469    -8639781.794 7    198566.186 2
  24118288.508    -2393821.331 5   2399215.244 1
  20484730.727   -21504362.764 7 -16342010.704 2
  21257674.688   -16987981.409 7 -12177016.253 2
 90 10 22 12 54  0.0000000  0  5 02 06 15 13 09
  21858213.211     5926033.099 7   4622482.716 2
  20448206.531    -8631525.125 7    204999.947 2
  24123695.898    -2365407.322 5   2421356.014 1
  20481830.133   -21519609.757 7 -16353891.470 2
  21251503.742   -17020405.413 7 -12202281.708 2
 90 10 22 12 54 15.0000000  0  5 02 06 15 13 09
  21862494.070     5948526.297 7   4640009.878 2
  20449803.570    -8623134.050 7    211538.445 2
  24129130.266    -2336871.494 5   2443591.694 1
  20478954.352   -21534717.860 7 -16365664.015 2
  21245349.844   -17052739.667 7 -12227477.235 2
 90 10 22 12 54 30.0000000  0  6 02 06 12 15 13 09
  21866783.781     5971065.326 7   4657572.745 2
  20451426.461    -8614607.320 7    218182.648 2
  24720423.773          -0.76212
  24134579.773    -2308212.439 5   2465923.411 1
  20476106.250   -21549686.037 7 -16377327.524 2
  21239215.086   -17084982.757 7 -12252601.716 2
 90 10 22 12 54 45.0000000  0  6 02 06 12 15 13 09
  21871079.063     5993644.738 7   4675167.083 2
  20453073.680    -8605950.198 7    224928.445 2
  24711093.039      -49061.906 3
  24140056.992    -2279436.259 5   2488346.384 1
  20473283.109   -21564519.678 7 -16388886.200 2
  21233096.875   -17117139.667 7 -12277659.045 2
 90 10 22 12 55  0.0000000  0  6 02 06 12 15 13 09
  21875385.617     6016270.367 7   4692797.434 2
  20454746.750    -8597156.841 7    231780.405 3
  24701755.281      -98125.990 3
  24145551.992    -2250536.971 5   2510865.293 1
  20470487.984   -21579212.928 7 -16400335.482 2
  21226993.313   -17149204.269 7 -12302644.449 2
 90 10 22 12 55 15.0000000  0  6 02 06 12 15 13 09
  21879698.750     6038936.551 7   4710459.387 2
  20456444.750    -8588232.762 7    238734.236 3
  24692420.367     -147198.546 4
  24151076.281    -2221520.706 5   2533475.354 1
  20467716.953   -21593771.490 7 -16411679.805 2
  21220909.000   -17181181.993 7 -12327562.153 2
 90 10 22 12 55 30.0000000  0  6 02 06 12 15 13 09
  21884020.391     6061646.970 7   4728155.809 2
  20458168.633    -8579174.238 7    245792.821 3
  24683079.188     -196275.592 4
  24156626.117    -2192384.110 5   2556179.175 1
  20464972.750   -21608191.699 7 -16422916.328 2
  21214842.172   -17213068.783 7 -12352408.996 2
 90 10 22 12 55 45.0000000  0  6 02 06 12 15 13 09
  21888350.414     6084403.765 7   4745888.370 2
  20459918.547    -8569979.347 7    252957.670 3
  24673738.500     -245354.947 4
  24162189.258    -2163125.017 4   2578978.443 1
  20462255.156   -21622471.676 7 -16434043.576 2
  21208790.320   -17244862.350 7 -12377183.203 2
 90 10 22 12 56  0.0000000  0  6 02 06 12 15 13 09
  21892689.039     6107203.893 7   4763654.697 2
  20461693.031    -8560651.027 7    260226.489 3
  24664403.391     -294439.539 5
  24167784.625    -2133747.086 5   2601870.315 1
  20459564.672   -21636614.777 7 -16445064.171 2
  21202757.680   -17276565.396 7 -12401886.872 2
 90 10 22 12 56 15.0000000  0  6 02 06 12 15 13 09
  21897035.203     6130041.452 7   4781450.183 2
  20463493.281    -8551194.772 7    267594.999 3
  24655053.898     -343534.798 4
  24173392.492    -2104256.238 4   2624850.171 1
  20456897.563   -21650626.573 7 -16455982.443 2
  21196741.086   -17308183.315 7 -12426524.213 2
 90 10 22 12 56 30.0000000  0  6 02 06 12 15 13 09
  21901389.859     6152920.930 7   4799278.339 2
  20465318.016    -8541606.071 7    275066.714 3
  24645713.469     -392635.947 5        -0.37411
  24179025.617    -2074648.118 4   2647921.407 1
  20454257.305   -21664502.500 7 -16466794.852 2
  21190741.656   -17339711.181 7 -12451091.379 2
 90 10 22 12 56 45.0000000  0  6 02 06 12 15 13 09
  21905751.172     6175844.554 7   4817140.893 2
  20467167.617    -8531882.640 7    282643.411 2
  24636367.953     -441740.623 5    -38263.691 1
  24184684.234    -2044921.149 5   2671085.252 1
  20451642.914   -21678240.431 7 -16477499.725 2
  21184760.500   -17371146.656 7 -12475586.551 2
 90 10 22 12 57  0.0000000  0  6 02 06 12 15 13 09
  21910122.031     6198816.136 7   4835040.822 2
  20469044.570    -8522020.775 7    290327.979 3
  24627022.836     -490844.917 4    -76526.787 1
  24190365.461    -2015071.610 4   2694344.606 1
  20449056.438   -21691836.690 7 -16488094.206 2
  21178795.430   -17402485.527 7 -12500006.454 2
 90 10 22 12 57 15.0000000  0  6 02 06 12 15 13 09
  21914502.102     6221832.032 7   4852975.283 2
  20470947.133    -8512023.955 7    298117.707 2
  24617681.063     -539952.243 5   -114792.244 1
  24196067.250    -1985103.198 4   2717696.591 1
  20446493.875   -21705295.242 7 -16498581.389 2
  21172849.797   -17433731.216 7 -12524353.741 2
 90 10 22 12 57 30.0000000  0  6 02 06 12 15 13 09
  21918890.906     6244897.866 7   4870948.646 2
  20472876.359    -8501886.573 7    306016.960 2
  24608337.727     -589056.915 5   -153055.606 1
  24201795.547    -1955010.542 5   2741145.376 1
  20443960.391   -21718610.554 7 -16508956.952 2
  21166923.656   -17464878.099 7 -12548624.035 2
 90 10 22 12 57 45.0000000  0  6 02 06 12 15 13 09
  21923290.375     6268012.246 7   4888959.839 2
  20474831.828    -8491609.877 7    314024.774 2
  24598992.945     -638160.046 5   -191317.783 1
  24207540.250    -1924795.488 4   2764689.550 1
  20441453.445   -21731783.944 7 -16519221.925 2
  21161014.398   -17495926.769 7 -12572817.801 2
 90 10 22 12 58  0.0000000  0  6 02 06 12 15 13 09
  21927695.164     6291166.585 7   4907002.170 2
  20476811.977    -8481202.416 7    322134.480 3
  24589647.820     -687269.913 5   -229585.211 1
  24213317.594    -1894466.909 5   2788322.169 1
  20438971.672   -21744824.099 7 -16529383.081 2
  21155124.039   -17526885.667 7 -12596941.612 2
 90 10 22 12 58 15.0000000  0  6 02 06 12 15 13 09
  21932110.641     6314362.874 7   4925077.193 2
  20478817.828    -8470662.246 7    330347.597 2
  24580300.211     -736384.374 5   -267856.238 1
  24219106.766    -1864023.309 5   2812044.442 1
  20436517.195   -21757729.124 7 -16539438.938 2
  21149249.328   -17557752.697 7 -12620993.843 2
 90 10 22 12 58 30.0000000  0  6 02 06 12 15 13 09
  21936532.414     6337602.796 7   4943186.214 2
  20480849.453    -8459987.315 7    338665.730 2
  24570950.961     -785501.409 5   -306129.252 1
  24224920.594    -1833462.975 5   2835857.651 1
  20434086.906   -21770497.317 7 -16549388.171 2
  21143393.727   -17588525.578 7 -12644972.709 2
 90 10 22 12 58 45.0000000  0  6 02 06 12 15 13 09
  21940963.883     6360888.027 7   4961330.538 2
  20482907.000    -8449176.251 7    347089.928 3
  24561600.742     -834619.316 5   -344402.939 1
  24230763.820    -1802784.402 5   2859763.017 1
  20431683.094   -21783127.171 7 -16559229.609 2
  21137556.492   -17619202.410 7 -12668876.731 2
 90 10 22 12 59  0.0000000  0  6 02 06 12 15 13 09
  21945404.609     6384219.843 7   4979511.164 2
  20484990.453    -8438227.393 7    355621.507 3
  24552256.398     -883736.512 4   -382676.136 1
  24236623.977    -1771986.565 5   2883761.284 1
  20429306.688   -21795617.300 7 -16568962.176 2
  21131737.859   -17649781.469 7 -12692704.566 2
 90 10 22 12 59 15.0000000  0  6 02 06 12 15 13 09
  21949851.898     6407597.771 7   4997727.719 2
  20487099.336    -8427141.375 7    364259.961 3
  24542911.016     -932853.345 5   -420948.948 1
  24242506.055    -1741070.114 5   2907851.978 1
  20426956.828   -21807968.437 7 -16578586.428 2
  21125936.492   -17680263.041 7 -12716456.432 2
 90 10 22 12 59 30.0000000  0  6 02 06 12 15 13 09
  21954309.484     6431023.604 7   5015981.611 2
  20489235.906    -8415916.239 7    373006.816 3
  24533566.352     -981967.698 5   -459219.913 1
  24248414.414    -1710033.802 5   2932036.075 1
  20424633.250   -21820178.677 7 -16588100.898 2
  21120154.375   -17710645.045 7 -12740130.714 2
 90 10 22 12 59 45.0000000  0  6 02 06 12 15 13 09
  21958775.531     6454490.235 7   5034267.288 2
  20491397.164    -8404559.171 7    381856.474 3
  24524218.367    -1031086.485 5   -497494.294 1
  24254341.609    -1678884.932 5   2956307.905 1
  20422334.961   -21832255.243 7 -16597511.204 2
  21114391.461   -17740934.392 7 -12763732.805 2
 90 10 22 13  0  0.0000000  0  6 02 06 12 15 13 09
  21963246.852     6477986.358 7   5052575.939 2
  20493580.891    -8393081.081 7    390800.434 3
  24514868.492    -1080220.694 5   -535780.699 1
  24260283.203    -1647635.073 4   2980658.417 1
  20420059.516   -21844209.494 7 -16606826.199 2
  21108643.930   -17771141.552 7 -12787270.846 2
 90 10 22 13  0 15.0000000  0  6 02 06 12 15 13 09
  21967726.273     6501529.740 7   5070921.421 2
  20495792.367    -8381464.452 7    399852.345 3
  24505521.438    -1129352.513 5   -574065.240 1
  24266257.836    -1616266.760 5   3005101.223 1
  20417811.422   -21856024.076 7 -16616032.361 2
  21102914.070   -17801248.840 7 -12810731.066 2
 90 10 22 13  0 30.0000000  0  6 02 06 12 15 13 09
  21972216.063     6525118.729 7   5089302.440 2
  20498027.813    -8369710.828 7    409011.009 3
  24496173.773    -1178483.231 5   -612348.956 1
  24272245.258    -1584781.863 4   3029634.874 1
  20415590.500   -21867700.470 7 -16625130.842 2
  21097203.766   -17831257.692 7 -12834114.581 2
 90 10 22 13  0 45.0000000  0  6 02 06 12 15 13 09
  21976714.000     6548754.212 7   5107719.690 2
  20500291.023    -8357819.244 7    418277.169 3
  24486821.359    -1227611.843 4   -650630.930 1
  24278259.070    -1553179.748 4   3054259.854 1
  20413394.336   -21879238.054 7 -16634121.165 2
  21091512.492   -17861166.831 7 -12857420.404 2
 90 10 22 13  1  0.0000000  0  6 02 06 12 15 13 09
  21981220.641     6572439.397 7   5126175.663 2
  20502581.469    -8345786.604 7    427653.245 3
  24477472.273    -1276734.991 4   -688908.744 1
  24284295.781    -1521457.745 5   3078978.264 1
  20411225.570   -21890633.562 7 -16643000.771 2
  21085840.742   -17890972.582 7 -12880645.662 2
 90 10 22 13  1 15.0000000  0  6 02 06 12 15 13 09
  21985737.117     6596169.073 7   5144666.310 2
  20504896.734    -8333617.945 7    437135.307 3
  24468124.648    -1325857.474 4
  24290356.852    -1489621.014 5   3103786.057 1
  20409083.969   -21901892.176 7 -16651773.711 2
  21080187.656   -17920679.932 7 -12903794.242 2
 90 10 22 13  1 30.0000000  0  6 02 06 12 15 13 09
  21990260.648     6619949.615 6   5163196.586 2
  20507239.188    -8321306.721 7    446728.462 3
  24458781.891    -1374972.647 4
  24296436.375    -1457663.491 5   3128687.985 1
  20406968.750   -21913007.634 7 -16660435.104 2
  21074553.070   -17950282.312 7 -12926861.030 2
 90 10 22 13  1 45.0000000  0  6 02 06 12 15 13 09
  21994795.477     6643774.626 6   5181761.516 2
  20509607.719    -8308859.466 7    456427.624 3
  24449435.336    -1424086.866 4
  24302540.117    -1425591.989 5   3153678.735 1
  20404879.320   -21923986.558 7 -16668990.103 2
  21068940.672   -17979785.726 7 -12949850.698 2
 90 10 22 13  2  0.0000000  0  6 02 06 12 15 13 09
  21999337.492     6667644.082 6   5200361.075 2
  20512002.391    -8296276.250 7    466232.721 3
  24440089.375    -1473199.948 4        -0.34111
  24308665.023    -1393406.434 5   3178758.346 1
  20402816.445   -21934828.953 7 -16677438.719 2
  21063344.680   -18009189.818 7 -12972762.977 2
 90 10 22 13  2 15.0000000  0  6 02 06 12 15 13 09
  22003889.859     6691566.082 6   5219001.583 2
  20514425.180    -8283548.850 7    476150.166 3
  24430740.781    -1522303.439 4    -38262.808 1
  24314812.172    -1361099.185 5   3203932.787 1
  20400779.438   -21945526.972 7 -16685774.829 2
  21057769.797   -18038486.295 7 -12995591.400 2
 90 10 22 13  2 30.0000000  0  6 02 06 12 15 13 09
  22008449.203     6715531.930 6   5237676.257 2
  20516872.789    -8270685.576 7    486173.496 3
  24421403.773    -1571405.607 4    -76524.219 1
  24320979.258    -1328679.079 4   3229195.179 1
  20398770.078   -21956089.207 7 -16694005.138 2
  21052214.070   -18067683.218 7 -13018342.248 2
 90 10 22 13  2 45.0000000  0  6 02 06 12 15 13 09
  22013020.430     6739548.383 7   5256390.363 2
  20519346.914    -8257679.807 7    496307.858 3
  24412058.914    -1620499.678 4   -114779.325 1
  24327173.602    -1296139.939 5   3254550.305 1
  20396786.211   -21966509.024 7 -16702124.471 2
  21046677.508   -18096773.700 7 -13041010.157 2
 90 10 22 13  3  0.0000000  0  6 02 06 12 15 13 09
  22017599.898     6763612.725 6   5275141.783 2
  20521848.398    -8244534.506 7    506550.943 3
  24402717.445    -1669588.266 4   -153030.190 1
  24333391.438    -1263484.938 5   3279995.715 1
  20394831.117   -21976789.538 7 -16710135.253 2
  21041162.188   -18125760.393 7 -13063597.192 2
 90 10 22 13  3 15.0000000  0  6 02 06 12 15 13 09
  22022188.461     6787726.650 6   5293931.841 2
  20524377.508    -8231247.775 7    516904.237 3
  24393377.664    -1718669.579 4   -191275.325 1
  24339624.805    -1230712.314 5   3305532.801 1
  20392901.523   -21986928.942 7 -16718036.082 2
  21035664.938   -18154641.006 7 -13086101.567 2
 90 10 22 13  3 30.0000000  0  6 02 06 12 15 13 09
  22026785.188     6811884.947 6   5312756.464 2
  20526931.813    -8217824.817 7    527363.673 3
  24384037.500    -1767748.509 4   -229518.697 1
  24345881.438    -1197827.742 5   3331157.105 1
  20390998.000   -21996932.589 7 -16725831.129 2
  21030189.648   -18183420.531 7 -13108527.170 2
 90 10 22 13  3 45.0000000  0  6 02 06 12 15 13 09
  22031390.523     6836080.988 6   5331610.503 2
  20529511.266    -8204272.371 7    537924.025 3
  24374697.633    -1816831.409 4   -267765.129 1
  24352160.891    -1164838.114 5   3356863.284 1
  20389118.508   -22006807.206 7 -16733525.633 1
  21024730.734   -18212105.518 7 -13130879.107 2
 90 10 22 13  4  0.0000000  0  6 02 06 12 15 13 09
  22036003.242     6860326.955 7   5350503.449 2
  20532116.227    -8190577.897 7    548595.039 3
  24365360.570    -1865905.693 4   -306004.810 1
  24358460.609    -1131731.511 5   3382660.609 1
  20387266.297   -22016540.651 7 -16741110.128 2
  21019293.195   -18240683.149 7 -13153147.385 2
 90 10 22 13  4 15.0000000  0  6 02 06 12 15 13 09
  22040626.430     6884620.462 6   5369433.438 2
  20534749.305    -8176743.866 7    559374.794 3
  24356020.984    -1914973.436 4   -344239.397 1
  24364781.297    -1098510.456 5   3408547.121 1
  20385440.375   -22026135.330 7 -16748586.499 2
  21013874.563   -18269155.436 7 -13175333.587 2
 90 10 22 13  4 30.0000000  0  6 02 06 12 15 13 09
  22045259.297     6908962.056 6   5388400.899 2
  20537408.109    -8162769.760 7    570263.701 3
  24346683.836    -1964033.990 3   -382468.404 1
  24371123.070    -1065174.647 5   3434523.037 1
  20383641.523   -22035590.802 7 -16755954.394 1
  21008476.375   -18297521.756 7 -13197437.211 2
 90 10 22 13  4 45.0000000  0  6 02 06 12 15 13 09
  22049900.086     6933347.504 6   5407402.530 2
  20540093.148    -8148659.785 7    581258.482 3
  24337351.281    -2013091.444 4   -420694.966 1
  24377489.273    -1031728.935 5   3460584.590 1
  20381867.617   -22044911.593 7 -16763217.346 2
  21003098.508   -18325786.048 7 -13219461.331 2
 90 10 22 13  5  0.0000000  0  6 02 06 12 15 13 09
  22054548.227     6957779.759 6   5426440.630 2
  20542805.234    -8134410.988 7    592361.439 3
  24328017.844    -2062142.696 4   -458916.711 1
  24383872.461     -998170.659 5   3486733.872 1
  20380120.578   -22054094.915 7 -16770373.171 2
  20997739.156   -18353944.873 7 -13241403.266 2
 90 10 22 13  5 15.0000000  0  6 02 06 12 15 13 09
  22059207.281     6982260.877 6   5445516.808 2
  20545542.438    -8120021.276 7    603574.202 3
  24318686.648    -2111185.305 4   -497131.716 1
  24390281.078     -964497.551 5   3512972.620 1
  20378399.594   -22063138.654 7 -16777420.234 2
  20992401.273   -18381995.970 7 -13263261.265 2
 90 10 22 13  5 30.0000000  0  6 02 06 12 15 13 09
  22063877.359     7006797.337 7   5464636.111 2
  20548309.836    -8105484.011 7    614901.934 3
  24309354.406    -2160212.474 4   -535334.715 1
  24396713.070     -930703.659 5   3539305.486 1
  20376705.102   -22072036.327 7 -16784353.481 2
  20987086.156   -18409932.579 7 -13285030.053 2
 90 10 22 13  5 45.0000000  0  6 02 06 12 15 13 09
  22068555.000     7031379.046 6   5483790.675 2
  20551101.422    -8090809.534 7    626336.592 3
  24300026.563    -2209234.241 4   -573533.470 1
  24403166.703     -896799.447 5   3565724.314 1
  20375038.680   -22080798.338 7 -16791181.019 1
  20981788.883   -18437764.604 7 -13306717.340 2
 90 10 22 13  6  0.0000000  0  6 02 06 12 15 13 09
  22073240.258     7056002.894 6   5502978.071 2
  20553920.547    -8076000.787 7    637875.882 3
  24290694.844    -2258253.425 4   -611730.238 1
  24409636.727     -862788.292 5   3592226.484 1
  20373396.922   -22089427.885 7 -16797905.333 2
  20976512.391   -18465494.510 7 -13328325.057 2
 90 10 22 13  6 15.0000000  0  6 02 06 12 15 13 09
  22077934.391     7080673.268 6   5522201.719 2
  20556764.430    -8061053.289 7    649523.279 3
  24281370.891    -2307265.415 4   -649921.376 1
  24416129.648     -828666.345 5   3618814.977 1
  20371780.352   -22097920.743 7 -16804523.143 2
  20971255.359   -18493117.749 7 -13349849.661 2
 90 10 22 13  6 30.0000000  0  6 02 06 12 15 13 09
  22082639.031     7105393.931 6   5541464.559 2
  20559636.359    -8045963.425 7    661281.611 3
  24272046.266    -2356266.330 4   -688103.906 1
  24422647.500     -794429.874 5   3645492.699 1
  20370191.242   -22106273.301 7 -16811031.628 1
  20966019.820   -18520630.344 7 -13371288.042 2
 90 10 22 13  6 45.0000000  0  6 02 06 12 15 13 09
  22087352.039     7130163.759 6   5560765.712 2
  20562534.266    -8030732.308 7    673150.010 3
  24262725.109    -2405256.906 5   -726278.366 1
  24429183.133     -760080.379 5   3672258.505 1
  20368627.523   -22114486.774 7 -16817431.728 1
  20960806.930   -18548033.217 7 -13392640.925 2
 90 10 22 13  7  0.0000000  0  6 02 06 12 15 13 09
  22092074.930     7154977.705 6   5580101.240 2
  20565458.539    -8015365.117 7    685124.440 3
  24253402.133    -2454242.124 5   -764448.656 1
  24435739.438     -725623.317 5   3699108.134 1
  20367090.313   -22122566.386 7 -16823727.528 1
  20955610.594   -18575331.099 7 -13413911.999 2
 90 10 22 13  7 15.0000000  0  6 02 06 12 15 13 09
  22096806.242     7179842.553 6   5599476.430 2
  20568410.148    -7999854.775 7    697210.420 3
  24244084.703    -2503214.795 5   -802609.182 1
  24442316.820     -691052.244 5   3726046.596 1
  20365579.813   -22130505.441 7 -16829913.806 2
  20950438.734   -18602516.767 7 -13435095.636 2
 90 10 22 13  7 30.0000000  0  6 02 06 12 15 13 09
  22101546.992     7204756.521 6   5618889.896 2
  20571388.750    -7984203.084 7    709406.540 3
  24234769.547    -2552176.432 5   -840761.082 1
  24448917.656     -656369.082 5   3753072.399 1
  20364095.438   -22138305.915 7 -16835992.088 2
  20945284.727   -18629591.673 7 -13456192.966 2
 90 10 22 13  7 45.0000000  0  6 02 06 12 15 13 09
  22106295.773     7229710.065 6   5638334.194 2
  20574392.258    -7968419.601 7    721705.354 3
  24225451.188    -2601136.366 5   -878911.674 1
  24455538.289     -621583.599 5   3780177.920 1
  20362634.570   -22145977.368 7 -16841969.841 2
  20940153.633   -18656565.091 7 -13477211.210 2
 90 10 22 13  8  0.0000000  0  6 02 06 12 15 13 09
  22111052.797     7254704.992 6   5657810.749 2
  20577420.930    -7952502.591 7    734108.220 3
  24216137.531    -2650092.621 5   -917059.393 1
  24462177.391     -586694.290 5   3807364.352 1
  20361200.586   -22153518.049 7 -16847845.697 2
  20935039.969   -18683434.802 7 -13498148.643 2
 90 10 22 13  8 15.0000000  0  6 02 06 12 15 13 09
  22115818.078     7279745.811 6   5677323.060 2
  20580474.969    -7936447.319 7    746618.818 3
  24206816.328    -2699040.232 5   -955200.379 1
  24468837.148     -551697.062 5   3834634.881 1
  20359791.227   -22160923.431 7 -16853616.119 1
  20929947.383   -18710196.064 7 -13519001.566 2
 90 10 22 13  8 30.0000000  0  6 02 06 12 15 13 09
  22120590.109     7304831.886 6   5696870.633 2
  20583556.672    -7920254.493 7    759236.601 3
  24197507.086    -2747979.707 5   -993335.035 1
  24475517.547     -516592.304 5   3861989.187 1
  20358407.953   -22168194.323 7 -16859281.745 2
  20924875.398   -18736849.026 7 -13539770.105 2
 90 10 22 13  8 45.0000000  0  6 02 06 12 15 13 09
  22125371.930     7329963.251 6   5716453.500 2
  20586665.570    -7903924.124 7    771961.557 3
  24188195.000    -2796910.918 5  -1031463.243 1
  24482218.305     -481380.897 5   3889426.587 1
  20357049.594   -22175330.858 7 -16864842.675 1
  20919824.156   -18763393.659 7 -13560454.237 2
 90 10 22 13  9  0.0000000  0  6 02 06 12 15 13 09
  22130166.328     7355148.474 6   5736078.328 2
  20589800.922    -7887447.944 7    784800.127 3
  24178886.156    -2845825.191 5  -1069578.252 1
  24488940.039     -446054.699 5   3916953.469 1
  20355717.859   -22182325.005 7 -16870292.658 2
  20914796.125   -18789821.103 7 -13581047.048 2
 90 10 22 13  9 15.0000000  0  6 02 06 12 15 13 09
  22134968.094     7380387.752 6   5755745.276 1
  20592963.586    -7870825.580 7    797752.611 3
  24169581.727    -2894721.939 5  -1107679.607 1
  24495685.906     -410613.696 5   3944569.799 1
  20354414.742   -22189176.536 7 -16875631.509 2
  20909788.250   -18816130.895 7 -13601548.178 2
 90 10 22 13  9 30.0000000  0  6 02 06 12 15 13 09
  22139779.992     7405674.632 6   5775449.324 1
  20596152.688    -7854063.367 7    810814.072 3
  24160281.219    -2943607.329 5  -1145772.096 1
  24502450.750     -375064.251 5   3972270.628 1
  20353137.070   -22195891.857 7 -16880864.226 1
  20904802.695   -18842329.062 7 -13621962.333 2
 90 10 22 13  9 45.0000000  0  6 02 06 12 15 13 09
  22144599.070     7430998.373 6   5795182.086 2
  20599368.297    -7837172.082 7    823976.102 3
  24150977.406    -2992491.907 5  -1183863.959 1
  24509231.922     -339417.705 5   4000047.125 1
  20351882.328   -22202481.899 7 -16885999.321 2
  20899837.750   -18868425.974 7 -13642297.586 2
 90 10 22 13 10  0.0000000  0  6 02 06 12 15 13 09
  22149429.094     7456372.362 6   5814954.006 2
  20602608.117    -7820138.410 7    837249.089 3
  24141677.000    -3041361.966 5  -1221944.542 1
  24516037.578     -303660.652 5   4027909.740 1
  20350654.820   -22208933.333 7 -16891026.408 1
  20894892.633   -18894407.986 7 -13662543.307 2
 90 10 22 13 10 15.0000000  0  6 02 06 12 15 13 09
  22154262.813     7481785.670 6   5834756.566 2
  20605876.063    -7802973.286 7    850624.503 3
  24132376.070    -3090228.256 5  -1260022.152 1
  24522860.594     -267804.641 5   4055849.462 1
  20349452.734   -22215257.446 7 -16895954.282 2
  20889967.625   -18920285.978 7 -13682707.979 2
 90 10 22 13 10 30.0000000  0  6 02 06 12 15 13 09
  22159105.500     7507228.515 6   5854582.142 2
  20609164.586    -7785686.223 7    864094.936 3
  24123075.820    -3139100.052 5  -1298104.063 1
  24529699.461     -231859.693 5   4083858.466 1
  20348270.648   -22221463.910 7 -16900790.486 1
  20885062.289   -18946069.058 7 -13702798.689 2
 90 10 22 13 10 45.0000000  0  6 02 06 12 15 13 09
  22163957.719     7532726.280 6   5874450.507 2
  20612481.633    -7768252.366 7    877679.752 3
  24113780.891    -3187952.029 5  -1336170.538 1
  24536562.633     -195800.842 5   4111956.218 1
  20347117.969   -22227527.847 7 -16905515.633 1
  20880178.500   -18971731.701 7 -13722795.553 2
 90 10 22 13 11  0.0000000  0  6 02 06 12 15 13 09
  22168820.828     7558271.898 6   5894356.163 1
  20615826.922    -7750678.333 7    891373.795 3
  24104488.086    -3236790.892 5  -1374226.773 1
  24543444.273     -159635.521 5   4140136.942 1
  20345988.813   -22233456.389 7 -16910135.270 2
  20875316.547   -18997280.621 7 -13742703.804 2
 90 10 22 13 11 15.0000000  0  6 02 06 12 15 13 09
  22173689.453     7583865.929 6   5914299.547 1
  20619197.883    -7732963.836 7    905177.293 3
  24095195.078    -3285615.876 5  -1412272.212 1
  24550346.297     -123363.248 5   4168401.044 1
  20344887.023   -22239248.976 7 -16914648.972 1
  20870476.313   -19022715.099 7 -13762522.875 2
 90 10 22 13 11 30.0000000  0  6 02 06 12 15 13 09
  22178566.922     7609500.803 6   5934274.753 2
  20622594.148    -7715116.327 7    919084.439 3
  24085906.859    -3334434.291 5  -1450312.539 1
  24557267.398      -86991.797 5   4196742.400 1
  20343807.836   -22244913.175 7 -16919062.632 1
  20865657.719   -19048042.297 7 -13782258.349 2
 90 10 22 13 11 45.0000000  0  6 02 06 12 15 13 09
  22183454.422     7635180.809 6   5954285.123 1
  20626017.070    -7697131.616 7    933098.489 3
  24076617.656    -3383241.578 5  -1488344.195 1
  24564210.898      -50517.439 5   4225163.918 1
  20342755.406   -22250444.965 7 -16923373.115 1
  20860858.211   -19073257.616 7 -13801906.656 2
 90 10 22 13 12  0.0000000  0  6 02 06 12 15 13 09
  22188349.805     7660904.639 6   5974329.649 1
  20629465.117    -7679011.034 7    947218.412 3
  24067334.766    -3432038.698 5  -1526367.903 1
  24571169.852      -13941.770 5   4253664.453 1
  20341727.914   -22255845.734 7 -16927581.505 1
  20856080.805   -19098362.002 7 -13821468.513 2
 90 10 22 13 12 15.0000000  0  6 02 06 12 15 13 09
  22193254.867     7686677.516 6   5994412.386 1
  20632939.258    -7660749.174 7    961448.419 3
  24058054.945    -3480820.223 5  -1564379.460 1
  24578150.477       22740.158 5   4282247.743 1
  20340727.141   -22261110.613 7 -16931684.005 1
  20851325.523   -19123350.236 7 -13840939.858 2
 90 10 22 13 12 30.0000000  0  6 02 06 12 15 13 09
  22198169.289     7712500.303 6   6014534.015 2
  20636441.234    -7642345.292 7    975789.096 3
  24048771.805    -3529584.941 5  -1602377.938 1
  24585149.125       59529.165 5
  20339750.383   -22266238.665 7 -16935679.882 1
  20846593.477   -19148220.653 7 -13860319.406 2
 90 10 22 13 12 45.0000000  0  6 02 06 12 15 13 09
  22203089.414     7738370.549 6   6034692.624 2
  20639971.250    -7623801.845 7    990238.531 3
  24039495.047    -3578335.205 5  -1640365.148 1
  24592170.273       96422.155 5
  20338799.547   -22271232.576 7 -16939571.240 1
  20841883.195   -19172975.751 7 -13879609.091 2
 90 10 22 13 13  0.0000000  0  6 02 06 12 15 13 09
  22208024.563     7764296.366 6   6054894.539 2
  20643528.148    -7605110.812 7   1004802.967 3
  24030222.563    -3627062.581 5  -1678334.537 1
  24599210.867      133426.673 5        -0.13711
  20337876.617   -22276084.374 7 -16943351.858 1
  20837196.406   -19197606.999 7 -13898802.273 2
 90 10 22 13 13 15.0000000  0  6 02 06 12 15 13 09
  22212967.930     7790267.424 6   6075131.702 1
  20647109.492    -7586282.735 7   1019474.192 3
  24020952.508    -3675777.482 5  -1716294.186 1
  24606270.680      170532.328 5
  20336978.617   -22280804.903 7 -16947030.188 2
  20832531.094   -19222124.690 7 -13917906.968 2
 90 10 22 13 13 30.0000000  0  6 02 06 12 15 13 09
  22217913.953     7816276.907 6   6095398.804 2
  20650718.641    -7567324.152 7   1034247.103 3
  24011684.977    -3724486.120 5  -1754248.979 1
  24613353.398      207732.124 5
  20336104.047   -22285400.830 7 -16950611.424 1
  20827886.031   -19246535.131 7 -13936928.091 2
 90 10 22 13 13 45.0000000  0  6 02 06 12 15 13 09
  22222875.102     7842333.885 6   6115702.924 2
  20654351.906    -7548226.353 7   1049128.493 3
  24002415.250    -3773179.251 5  -1792191.677 1
  24620452.445      245034.778 5
  20335254.836   -22289863.161 7 -16954088.562 1
  20823261.797   -19270828.974 7 -13955858.355 2
 90 10 22 13 14  0.0000000  0  6 02 06 12 15 13 09
  22227842.094     7868444.039 6   6136048.469 1
  20658014.445    -7528983.465 7   1064122.947 3
  23993155.414    -3821850.965 5  -1830117.677 1
  24627568.672      282445.578 5
  20334432.875   -22294186.484 7 -16957457.382 1
  20818662.000   -19295000.405 7 -13974693.239 2
 90 10 22 13 14 15.0000000  0  6 02 06 12 15 13 09
  22232821.477     7894603.509 6   6156432.442 1
  20661701.320    -7509599.263 7   1079227.515 3
  23983897.281    -3870504.815 5  -1868029.753 1
  24634707.914      319960.396 5
  20333634.547   -22298374.691 7 -16960720.920 1
  20814085.141   -19319052.747 7 -13993435.326 2
 90 10 22 13 14 30.0000000  0  6 02 06 12 15 13 09
  22237806.961     7920805.338 6   6176849.429 1
  20665417.320    -7490081.095 7   1094436.471 3
  23974637.492    -3919147.696 5  -1905933.314 1
  24641865.055      357571.690 5        -0.40311
  20332862.273   -22302435.292 7 -16963885.019 1
  20809530.055   -19342992.850 7 -14012089.953 2
 90 10 22 13 14 45.0000000  0  6 02 06 12 15 13 09
  22242801.828     7947057.679 6   6197305.778 1
  20669157.953    -7470420.642 7   1109756.304 3
  23965387.695    -3967771.080 5  -1943821.632 1
  24649044.008      395287.547 5     29388.569 1
  20332114.547   -22306360.047 7 -16966943.268 1
  20804997.828   -19366812.291 7 -14030650.557 2
 90 10 22 13 15  0.0000000  0  5 02 06 12 13 09
  22247808.555     7973364.105 6   6217804.262 1
  20672926.258    -7450614.337 7   1125189.780 3
  23956137.820    -4016371.139 5  -1981691.791 1
  20331395.891   -22310145.392 7 -16969892.882 1
  20800489.023   -19390507.243 7 -14049114.152 2
 90 10 22 13 15 15.0000000  0  5 02 06 12 13 09
  22252824.297     7999721.102 6   6238342.159 1
  20676723.539    -7430665.729 7   1140734.141 3
  23946895.102    -4064951.219 5  -2019546.392 1
  20330700.477   -22313795.006 7 -16972736.736 1
  20796002.484   -19414080.751 7 -14067483.126 2
 90 10 22 13 15 30.0000000  0  5 02 06 12 13 09
  22257850.477     8026128.585 6   6258919.390 1
  20680546.289    -7410575.132 7   1156389.143 3
  23937656.352    -4113511.032 5  -2057385.213 1
  20330031.820   -22317309.505 7 -16975475.306 1
  20791540.023   -19437532.594 7 -14085757.290 2
 90 10 22 13 15 45.0000000  0  5 02 06 12 13 09
  22262884.664     8052582.943 6   6279533.147 2
  20684395.164    -7390345.955 7   1172152.121 3
  23928417.453    -4162053.819 5  -2095210.758 1
  20329387.750   -22320692.471 7 -16978111.380 2
  20787099.852   -19460866.363 7 -14103939.445 2
 90 10 22 13 16  0.0000000  0  5 02 06 12 13 09
  22267927.156     8079079.910 6   6300180.106 1
  20688271.094    -7369982.451 7   1188019.773 3
  23919180.789    -4210583.530 5  -2133026.110 1
  20328767.930   -22323948.240 7 -16980648.339 1
  20782681.914   -19484085.740 7 -14122032.469 2
 90 10 22 13 16 15.0000000  0  5 02 06 12 13 09
  22272979.141     8105623.549 6   6320863.429 2
  20692171.664    -7349480.651 7   1203995.192 3
  23909944.234    -4259095.867 5  -2170827.932 1
  20328173.719   -22327072.905 7 -16983083.144 1
  20778285.641   -19507186.542 7 -14140033.093 2
 90 10 22 13 16 30.0000000  0  5 02 06 12 13 09
  22278036.758     8132210.315 6   6341580.357 1
  20696098.469    -7328844.149 7   1220075.581 3
  23900716.086    -4307594.278 5  -2208618.866 1
  20327603.406   -22330070.203 7 -16985418.690 1
  20773911.688   -19530171.803 7 -14157943.686 2
 90 10 22 13 16 45.0000000  0  5 02 06 12 13 09
  22283102.258     8158844.447 6   6362334.204 1
  20700053.195    -7308068.930 7   1236264.062 3
  23891497.000    -4356074.201 5  -2246395.452 1
  20327058.211   -22332935.888 7 -16987651.691 1
  20769559.188   -19553037.059 7 -14175760.769 2
 90 10 22 13 17  0.0000000  0  5 02 06 12 13 09
  22288180.594     8185524.823 6   6383124.074 1
  20704033.195    -7287155.983 7   1252559.856 3
  23882272.156    -4404536.525 5  -2284158.287 1
  20326538.320   -22335671.522 7 -16989783.350 1
  20765231.609   -19575783.326 7 -14193485.135 2
 90 10 22 13 17 15.0000000  0  5 02 06 12 13 09
  22293268.766     8212254.821 6   6403952.621 2
  20708038.539    -7266102.009 7   1268965.546 3
  23873056.461    -4452977.513 5  -2321904.530 1
  20326042.867   -22338273.850 7 -16991811.136 1
  20760925.703   -19598406.820 7 -14211113.829 2
 90 10 22 13 17 30.0000000  0  5 02 06 12 13 09
  22298362.625     8239033.010 6   6424818.704 1
  20712072.016    -7244908.613 7   1285479.872 3
  23863842.852    -4501398.419 5  -2359635.074 1
  20325571.758   -22340744.668 7 -16993736.446 1
  20756644.844   -19620908.897 7 -14228647.916 2
 90 10 22 13 17 45.0000000  0  5 02 06 12 13 09
  22303467.000     8265852.911 6   6445717.300 1
  20716130.352    -7223582.279 7   1302097.785 3
  23854631.633    -4549805.319 5  -2397354.738 1
  20325126.000   -22343090.563 7 -16995564.413 2
  20752384.375   -19643295.679 7 -14246092.161 2
 90 10 22 13 18  0.0000000  0  5 02 06 12 13 09
  22308579.922     8292714.004 6   6466647.986 2
  20720213.008    -7202123.405 7   1318818.977 3
  23845421.930    -4598198.458 5  -2435063.663 1
  20324702.734   -22345312.043 7 -16997295.435 1
  20748145.719   -19665567.119 7 -14263446.533 2
 90 10 22 13 18 15.0000000  0  5 02 06 12 13 09
  22313699.289     8319620.379 6   6487613.961 1
  20724323.797    -7180527.939 7   1335646.603 3
  23836214.516    -4646573.584 5  -2472758.580 1
  20324304.555   -22347405.134 7 -16998926.407 1
  20743930.953   -19687718.863 7 -14280707.633 2
 90 10 22 13 18 30.0000000  0  5 02 06 12 13 09
  22318829.008     8346580.269 6   6508621.635 2
  20728460.328    -7158788.080 7   1352586.741 3
  23827014.031    -4694922.415 5  -2510432.974 1
  20323932.258   -22349362.126 7 -17000451.333 1
  20739740.180   -19709742.932 7 -14297869.246 2
 90 10 22 13 18 45.0000000  0  5 02 06 12 13 09
  22323969.609     8373586.884 6   6529665.715 1
  20732623.219    -7136910.448 7   1369634.233 3
  23817817.516    -4743251.096 5  -2548091.681 1
  20323584.516   -22351189.852 7 -17001875.531 1
  20735572.273   -19731645.326 7 -14314936.049 2
 90 10 22 13 19  0.0000000  0  5 02 06 12 13 09
  22329117.406     8400644.611 6   6550749.629 1
  20736813.742    -7114890.583 7   1386792.557 3
  23808623.734    -4791555.051 5  -2585731.113 1
  20323261.852   -22352883.972 7 -17003195.622 1
  20731428.188   -19753421.438 7 -14331904.449 2
 90 10 22 13 19 15.0000000  0  5 02 06 12 13 09
  22334276.344     8427756.444 6   6571875.699 1
  20741032.602    -7092725.586 7   1404063.971 3
  23799438.414    -4839830.947 5  -2623348.692 1
  20322965.672   -22354441.730 7 -17004409.453 1
  20727309.211   -19775068.099 7 -14348771.973 2
 90 10 22 13 19 30.0000000  0  5 02 06 12 13 09
  22339444.594     8454913.168 6   6593036.743 2
  20745275.461    -7070425.021 7   1421441.027 3
  23790256.727    -4888087.999 5  -2660951.581 1
  20322692.273   -22355872.682 7 -17005524.474 1
  20723212.484   -19796594.300 7 -14365545.639 2
 90 10 22 13 19 45.0000000  0  5 02 06 12 13 09
  22344621.594     8482119.095 6   6614236.142 1
  20749544.828    -7047984.330 7   1438927.269 3
  23781080.461    -4936321.513 5  -2698536.142 1
  20322445.234   -22357172.587 7 -17006537.389 1
  20719140.180   -19817995.338 7 -14382221.772 2
 90 10 22 13 20  0.0000000  0  5 02 06 12 13 09
  22349808.344     8509375.715 6   6635475.030 1
  20753841.930    -7025402.321 7   1456523.630 3
  23771907.078    -4984529.839 5  -2736101.050 1
  20322222.844   -22358340.093 7 -17007447.128 1
  20715092.484   -19839269.551 7 -14398799.085 2
 90 10 22 13 20 15.0000000  0  5 02 06 12 13 09
  22355003.781     8536676.525 6   6656748.352 1
  20758164.789    -7002685.499 7   1474225.037 3
  23762735.602    -5032719.224 5  -2773651.235 1
  20322026.188   -22359381.975 7 -17008258.983 1
  20711065.984   -19860423.346 7 -14415282.561 2
 90 10 22 13 20 30.0000000  0  5 02 06 12 13 09
  22360208.844     8564031.451 6   6678063.847 1
  20762516.109    -6979823.933 7   1492039.230 3
  23753570.164    -5080879.302 5  -2811178.550 1
  20321851.258   -22360288.367 7 -17008965.258 2
  20707065.867   -19881446.228 7 -14431664.030 2
 90 10 22 13 20 45.0000000  0  5 02 06 12 13 09
  22365421.305     8591430.167 6   6699413.457 1
  20766892.859    -6956828.008 7   1509958.119 3
  23744407.211    -5129020.077 5  -2848690.811 1
  20321703.813   -22361069.809 7 -17009574.176 2
  20703087.648   -19902348.163 7 -14447951.249 2
 90 10 22 13 21  0.0000000  0  5 02 06 12 13 09
  22370645.445     8618878.897 6   6720802.033 1
  20771295.094    -6933691.582 7   1527986.490 3
  23735250.656    -5177135.068 5  -2886183.016 1
  20321582.211   -22361720.277 7 -17010081.033 1
  20699135.039   -19923122.718 7 -14464139.213 2
 90 10 22 13 21 15.0000000  0  5 02 06 12 13 09
  22375881.930     8646380.106 6   6742231.508 1
  20775724.469    -6910412.267 7   1546126.197 3
  23726098.930    -5225221.640 5  -2923653.074 1
  20321481.922   -22362237.603 7 -17010484.140 1
  20695204.945   -19943767.270 7 -14480225.879 2
 90 10 22 13 21 30.0000000  0  5 02 06 12 13 09
  22381123.547     8673935.496 6   6763703.211 1
  20780182.086    -6886988.532 7   1564378.447 3
  23716956.586    -5273277.839 5  -2961099.445 1
  20321409.094   -22362620.313 7 -17010782.358 1
  20691302.508   -19964279.940 7 -14496209.780 2
 90 10 22 13 21 45.0000000  0  5 02 06 12 13 09
  22386375.938     8701548.733 6   6785219.976 1
  20784668.359    -6863416.640 7   1582746.138 3
  23707818.664    -5321299.682 5  -2998519.056 1
  20321365.219   -22362864.802 7
  20687424.961   -19984656.617 7 -14512087.705 2
 90 10 22 13 22  0.0000000  0  5 02 06 12 13 09
  22391641.539     8729202.262 6   6806768.141 1
  20789176.594    -6839714.333 7   1601215.458 3
  23698682.250    -5369304.522 5  -3035925.412 1
  20321338.172   -22362989.034 7
  20683569.859   -20004914.531 7 -14527873.095 2
 90 10 22 13 22 15.0000000  0  5 02 06 12 13 09
  22396910.813     8756902.202 6   6828352.468 1
  20793715.258    -6815875.575 7   1619791.101 3
  23689552.305    -5417285.897 5  -3073313.503 1
  20321338.711   -22362987.008 7
  20679738.266   -20025047.396 7 -14543561.048 2
 90 10 22 13 22 30.0000000  0  5 02 06 12 13 09
  22402192.938     8784652.205 6   6849975.814 1
  20798275.938    -6791896.547 7   1638476.046 3
  23680428.469    -5465239.710 5  -3110680.091 1
  20321365.477   -22362855.139 7
  20675933.492   -20045051.383 7 -14559148.570 2
 90 10 22 13 22 45.0000000  0  5 02 06 12 13 09
  22407480.664     8812448.396 6   6871635.137 1
  20802867.578    -6767781.322 7   1657267.121 3
  23671307.859    -5513169.584 5  -3148028.056 1
  20321411.180   -22362597.355 7
  20672149.992   -20064929.770 7 -14574638.224 2
 90 10 22 13 23  0.0000000  0  5 02 06 12 13 09
  22412781.297     8840302.006 6   6893339.210 1
  20807483.883    -6743518.933 7   1676172.865 3
  23662194.531    -5561064.309 5  -3185348.610 1
  20321486.453   -22362202.906 7
  20668393.406   -20084671.337 7 -14590021.271 2
 90 10 22 13 23 15.0000000  0  5 02 06 12 13 09
  22418094.250     8868208.816 6   6915084.731 1
  20812127.461    -6719113.631 7   1695189.970 3
  23653087.328    -5608927.590 5  -3222644.650 1
  20321588.781   -22361676.234 7        -0.20611
  20664661.844   -20104280.047 7 -14605300.790 2
 90 10 22 13 23 30.0000000  0  5 02 06 12 13 09
  22423412.555     8896159.515 6   6936864.456 1
  20816796.484    -6694574.609 7   1714311.268 3
  23643982.438    -5656768.469 5  -3259923.244 1
  20321711.086   -22361026.929 7       505.748 1
  20660954.555   -20123764.879 7 -14620483.775 2
 90 10 22 13 23 45.0000000  0  5 02 06 12 13 09
  22428738.500     8924152.260 6   6958676.944 1
  20821492.062    -6669903.854 7   1733535.218 3
  23634880.836    -5704588.410 5  -3297185.538 1
  20321858.453   -22360256.771 7      1105.869 1
  20657269.328   -20143127.232 7 -14635571.326 2
 90 10 22 13 24  0.0000000  0  5 02 06 12 13 09
  22434074.562     8952195.116 6   6980528.481 1
  20826213.969    -6645093.510 7   1752867.936 3
  23625788.563    -5752379.301 5  -3334425.195 1
  20322029.828   -22359358.143 7      1806.097 1
  20653609.187   -20162359.230 7 -14650557.296 2
 90 10 22 13 24 15.0000000  0  5 02 06 12 13 09
  22439420.227     8980291.374 6   7002421.629 1
  20830963.172    -6620140.393 7   1772311.906 3
  23616701.063    -5800137.457 5  -3371639.336 1
  20322225.445   -22358327.769 7      2608.986 1
  20649974.711   -20181456.819 7 -14665438.535 2
 90 10 22 13 24 30.0000000  0  5 02 06 12 13 09
  22444776.047     9008434.264 6   7024351.114 1
  20835736.289    -6595051.115 7   1791861.974 3
  23607615.063    -5847869.132 5  -3408832.844 1
  20322445.711   -22357172.391 7      3509.278 1
  20646365.148   -20200426.576 7 -14680220.168 2
 90 10 22 13 24 45.0000000  0  5 02 06 12 13 09
  22450141.563     9036627.898 6   7046320.130 1
  20840537.984    -6569822.004 7   1811520.997 3
  23598538.055    -5895570.421 5  -3446002.670 1
  20322691.078   -22355888.431 7      4509.767 1
  20642779.766   -20219264.542 7 -14694899.103 2
 90 10 22 13 25  0.0000000  0  5 02 06 12 13 09
  22455517.953     9064872.342 6   7068328.748 1
  20845364.844    -6544453.017 7   1831289.021 3
  23589467.922    -5943240.818 5  -3483148.426 1
  20322958.602   -22354476.076 7      5610.303 1
  20639221.016   -20237969.975 7 -14709474.770 2
 90 10 22 13 25 15.0000000  0  5 02 06 12 13 09
  22460903.266     9093164.724 6   7090374.718 1
  20850216.977    -6518947.057 7   1851163.778 3
  23580402.242    -5990882.713 5  -3520271.968 1
  20323251.734   -22352938.414 7      6808.478 1
  20635685.961   -20256545.777 7 -14723949.426 2
 90 10 22 13 25 30.0000000  0  5 02 06 12 13 09
  22466292.406     9121501.798 6   7112455.510 1
  20855097.344    -6493307.362 7   1871142.740 3
  23571341.680    -6038499.120 5  -3557375.661 1
  20323568.016   -22351278.994 7      8101.530 1
  20632174.633   -20274994.904 7 -14738325.372 2
 90 10 22 13 25 45.0000000  0  5 02 06 12 13 09
  22471694.344     9149890.388 6   7134576.452 1
  20860003.516    -6467527.546 7   1891230.886 3
  23562287.375    -6086083.064 5  -3594454.051 1
  20323908.445   -22349491.082 7      9494.704 1
  20628691.102   -20293310.343 7 -14752597.144 2
 90 10 22 13 26  0.0000000  0  5 02 06 12 13 09
  22477109.695     9178333.864 6   7156740.156 1
  20864935.797    -6441603.963 7   1911431.064 3
  23553236.336    -6133630.680 5  -3631504.147 1
  20324273.820   -22347571.219 7     10990.698 1
  20625231.867   -20311487.934 7 -14766761.508 2
 90 10 22 13 26 15.0000000  0  5 02 06 12 13 09
  22482528.016     9206826.595 6   7178942.224 1
  20869895.914    -6415542.345 7   1931738.793 3
  23544193.859    -6181147.532 5  -3668530.256 1
  20324661.188   -22345525.467 7     12584.795 1
  20621797.703   -20329533.528 7 -14780823.010 2
 90 10 22 13 26 30.0000000  0  5 02 06 12 13 09
  22487962.992     9235371.377 6   7201184.874 1
  20874881.023    -6389340.156 7   1952156.068 3
  23535158.703    -6228630.522 5  -3705529.977 1
  20325076.930   -22343351.533 7     14278.767 1
  20618389.313   -20347443.788 7 -14794779.062 2
 90 10 22 13 26 45.0000000  0  5 02 06 12 13 09
  22493402.219     9263966.583 6   7223466.812 1
  20879894.938    -6362999.120 7   1972681.532 3
  23526129.023    -6276080.767 5  -3742504.197 1
  20325513.719   -22341051.040 7     16071.359 1
  20615006.687   -20365220.342 7 -14808630.922 2
 90 10 22 13 27  0.0000000  0  5 02 06 12 13 09
  22498856.461     9292610.389 6   7245786.611 1
  20884931.430    -6336520.995 7   1993313.815 3
  23517108.086    -6323499.892 6  -3779454.164 1
  20325974.344   -22338625.846 7     17961.119 1
  20611648.867   -20382864.612 7 -14822379.710 2
 90 10 22 13 27 15.0000000  0  5 02 06 12 13 09
  22504313.688     9321305.893 6   7268146.695 1
  20889998.828    -6309902.873 7   2014055.188 3
  23508092.195    -6370884.519 5  -3816377.241 1
  20326460.391   -22336073.240 7     19950.164 1
  20608317.539   -20400373.207 7 -14836022.777 2
 90 10 22 13 27 30.0000000  0  5 02 06 12 13 09
  22509785.258     9350053.272 6   7290547.199 1
  20895089.883    -6283144.628 7   2034905.743 3
  23499080.086    -6418234.127 6  -3853273.042 1
  20326969.570   -22333393.159 7     22038.537 1
  20605011.859   -20417745.762 7 -14849559.837 2
 90 10 22 13 27 45.0000000  0  5 02 06 12 13 09
  22515265.820     9378842.979 6   7312980.693 1
  20900205.383    -6256256.099 7   2055857.832 3
  23490074.539    -6465558.011 5  -3890148.787 1
  20327503.531   -22330595.512 7     24218.522 1
  20601729.906   -20434991.677 7 -14862998.218 2
 90 10 22 13 28  0.0000000  0  5 02 06 12 13 09
  22520753.797     9407685.682 6   7335455.478 1
  20905349.258    -6229226.708 7   2076919.677 3
  23481075.594    -6512845.366 5  -3926996.076 1
  20328060.172   -22327669.755 7     26498.328 1
  20598474.445   -20452099.885 7 -14876329.294 2
 90 10 22 13 28 15.0000000  0  5 02 06 12 13 09
  22526249.438     9436573.549 6   7357965.451 1
  20910519.539    -6202064.301 7   2098085.170 3
  23472082.523    -6560103.661 5  -3963820.711 1
  20328639.563   -22324623.911 7     28871.714 1
  20595244.211   -20469078.241 7 -14889559.184 2
 90 10 22 13 28 30.0000000  0  5 02 06 12 13 09
  22531756.641     9465512.590 6   7380515.311 1
  20915715.133    -6174763.157 7   2119358.767 3
  23463095.555    -6607326.524 5  -4000617.752 1
  20329243.289   -22321452.210 7     31343.165 1
  20592038.141   -20485920.083 7 -14902682.698 2
 90 10 22 13 28 45.0000000  0  5 02 06 12 13 09
  22537271.813     9494497.620 6   7403100.995 1
  20920935.273    -6147328.142 7   2140736.679 3
  23454116.367    -6654518.596 5  -4037390.792 1
  20329869.156   -22318160.077 7     33908.459 1
  20588858.648   -20502630.218 7 -14915703.591 2
 90 10 22 13 29  0.0000000  0  5 02 06 12 13 09
  22542797.188     9523531.116 6   7425724.445 1
  20926181.734    -6119757.106 7   2162220.578 3
  23445142.773    -6701677.345 5  -4074137.857 1
  20330519.578   -22314745.278 7     36569.340 1
  20585703.891   -20519206.411 7 -14928620.107 2
 90 10 22 13 29 15.0000000  0  5 02 06 12 13 09
  22548333.352     9552617.877 6   7448389.412 1
  20931454.273    -6092045.493 7   2183814.020 3
  23436176.898    -6748797.776 5  -4110855.088 1
  20331193.586   -22311203.237 7     39329.369 1
  20582577.047   -20535643.525 7 -14941428.253 2
 90 10 22 13 29 30.0000000  0  5 02 06 12 13 09
  22553878.109     9581752.366 6   7471091.562 1
  20936753.312    -6064198.858 7   2205512.673 3
  23427214.250    -6795884.950 5  -4147546.390 1
  20331890.398   -22307539.628 7     42184.126 1
  20579474.367   -20551946.429 7 -14954131.820 2
 90 10 22 13 29 45.0000000  0  5 02 06 12 13 09
  22559429.773     9610938.946 6   7493834.292 1
  20942079.508    -6036212.972 7   2227319.835 3
  23418260.781    -6842934.226 5  -4184208.159 1
  20332611.680   -22303750.342 7     45136.817 1
  20576398.508   -20568111.011 7 -14966727.599 2
 90 10 22 13 30  0.0000000  0  5 02 06 12 13 09
  22564990.633     9640174.965 6   7516615.553 1
  20947432.820    -6008090.534 7   2249233.395 3
  23409313.781    -6889948.132 5  -4220842.367 1
  20333356.781   -22299838.435 7     48185.047 1
  20573347.461   -20584139.411 7 -14979217.268 2
 90 10 22 13 30 15.0000000  0  5 02 06 12 13 09
  22570569.477     9669466.639 6   7539440.187 1
  20952808.883    -5979825.691 7   2271257.922 3
  23400376.367    -6936920.199 5  -4257443.987 1
  20334125.148   -22295797.936 7     51333.487 1
  20570325.070   -20600025.480 7 -14991596.026 2
 90 10 22 13 30 30.0000000  0  5 02 06 12 13 09
  22576151.773     9698809.981 6   7562305.068 1
  20958215.008    -5951422.362 7   2293390.365 3
  23391442.000    -6983854.026 5  -4294015.793 1
  20334918.383   -22291632.736 7     54579.100 1
  20567326.891   -20615772.733 7 -15003866.614 2
 90 10 22 13 30 45.0000000  0  5 02 06 12 13 09
  22581743.375     9728201.411 6   7585207.435 1
  20963645.313    -5922884.224 7   2315627.854 3
  23382519.148    -7030752.880 5  -4330560.346 1
  20335733.422   -22287346.838 7     57918.758 1
  20564357.773   -20631384.291 7 -15016031.472 2
 90 10 22 13 31  0.0000000  0  5 02 06 12 13 09
  22587346.117     9757642.494 6   7608148.491 1
  20969100.789    -5894210.052 7   2337971.343 3
  23373605.305    -7077614.976 5  -4367076.265 1
  20336573.242   -22282939.116 7     61353.346 1
  20561412.430   -20646858.725 7 -15028089.479 2
 90 10 22 13 31 15.0000000  0  5 02 06 12 13 09
  22592959.461     9787134.042 6   7631128.863 1
  20974584.594    -5865398.945 7   2360421.527 3
  23364693.914    -7124439.098 5  -4403562.596 1
  20337434.813   -22278408.836 7     64883.428 1
  20558493.641   -20662194.854 7 -15040039.713 2
 90 10 22 13 31 30.0000000  0  5 02 06 12 13 09
  22598579.055     9816674.480 6   7654147.328 1
  20980092.836    -5836452.764 7   2382976.972 3
  23355791.578    -7171226.517 5  -4440020.321 1
  20338319.414   -22273757.905 7     68507.537 1
  20555601.813   -20677393.982 7 -15051883.192 2
 90 10 22 13 31 45.0000000  0  5 02 06 12 13 09
  22604214.602     9846269.908 6   7677208.655 1
  20985627.320    -5807365.558 7   2405642.303 3
  23346893.602    -7217970.744 5  -4476444.399 1
  20339228.242   -22268980.284 7     72230.354 1
  20552737.945   -20692449.886 7 -15063615.071 2
 90 10 22 13 32  0.0000000  0  5 02 06 12 13 09
  22609854.656     9875915.422 6   7700309.013 1
  20991188.695    -5778142.112 7   2428413.789 3
  23338009.031    -7264676.433 5  -4512838.432 1
  20340160.414   -22264081.062 7     76047.930 1
  20549898.422   -20707367.209 7 -15075238.964 2
 90 10 22 13 32 15.0000000  0  5 02 06 12 13 09
  22615502.414     9905610.852 6   7723448.247 1
  20996777.086    -5748782.771 7   2451291.173 3
  23329126.164    -7311343.391 5  -4549202.288 1
  20341115.742   -22259060.532 7     79960.021 1
  20547085.461   -20722145.802 7 -15086754.757 2
 90 10 22 13 32 30.0000000  0  5 02 06 12 13 09
  22621165.039     9935362.353 6   7746631.172 1
  21002390.148    -5719281.708 7   2474278.981 3
  23320255.492    -7357965.225 6  -4585530.993 1
  20342095.641   -22253912.929 7     83971.139 1
  20544301.641   -20736779.279 7 -15098157.470 2
 90 10 22 13 32 45.0000000  0  5 02 06 12 13 09
  22626838.109     9965172.158 6   7769859.540 1
  21008030.883    -5689636.691 7   2497378.968 3
  23311393.328    -7404539.399 6  -4621822.559 1
  20343100.594   -22248636.222 7     88082.855 1
  20541544.109   -20751264.895 7 -15109444.967 2
 90 10 22 13 33  0.0000000  0  5 02 06 12 13 09
  22632522.766     9995035.293 6
  21013698.656    -5659852.803 7
  23302536.758    -7451070.578 6  -4658080.618 1
  20344128.000   -22243235.860 7     92290.925 1
  20538814.555   -20765607.723 7 -15120621.203 2
 90 10 22 13 33 15.0000000  0  5 02 06 12 13 09
  22638213.398    10024947.337 6
  21019392.188    -5629934.507 7
  23293689.828    -7497562.887 6  -4694308.374 1
  20345176.984   -22237716.405 7     96591.795 1
  20536112.945   -20779811.769 7 -15131689.296 2
 90 10 22 13 33 30.0000000  0  5 02 06 12 13 09
  22643915.906    10054909.781 6   7839784.779 1
  21025110.938    -5599880.722 7   2567318.606 3
  23284851.305    -7544014.556 6  -4730504.474 1
  20346250.992   -22232076.632 7    100986.410 1
  20533435.859   -20793875.473 7 -15142648.032 2
 90 10 22 13 33 45.0000000  0  5 02 06 12 13 09
  22649625.984    10084924.384 6   7863172.734 1
  21030856.836    -5569689.610 7   2590844.122 3
  23276017.719    -7590423.435 6  -4766667.242 1
  20347347.984   -22226314.839 7    105476.117 1
  20530787.430   -20807796.794 7 -15153495.822 2
 90 10 22 13 34  0.0000000  0  5 02 06 12 13 09
  22655347.969    10114991.673 6   7886601.728 1
  21036627.867    -5539360.769 7   2614476.959 3
  23267196.672    -7636788.608 6  -4802795.951 1
  20348467.773   -22220430.670 7    110061.179 1
  20528164.984   -20821574.894 7 -15164232.013 2
 90 10 22 13 34 15.0000000  0  5 02 06 12 13 09
  22661079.672    10145103.413 6   7910065.358 1
  21042423.766    -5508902.760 7   2638210.451 3
  23258379.617    -7683118.013 6  -4838896.784 1
  20349608.750   -22214432.808 7    114734.830 1
  20525569.203   -20835217.782 7 -15174862.840 2
 90 10 22 13 34 30.0000000  0  5 02 06 12 13 09
  22666819.664    10175259.060 6   7933563.206 1
  21048243.109    -5478316.388 7   2662043.963 3
  23249570.758    -7729412.166 6  -4874970.139 1
  20350771.430   -22208322.097 7    119496.411 1
  20522998.656   -20848726.105 7 -15185388.812 2
 90 10 22 13 34 45.0000000  0  5 02 06 12 13 09
  22672573.047    10205507.695 6   7957133.512 1
  21054098.938    -5447552.396 7   2686015.878 3
  23240776.742    -7775621.647 6  -4910977.521 1
  20351965.641   -22202049.360 7    124384.251 1
  20520462.359   -20862050.271 7 -15195771.290 2
 90 10 22 13 35  0.0000000  0  5 02 06 12 13 09
  22678357.375    10235895.840 6   7980812.521 1
  21059994.734    -5416564.595 7   2710162.186 3
  23232009.898    -7821699.485 6  -4946882.342 1
  20353198.906   -22195568.569 7    129434.209 1
  20517970.562   -20875143.429 7 -15205973.760 2
 90 10 22 13 35 15.0000000  0  5 02 06 12 13 09
  22684149.563    10266341.256 6   8004536.166 1
  21065918.242    -5385435.082 7   2734418.923 3
  23223249.414    -7867727.469 6  -4982748.303 1
  20354454.969   -22188962.270 7    134581.970 1
  20515508.914   -20888087.756 7 -15216060.257 2
 90 10 22 13 35 30.0000000  0  5 02 06 12 13 09
  22689951.164    10296828.922 6   8028292.728 1
  21071867.141    -5354179.444 7   2758773.942 3
  23214498.594    -7913720.497 6  -5018587.027 1
  20355733.461   -22182245.621 7    139815.708 1
  20513070.773   -20900898.032 7 -15226042.299 2
 90 10 22 13 35 45.0000000  0  5 02 06 12 13 09
  22695762.398    10327366.922 6   8052088.514 1
  21077839.625    -5322789.429 7   2783233.662 3
  23205754.867    -7959670.029 6  -5054391.860 1
  20357034.320   -22175410.925 7    145141.439 1
  20510659.680   -20913565.823 7 -15235913.318 2
 90 10 22 13 36  0.0000000  0  5 02 06 12 13 09
  22701586.836    10357961.691 6   8075928.525 1
  21083839.133    -5291258.838 7   2807802.925 3
  23197020.930    -8005569.395 6  -5090157.595 1
  20358358.586   -22168451.763 7    150564.153 1
  20508278.492   -20926084.732 7 -15245668.320 2
 90 10 22 13 36 15.0000000  0  5 02 06 12 13 09
  22707416.438    10388614.553 6   8099813.809 1
  21089868.070    -5259586.519 7   2832482.627 3
  23188296.219    -8051416.951 6  -5125882.974 1
  20359706.344   -22161367.084 7    156084.674 1
  20505925.187   -20938453.068 7 -15255305.995 2
 90 10 22 13 36 30.0000000  0  5 02 06 12 13 09
  22713260.258    10419319.270 6   8123739.493 1
  21095918.992    -5227779.099 7   2857267.600 3
  23179579.813    -8097218.740 6  -5161572.664 1
  20361077.320   -22154163.639 7    161697.742 1
  20503597.406   -20950676.904 7 -15264831.072 2
 90 10 22 13 36 45.0000000  0  5 02 06 12 13 09
  22719114.516    10450070.758 6   8147701.632 1
  21101996.758    -5195841.480 7   2882154.028 3
  23170871.117    -8142979.443 6  -5197230.362 1
  20362469.156   -22146846.496 7    167399.399 1
  20501298.391   -20962760.961 7 -15274247.230 2
 90 10 22 13 37  0.0000000  0  5 02 06 12 13 09
  22724976.109    10480872.461 6   8171702.888 1
  21108099.625    -5163770.523 7   2907144.352 3
  23162172.320    -8188695.380 6  -5232853.166 1
  20363885.781   -22139412.563 7    173192.058 1
  20499026.547   -20974701.694 7 -15283551.704 2
 90 10 22 13 37 15.0000000  0  5 02 06 12 13 09
  22730846.023    10511726.487 6   8195744.927 1
  21114229.484    -5131564.145 7   2932240.202 3
  23153480.422    -8234364.017 6  -5268439.122 1
  20365321.594   -22131859.830 7    179077.302 1
  20496782.125   -20986496.810 7 -15292742.716 2
 90 10 22 13 37 30.0000000  0  5 02 06 12 13 09
  22736726.305    10542636.203 6   8219830.355 1
  21120384.523    -5099219.182 7   2957444.040 3
  23144800.773    -8279981.594 6  -5303985.289 1
  20366782.297   -22124185.296 7    185057.450 1
  20494565.266   -20998142.477 7 -15301817.271 2
 90 10 22 13 37 45.0000000  0  5 02 06 12 13 09
  22742619.117    10573595.618 6   8243954.511 1
  21126564.570    -5066741.876 7   2982751.000 3
  23136129.195    -8325554.041 6  -5339496.279 1
  20368264.367   -22116395.170 7    191127.667 1
  20492377.445   -21009644.658 7 -15310780.017 2
 90 10 22 13 38  0.0000000  0  5 02 06 12 13 09
  22748519.414    10604605.238 6   8268117.786 1
  21132770.352    -5034131.818 7   3008161.405 3
  23127465.086    -8371080.223 6  -5374971.229 1
  20369769.563   -22108489.064 7    197288.261 2
  20490215.484   -21021002.603 7 -15319630.374 2
 90 10 22 13 38 15.0000000  0  5 02 06 12 13 09
  22754430.977    10635660.949 6   8292316.978 1
  21138999.852    -5001393.212 7   3033671.974 3
  23118812.070    -8416563.930 6  -5410413.093 1
  20371294.984   -22100471.430 7    203535.760 1
  20488081.031   -21032220.319 7 -15328371.462 2
 90 10 22 13 38 30.0000000  0  5 02 06 12 13 09
  22760350.602    10666770.544 6   8316558.156 1
  21145255.008    -4968518.656 7   3059288.479 3
  23110164.102    -8461997.282 6  -5445815.706 1
  20372843.313   -22092334.867 7    209875.929 1
  20485974.156   -21043289.753 7 -15336997.005 2
 90 10 22 13 38 45.0000000  0  5 02 06 12 13 09
  22766279.305    10697930.136 6   8340838.281 1
  21151536.273    -4935511.893 7   3085008.006 3
  23101528.156    -8507383.745 6  -5481181.784 1
  20374413.305   -22084083.521 7    216305.539 1
  20483895.766   -21054214.537 7 -15345509.831 2
 90 10 22 13 39  0.0000000  0  5 02 06 12 13 09
  22772217.063    10729136.103 6   8365154.555 1
  21157842.297    -4902376.978 7   3110827.391 3
  23092898.734    -8552726.612 6  -5516513.890 1
  20376004.609   -22075721.311 7    222821.542 2
  20481843.039   -21064998.038 7 -15353912.571 2
 90 10 22 13 39 15.0000000  0  5 02 06 12 13 09
  22778165.586    10760394.911 6   8389511.986 1
  21164172.594    -4869107.466 7   3136751.654 3
  23084279.266    -8598019.061 6  -5551806.704 1
  20377617.438   -22067241.865 7    229428.896 1
  20479820.195   -21075633.616 7 -15362200.049 2
 90 10 22 13 39 30.0000000  0  5 02 06 12 13 09
  22784124.070    10791696.659 6   8413902.901 1
  21170527.375    -4835713.363 7   3162772.999 3
  23075668.609    -8643270.529 6  -5587067.596 1
  20379252.828   -22058655.343 7    236119.683 1
  20477821.188   -21086130.961 7 -15370379.805 2
 90 10 22 13 39 45.0000000  0  5 02 06 12 13 09
  22790086.867    10823045.202 6   8438330.280 1
  21176907.500    -4802191.099 7   3188894.213 3
  23067066.492    -8688477.014 6  -5622293.433 1
  20380907.555   -22049958.138 7    242896.721 1
  20475851.102   -21096485.920 7 -15378448.620 2
 90 10 22 13 40  0.0000000  0  5 02 06 12 13 09
  22796067.492    10854448.988 6   8462800.695 1
  21183310.898    -4768532.341 7   3215121.784 3
  23058474.680    -8733629.809 6  -5657477.436 1
  20382584.672   -22041141.964 7    249766.459 2
  20473910.273   -21106689.972 7 -15386399.839 2
 90 10 22 13 40 15.0000000  0  5 02 06 12 13 09
  22802050.367    10885909.755 6   8487315.495 1
  21189743.703    -4734735.625 7   3241456.856 3
  23049892.945    -8778726.790 6  -5692617.946 1
  20384285.594   -22032205.352 7    256730.037 2
  20471997.141   -21116741.126 7 -15394231.919 2
 90 10 22 13 40 30.0000000  0  5 02 06 12 13 09
  22808051.844    10917430.416 6   8511876.980 1
  21196200.938    -4700798.008 7   3267901.726 3
  23041323.539    -8823764.843 6  -5727712.532 1
  20386009.336   -22023146.053 7    263789.224 2
  20470113.875   -21126636.219 7 -15401942.390 2
 90 10 22 13 40 45.0000000  0  5 02 06 12 13 09
  22814056.859    10949006.805 6   8536481.890 1
  21202686.734    -4666723.996 7   3294452.868 3
  23032762.320    -8868747.755 6  -5762764.160 1
  20387756.125   -22013968.011 7    270940.936 1
  20468261.102   -21136379.366 7 -15409534.461 2
 90 10 22 13 41  0.0000000  0  5 02 06 12 13 09
  22820078.258    10980648.206 6   8561137.455 1
  21209197.344    -4632504.535 7   3321117.350 3
  23024217.102    -8913665.777 6  -5797765.214 1
  20389527.133   -22004662.197 7    278192.210 2
  20466436.195   -21145961.003 7 -15417000.683 2
 90 10 22 13 41 15.0000000  0  5 02 06 12 13 09
  22826111.430    11012338.045 6   8585830.765 1
  21215732.305    -4598156.172 7   3347882.273 3
  23015677.102    -8958535.272 6  -5832728.458 1
  20391319.453   -21995245.616 7    285529.794 1
  20464640.711   -21155397.549 7 -15424353.845 2
 90 10 22 13 41 30.0000000  0  5 02 06 12 13 09
  22832151.383    11044081.743 6   8610566.058 1
  21222295.148    -4563673.825 7   3374751.599 3
  23007147.633    -9003350.478 6  -5867649.407 1
  20393132.453   -21985713.318 7    292957.551 1
  20462873.758   -21164683.374 7 -15431589.565 2
 90 10 22 13 41 45.0000000  0  5 02 06 12 13 09
  22838198.484    11075868.792 6   8635335.118 1
  21228881.469    -4529068.218 7   3401716.969 3
  22998627.625    -9048121.628 6  -5902536.024 1
  20394966.422   -21976075.957 7    300467.172 2
  20461133.672   -21173828.918 7 -15438715.974 2
 90 10 22 13 42  0.0000000  0  5 02 06 12 13 09
  22844253.008    11107687.694 6   8660129.001 1
  21235487.305    -4494350.774 7   3428769.489 3
  22990115.820    -9092859.611 6  -5937396.792 1
  20396818.109   -21966345.214 7    308049.561 2
  20459418.023   -21182845.073 7 -15445741.561 2
 90 10 22 13 42 15.0000000  0  5 02 06 12 13 09
  22850325.125    11139597.257 6   8684993.523 1
  21242126.570    -4459463.090 7   3455954.665 3
  22981620.055    -9137505.520 6  -5972185.814 1
  20398699.070   -21956462.564 7    315750.321 2
  20457737.320   -21191673.315 7 -15452620.719 2
 90 10 22 13 42 30.0000000  0  5 02 06 12 13 09
  22856403.633    11171546.083 6   8709888.636 1
  21248788.367    -4424456.679 7   3483232.352 3
  22973131.375    -9182110.471 6  -6006942.929 1
  20400599.234   -21946479.603 7    323529.239 1
  20456083.570   -21200364.682 7 -15459393.226 1
 90 10 22 13 42 45.0000000  0  5 02 06 12 13 09
  22862493.594    11203543.089 6   8734821.287 1
  21255473.711    -4389322.745 7   3510609.409 3
  22964654.148    -9226664.974 6  -6041660.722 1
  20402520.047   -21936387.611 7    331393.119 2
  20454457.945   -21208909.787 7 -15466051.760 2
 90 10 22 13 43  0.0000000  0  5 02 06 12 13 09
  22868595.211    11235603.473 6   8759803.330 1
  21262187.172    -4354046.411 7   3538097.427 3
  22956187.195    -9271153.841 6  -6076327.378 1
  20404463.414   -21926172.022 7    339353.301 2
  20452862.242   -21217293.545 7 -15472584.575 2
 90 10 22 13 43 15.0000000  0  5 02 06 12 13 09
  22874713.102    11267739.571 6   8784844.364 1
  21268928.781    -4318615.543 7   3565705.867 3
  22947736.281    -9315564.370 6  -6110932.990 1
  20406433.734   -21915820.598 7    347419.340 2
  20451300.406   -21225503.638 7 -15478982.060 2
 90 10 22 13 43 30.0000000  0  5 02 06 12 13 09
  22880840.352    11299926.906 6   8809925.320 1
  21275694.594    -4283054.858 7   3593415.458 3
  22939294.586    -9359920.582 6  -6145496.284 1
  20408423.914   -21905358.004 7    355571.996 2
  20449766.445   -21233563.848 7 -15485262.756 2
 90 10 22 13 43 45.0000000  0  5 02 06 12 13 09
  22886972.758    11332163.885 6   8835044.963 1
  21282487.250    -4247365.956 7   3621224.956 3
  22930864.477    -9404223.741 6  -6180018.237 1
  20410436.172   -21894786.087 7    363809.841 2
  20448261.570   -21241475.850 7 -15491427.968 1
 90 10 22 13 44  0.0000000  0  5 02 06 12 13 09
  22893112.438    11364445.597 6   8860199.470 1
  21289302.969    -4211553.672 7   3649130.595 3
  22922444.531    -9448478.330 6  -6214502.334 1
  20412468.000   -21884109.692 7    372129.100 2
  20446782.953   -21249244.240 7 -15497481.270 2
 90 10 22 13 44 15.0000000  0  5 02 06 12 13 09
  22899267.289    11396772.605 6   8885389.279 1
  21296140.859    -4175618.002 7   3677132.376 3
  22914031.758    -9492683.565 6  -6248947.980 1
  20414519.547   -21873328.630 7    380529.919 2
  20445332.125   -21256868.203 7 -15503422.036 2
 90 10 22 13 44 30.0000000  0  5 02 06 12 13 09
  22905428.328    11429152.494 6   8910620.278 1
  21303003.633    -4139551.440 7   3705236.152 3
  22905629.820    -9536831.531 6  -6283349.009 1
  20416592.563   -21862435.719 7    389017.885 2
  20443909.914   -21264340.070 7 -15509244.282 1
 90 10 22 13 44 45.0000000  0  5 02 06 12 13 09
  22911601.164    11461592.130 6   8935897.843 1
  21309894.609    -4103347.343 7   3733447.098 2
  22897242.273    -9580915.151 6  -6317699.878 1
  20418688.008   -21851424.326 7    397598.175 2
  20442518.164   -21271653.004 7 -15514942.682 1
 90 10 22 13 45  0.0000000  0  5 02 06 12 13 09
  22917784.266    11494081.536 6   8961214.190 1
  21316805.875    -4067015.803 7   3761757.348 2
  22888863.211    -9624943.854 6  -6352007.972 1
  20420803.469   -21840304.640 7    406262.853 2
  20441154.875   -21278816.523 7 -15520524.657 1
 90 10 22 13 45 15.0000000  0  5 02 06 12 13 09
  22923976.977    11526628.781 6   8986575.601 1
  21323746.117    -4030549.279 7   3790172.786 2
  22880496.156    -9668909.421 6  -6386266.864 1
  20422940.703   -21829069.215 7    415017.712 2
  20439823.031   -21285822.501 7 -15525983.877 1
 90 10 22 13 45 30.0000000  0  5 02 06 12 13 09
  22930179.078    11559222.948 6   9011973.581 1
  21330708.852    -3993958.553 7   3818685.003 3
  22872139.820    -9712822.386 6  -6420484.776 1
  20425098.641   -21817729.046 7    423854.193 2
  20438518.016   -21292681.641 7 -15531328.678 1
 90 10 22 13 45 45.0000000  0  5 02 06 12 13 09
  22936389.938    11591862.960 6   9037407.266 1
  21337694.844    -3957244.971 7   3847292.954 2
  22863791.844    -9756683.382 6  -6454662.181 1
  20427277.633   -21806285.605 7    432771.143 2
  20437239.641   -21299395.086 7 -15536559.945 1
 90 10 22 13 46  0.0000000  0  5 02 06 12 13 09
  22942610.992    11624553.614 6   9062880.421 1
  21344706.750    -3920403.820 7   3876000.308 2
  22855457.852    -9800487.121 6  -6488794.970 1
  20429475.633   -21794734.137 7    441772.275 2
  20435990.797   -21305957.440 7 -15541673.486 1
 90 10 22 13 46 15.0000000  0  5 02 06 12 13 09
  22948841.820    11657295.222 6   9088393.285 1
  21351740.523    -3883435.178 7   3904807.012 2
  22847134.805    -9844233.177 6  -6522882.816 1
  20431694.008   -21783074.594 7    450857.621 2
  20434770.984   -21312368.197 7 -15546668.899 2
 90 10 22 13 46 30.0000000  0  5 02 06 12 13 09
  22955083.273    11690089.060 6   9113946.848 1
  21358799.445    -3846337.720 7   3933714.084 2
  22838820.789    -9887919.879 6  -6556924.414 1
  20433932.852   -21771305.895 7    460028.021 2
  20433581.422   -21318626.228 7 -15551545.300 1
 90 10 22 13 46 45.0000000  0  5 02 06 12 13 09
  22961333.633    11722938.312 6   9139543.580 1
  21365884.156    -3809108.524 7   3962723.808 2
  22830519.492    -9931543.624 6  -6590916.954 1
  20436194.531   -21759425.161 7    469285.722 2
  20432418.844   -21324727.947 7 -15556299.905 1
 90 10 22 13 47  0.0000000  0  5 02 06 12 13 09
  22967592.219    11755833.280 6   9165175.938 1
  21372993.125    -3771757.840 7   3991828.194 2
  22822227.914    -9975113.937 6  -6624867.853 1
  20438474.680   -21747442.576 7    478622.781 2
  20431285.922   -21330683.001 7 -15560940.222 1
 90 10 22 13 47 15.0000000  0  5 02 06 12 13 09
  22973866.266    11788786.686 6   9190853.840 1
  21380125.930    -3734273.039 7   4021037.084 2
  22813949.992   -10018617.838 6  -6658767.017 1
  20440776.406   -21735345.862 7    488048.775 2
  20430183.148   -21336478.850 7 -15565456.484 1
 90 10 22 13 47 30.0000000  0  5 02 06 12 13 09
  22980143.188    11821776.945 6   9216560.449 1
  21387280.031    -3696675.698 7   4050333.667 2
  22805678.609   -10062076.432 6  -6692630.856 1
  20443096.414   -21723156.614 7    497546.878 2
  20429105.484   -21342136.466 7 -15569865.029 1
 90 10 22 13 47 45.0000000  0  5 02 06 12 13 09
  22986430.633    11854818.427 6   9242306.983 1
  21394459.055    -3658951.559 7   4079729.060 2
  22797421.414   -10105474.940 6  -6726447.886 1
  20445434.961   -21710860.449 7    507128.291 2
  20428058.883   -21347641.274 7 -15574154.508 1
 90 10 22 13 48  0.0000000  0  5 02 06 12 13 09
  22992727.203    11887901.002 6   9268085.528 1
  21401659.563    -3621111.147 7   4109215.054 2
  22789172.273   -10148823.120 6  -6760225.700 1
  20447795.516   -21698467.906 7    516784.802 2
  20427037.633   -21353003.315 7 -15578332.740 1
 90 10 22 13 48 15.0000000  0  5 02 06 12 13 09
  22999032.195    11921041.189 6   9293908.963 1
  21408884.930    -3583138.037 7   4138804.447 2
  22780935.242   -10192104.081 6  -6793951.127 1
  20450173.594   -21685962.847 7    526528.992 2
  20426048.516   -21358205.779 7 -15582386.621 1
 90 10 22 13 48 30.0000000  0  5 02 06 12 13 09
  23005348.195    11954234.867 6   9319774.085 1
  21416136.281    -3545036.418 7   4168493.974 2
  22772712.789   -10235321.605 6  -6827627.131 1
  20452574.539   -21673349.586 7    536357.493 2
  20425087.344   -21363252.764 7 -15586319.352 1
 90 10 22 13 48 45.0000000  0  5 02 06 12 13 09
  23011675.078    11987485.810 6   9345683.826 1
  21423412.734    -3506803.003 7   4198286.202 2
  22764499.711   -10278471.693 6  -6861250.589 1
  20454994.945   -21660624.413 7    546273.204 2
  20424157.828   -21368140.385 7 -15590127.906 2
 90 10 22 13 49  0.0000000  0  5 02 06 12 13 09
  23018016.086    12020796.260 6   9371639.931 1
  21430713.031    -3468435.677 7   4228182.774 2
  22756304.031   -10321551.825 6  -6894819.530 1
  20457439.289   -21647785.585 7    556277.469 2
  20423257.469   -21372866.092 7 -15593810.290 1
 90 10 22 13 49 15.0000000  0  5 02 06 12 13 09
  23024362.609    12054158.001 6   9397636.014 1
  21438038.289    -3429942.922 7   4258177.080 2
  22748117.445   -10364569.832 6  -6928340.069 1
  20459902.078   -21634841.685 7    566363.604 2
  20422388.625   -21377438.064 7 -15597372.882 1
 90 10 22 13 49 30.0000000  0  5 02 06 12 13 09
  23030720.641    12087567.011 6   9423668.932 1
  21445386.813    -3391328.993 7   4288265.813 2
  22739942.875   -10407529.394 6  -6961815.061 1
  20462383.852   -21621797.222 7    576528.106 2
  20421547.438   -21381860.386 7 -15600818.862 1
 90 10 22 13 49 45.0000000  0  5 02 06 12 13 09
  23037090.781    12121028.124 6   9449742.443 1
  21452758.367    -3352589.312 7   4318452.529 2
  22731779.305   -10450425.412 6  -6995240.539 1
  20464886.922   -21608647.401 7    586774.713 2
  20420734.469   -21386127.810 7 -15604144.150 1
 90 10 22 13 50  0.0000000  0  5 02 06 12 13 09
  23043465.023    12154541.508 6   9475856.677 1
  21460154.359    -3313723.872 7   4348737.237 2
  22723628.586   -10493257.300 6  -7028616.050 1
  20467408.680   -21595392.336 7    597103.304 2
  20419952.164   -21390240.045 7 -15607348.503 1
 90 10 22 13 50 15.0000000  0  5 02 06 12 13 09
  23049853.625    12188110.188 6   9502014.010 1
  21467573.297    -3274729.548 7   4379122.374 2
  22715490.438   -10536021.569 6  -7061938.870 1
  20469952.063   -21582029.106 7    607516.194 2
  20419201.648   -21394193.935 7 -15610429.472 1
 90 10 22 13 50 30.0000000  0  5 02 06 12 13 09
  23056254.250    12221743.832 6   9528221.958 1
  21475021.914    -3235597.257 7   4409615.029 2
  22707366.688   -10578708.292 6  -7095201.260 1
  20472515.930   -21568548.661 7    618020.420 2
  20418480.578   -21397979.383 7 -15613379.188 1
 90 10 22 13 50 45.0000000  0  5 02 06 12 13 09
  23062663.641    12255415.767 6   9554459.749 1
  21482488.430    -3196353.545 7   4440194.494 2
  22699255.570   -10621343.524 6  -7128423.534 1
  20475099.555   -21554977.409 7    628595.401 2
  20417785.383   -21401623.006 7 -15616218.392 1
 90 10 22 13 51  0.0000000  0  5 02 06 12 13 09
  23069082.984    12289146.225 6   9580743.134 1
  21489982.188    -3156978.563 7   4470876.253 2
  22691155.516   -10663906.951 6  -7161589.855 1
  20477703.336   -21541295.492 7    639256.617 2
  20417123.133   -21405104.574 7 -15618931.318 1
 90 10 22 13 51 15.0000000  0  5 02 06 12 13 09
  23075509.953    12322933.007 6   9607070.403 1
  21497499.133    -3117474.898 7   4501658.277 2
  22683070.484   -10706400.551 6  -7194701.758 1
  20480327.352   -21527505.851 7    650001.774 2
  20416491.203   -21408426.275 7 -15621519.675 1
 90 10 22 13 51 30.0000000  0  5 02 06 12 13 09
  23081950.086    12356780.150 6   9633444.717 1
  21505042.609    -3077838.672 7   4532543.602 2
  22674996.125   -10748819.726 6  -7227755.670 1
  20482972.664   -21513604.355 7    660834.091 2
  20415891.047   -21411583.824 7 -15623980.122 2
 90 10 22 13 51 45.0000000  0  5 02 06 12 13 09
  23088401.992    12390672.844 6   9659854.516 1
  21512605.555    -3038084.636 7   4563520.725 2
  22666936.664   -10791178.988 6  -7260762.906 1
  20485636.391   -21499606.065 7    671741.830 2
  20415318.406   -21414591.729 7 -15626323.959 1
 90 10 22 13 52  0.0000000  0  5 02 06 12 13 09
  23094860.883    12424612.912 6   9686301.232 1
  21520193.813    -2998211.557 7   4594590.611 2
  22658888.102   -10833476.360 6  -7293721.914 1
  20488319.156   -21485509.666 7    682726.022 2
  20414774.313   -21417448.214 7 -15628549.815 2
 90 10 22 13 52 15.0000000  0  5 02 06 12 13 09
  23101327.234    12458596.424 6   9712781.798 1
  21527804.055    -2958223.416 7   4625750.153 2
  22650849.758   -10875715.171 6  -7326635.282 1
  20491019.250   -21471319.322 7    693783.411 2
  20414258.563   -21420156.897 7 -15630660.491 2
 90 10 22 13 52 30.0000000  0  5 02 06 12 13 09
  23107803.547    12492629.541 6   9739301.011 1
  21535436.438    -2918114.288 7   4657003.964 2
  22642823.945   -10917889.010 6  -7359498.029 1
  20493738.945   -21457029.071 7    704918.654 2
  20413773.891   -21422711.427 7 -15632651.054 1
 90 10 22 13 52 45.0000000  0  5 02 06 12 13 09
  23114291.094    12526722.766 6   9765867.076 1
  21543094.172    -2877873.790 7   4688360.148 2
  22634813.695   -10959986.906 6  -7392301.604 1
  20496478.930   -21442628.549 7    716139.819 2
  20413318.164   -21425101.395 7 -15634513.384 1
 90 10 22 13 53  0.0000000  0  5 02 06 12 13 09
  23120789.664    12560869.407 6   9792474.758 1
  21550774.898    -2837508.849 7   4719813.299 2
  22626816.039   -11002015.182 6  -7425050.918 1
  20499239.391   -21428124.803 7    727441.418 2
  20412893.523   -21427332.996 7 -15636252.316 1
 90 10 22 13 53 15.0000000  0  5 02 06 12 13 09
  23127298.125    12595073.747 6   9819127.394 1
  21558480.711    -2797015.537 7   4751366.483 2
  22618832.523   -11043969.419 6  -7457742.549 1
  20502019.664   -21413513.941 7    738826.483 2
  20412500.227   -21429402.046 7 -15637864.591 1
 90 10 22 13 53 30.0000000  0  5 02 06 12 13 09
  23133817.070    12629330.597 6   9845820.950 1
  21566209.109    -2756399.101 7   4783015.610 2
  22610862.031   -11085854.350 6  -7490380.175 1
  20504818.977   -21398801.128 7    750290.991 2
  20412137.492   -21431313.674 7 -15639354.190 1
 90 10 22 13 53 45.0000000  0  5 02 06 12 13 09
  23140347.305    12663649.157 6   9872562.597 1
  21573964.656    -2715650.935 7   4814767.380 2
  22602905.805   -11127660.504 6  -7522956.416 1
  20507640.297   -21383977.870 7    761841.568 2
  20411804.359   -21433058.470 7 -15640713.789 1
 90 10 22 13 54  0.0000000  0  5 02 06 12 13 09
  23146887.313    12698021.439 6   9899346.100 1
  21581742.039    -2674778.994 7   4846615.599 2
  22594963.664   -11169395.337 6  -7555477.074 1
  20510480.117   -21369052.157 7    773471.975 2
  20411502.328   -21434644.236 7 -15641949.474 1
 90 10 22 13 54 15.0000000  0  5 02 06 12 13 09
  23153438.086    12732435.329 6   9926162.021 1
  21589541.734    -2633795.445 7   4878550.780 2
  22587033.352   -11211070.650 6  -7587951.364 1
  20513336.961   -21354036.249 7    785172.661 2
  20411229.023   -21436082.910 7 -15643070.538 1
 90 10 22 13 54 30.0000000  0  5 02 06 12 13 09
  23159990.664    12766879.127 5   9953001.244 1
  21597358.570    -2592712.428 7   4910563.475 2
  22579112.289   -11252697.869 6  -7620388.172 1
  20516209.414   -21338942.437 7    796934.050 2
  20410980.719   -21437386.220 7 -15644086.128 1
 90 10 22 13 54 45.0000000  0  5 02 06 12 13 09
  23166553.914    12801378.810 5   9979884.020 1
  21605200.453    -2551504.182 7   4942673.750 2
  22571205.523   -11294250.614 6  -7652766.947 1
  20519102.578   -21323744.947 7    808776.227 2
  20410761.961   -21438527.873 7 -15644975.749 2
 90 10 22 13 55  0.0000000  0  5 02 06 12 13 09
  23173134.117    12835945.956 5  10006819.355 1
  21613067.898    -2510159.362 7   4974890.443 2
  22563313.320   -11335716.992 6  -7685078.429 1
  20522015.867   -21308432.172 7    820708.240 2
  20410579.258   -21439496.237 7 -15645730.337 2
 90 10 22 13 55 15.0000000  0  5 02 06 12 13 09
  23179722.820    12870568.059 5  10033797.528 1
  21620959.141    -2468690.498 7   5007203.791 2
  22555437.805   -11377109.010 6  -7717331.964 1
  20524950.195   -21293016.958 7    832720.071 2
  20410424.766   -21440303.611 7 -15646359.477 1
 90 10 22 13 55 30.0000000  0  5 02 06 12 13 09
  23186322.023    12905247.157 5  10060820.114 1
  21628874.313    -2427096.080 7   5039614.982 2
  22547575.000   -11418424.399 6  -7749525.790 1
  20527902.672   -21277497.705 7    844812.971 2
  20410305.867   -21440948.130 7 -15646861.727 1
 90 10 22 13 55 45.0000000  0  5 02 06 12 13 09
  23192933.328    12939982.340 5  10087886.379 1
  21636812.633    -2385377.240 7   5072123.120 2
  22539727.547   -11459663.874 6  -7781660.459 1
  20530875.492   -21261875.871 7    856985.808 2
  20410208.867   -21441430.336 7 -15647237.493 1
 90 10 22 13 56  0.0000000  0  5 02 06 12 13 09
  23199550.797    12974768.187 5  10114992.137 1
  21644774.047    -2343539.429 7   5104723.960 2
  22531894.547   -11500832.335 6  -7813739.798 1
  20533866.172   -21246156.698 7    869234.490 2
  20410150.492   -21441755.357 7 -15647490.779 1
 90 10 22 13 56 15.0000000  0  5 02 06 12 13 09
  23206180.625    13009602.767 6  10142135.866 1
  21652758.602    -2301584.958 7   5137415.706 2
  22524073.344   -11541931.414 6  -7845765.068 1
  20536875.961   -21230342.747 7    881557.026 2
  20410118.102   -21441925.312 7
 90 10 22 13 56 30.0000000  0  5 02 06 12 13 09
  23212819.648    13044482.674 6  10169314.918 1
  21660763.195    -2259517.449 7   5170195.530 2
  22516265.039   -11582964.158 6  -7877738.654 1
  20539902.516   -21214437.729 7    893950.525 2
  20410115.016   -21441943.369 7
 90 10 22 13 56 45.0000000  0  5 02 06 12 13 09
  23219467.055    13079416.519 5  10196535.990 1
  21668792.438    -2217328.563 7   5203069.934 2
  22508471.172   -11623921.530 6  -7909653.503 1
  20542948.211   -21198433.075 7    906421.664 2
  20410141.000   -21441800.896 7
 90 10 22 13 57  0.0000000  0  5 02 06 12 13 09
  23226120.602    13114394.228 6  10223791.251 1
  21676842.258    -2175028.474 7   5236030.986 2
  22500689.750   -11664813.124 6  -7941517.097 1
  20546010.359   -21182338.938 7    918962.529 2
  20410198.602   -21441507.648 7
 90 10 22 13 57 15.0000000  0  5 02 06 12 13 09
  23232787.953    13149430.450 6  10251092.099 1
  21684915.055    -2132602.627 7   5269090.048 2
  22492923.852   -11705623.971 6  -7973317.777 1
  20549093.227   -21166141.199 7    931584.120 2
  20410282.063   -21441048.943 7
 90 10 22 13 57 30.0000000  0  5 02 06 12 13 09
  23239465.797    13184514.438 6  10278430.188 1
  21693009.547    -2090062.311 7   5302238.297 2
  22485170.398   -11746364.554 6  -8005063.702 1
  20552193.141   -21149850.911 7    944277.827 2
  20410399.930   -21440435.220 7        -0.23011
 90 10 22 13 57 45.0000000  0  5 02 06 12 13 09
  23246151.867    13219639.568 6  10305800.322 1
  21701125.969    -2047414.269 7   5335470.482 2
  22477431.227   -11787041.070 6  -8036759.700 1
  20555309.664   -21133474.929 7    957038.313 2
  20410544.469   -21439673.174 7       593.548 2
 90 10 22 13 58  0.0000000  0  5 02 06 12 13 09
  23252844.586    13254813.745 6  10333208.667 1
  21709264.008    -2004651.085 7   5368792.397 2
  22469703.586   -11827645.411 6  -8068399.464 1
  20558443.406   -21117005.649 7    969871.496 2
  20410720.320   -21438755.059 7      1308.942 1
 90 10 22 13 58 15.0000000  0  5 02 06 12 13 09
  23259546.117    13290033.465 6  10360652.508 1
  21717422.359    -1961776.109 6   5402201.416 2
  22461989.234   -11868180.504 6  -8099985.268 1
  20561594.719   -21100446.718 7    982774.535 2
  20410926.008   -21437683.852 7      2143.628 1
 90 10 22 13 58 30.0000000  0  5 02 06 12 13 09
  23266257.273    13325302.292 6  10388134.619 1
  21725602.641    -1918786.267 6   5435699.942 2
  22454289.602   -11908642.611 6  -8131514.205 1
  20564762.734   -21083794.791 7    995750.040 2
  20411158.844   -21436455.910 7      3100.441 1
 90 10 22 13 58 45.0000000  0  5 02 06 12 13 09
  23272977.953    13360622.881 6  10415657.051 1
  21733806.430    -1875678.940 6   5469290.015 2
  22446605.438   -11949028.492 6  -8162983.745 1
  20567949.836   -21067047.527 7   1008799.831 2
  20411422.820   -21435068.608 7      4181.437 1
 90 10 22 13 59  0.0000000  0  5 02 06 12 13 09
  23279709.844    13395990.968 6  10443216.501 1
  21742031.023    -1832458.775 6   5502968.014 2
  22438935.117   -11989342.202 6  -8194397.044 1
  20571153.586   -21050209.685 7   1021920.202 2
  20411716.359   -21433526.163 7      5383.319 1
 90 10 22 13 59 15.0000000  0  5 02 06 12 13 09
  23286451.227    13431419.930 5  10470823.387 1
  21750279.641    -1789112.468 6   5536744.301 2
  22431278.031   -12029569.810 6  -8225743.250 1
  20574377.641   -21033267.921 7   1035121.554 2
  20412042.055   -21431814.838 7      6716.802 1
 90 10 22 13 59 30.0000000  0  5 02 06 12 13 09
  23293201.992    13466906.373 5  10498475.051 1
  21758551.523    -1745643.862 6   5570615.893 2
  22423639.398   -12069714.519 6  -8257024.861 1
  20577621.305   -21016225.924 7   1048401.014 2
  20412398.320   -21429937.932 7      8179.297 2
 90 10 22 13 59 45.0000000  0  5 02 06 12 13 09
  23299964.273    13502450.782 5  10526171.890 1
  21766845.930    -1702052.553 6   5604583.086 2
  22416015.930   -12109775.509 6  -8288241.232 1
  20580882.992   -20999083.708 7   1061758.562 2
  20412787.016   -21427895.106 7      9771.091 1
 90 10 22 14  0  0.0000000  0  5 02 06 12 13 09
  23306740.148    13538037.742 5  10553901.870 1
  21775161.352    -1658354.494 6   5638633.469 2
  22408405.219   -12149767.878 6  -8319404.140 1
  20584162.516   -20981856.752 7   1075182.141 2
  20413204.422   -21425701.679 7     11480.235 2
 90 10 22 14  0 15.0000000  0  5 02 06 12 13 09
  23313520.656    13573673.840 6  10581670.145 1
  21783499.117    -1614543.185 6   5672772.100 2
  22400810.477   -12189684.675 6  -8350508.148 1
  20587456.781   -20964538.991 7   1088676.480 2
  20413653.109   -21423350.824 7     13312.043 1
 90 10 22 14  0 30.0000000  0  5 02 06 12 13 09
  23320311.789    13609362.070 6  10609479.050 1
  21791858.828    -1570615.856 6   5707001.136 2
  22393228.492   -12229522.576 6  -8381550.687 1
  20590771.125   -20947127.675 7   1102243.712 2
  20414129.648   -21420839.427 7     15268.949 1
 90 10 22 14  0 45.0000000  0  5 02 06 12 13 09
  23327117.086    13645110.781 6  10637335.082 1
  21800240.477    -1526564.429 6   5741326.862 2
  22385666.438   -12269272.809 6  -8412524.911 1
  20594102.398   -20929614.461 7   1115890.352 2
  20414641.203   -21418159.218 7     17357.402 1
 90 10 22 14  1  0.0000000  0  5 02 06 12 13 09
  23333927.508    13680913.892 6  10665233.503 1
  21808645.531    -1482395.198 6   5775744.387 2
  22378115.758   -12308941.073 6  -8443435.263 1
  20597453.617   -20912005.839 7   1129611.334 2
  20415181.758   -21415316.023 7     19572.858 1
 90 10 22 14  1 15.0000000  0  5 02 06 12 13 09
  23340751.172    13716769.036 6  10693172.477 1
  21817072.711    -1438110.890 6   5810251.591 2
  22370583.328   -12348529.509 6  -8474283.419 1
  20600821.883   -20894304.624 7   1143404.466 2
  20415752.469   -21412312.052 7     21913.587 1
 90 10 22 14  1 30.0000000  0  5 02 06 12 13 09
  23347584.555    13752679.928 6  10721154.890 1
  21825522.578    -1393707.879 6   5844851.288 2
  22363064.883   -12388033.891 6  -8505066.066 1
  20604208.813   -20876507.194 7   1157272.567 2
  20416356.492   -21409143.666 7     24382.436 1
 90 10 22 14  1 45.0000000  0  5 02 06 12 13 09
  23354428.438    13788642.924 6  10749177.912 1
  21833993.281    -1349190.114 6   5879540.399 2
  22355562.391   -12427457.570 6  -8535785.836 1
  20607613.781   -20858617.399 7   1171212.641 1
  20416989.469   -21405814.245 7     26976.765 1
 90 10 22 14  2  0.0000000  0  5 02 06 12 13 09
  23361287.117    13824681.761 6  10777260.014 1
  21842492.445    -1304534.014 6   5914337.314 2
  22348081.422   -12466776.254 6  -8566423.790 1
  20611039.500   -20840611.657 7   1185243.064 2
  20417658.758   -21402299.809 7     29715.264 1
 90 10 22 14  2 15.0000000  0  5 02 06 12 13 09
  23368150.016    13860750.720 6  10805365.587 1
  21851006.969    -1259785.557 6   5949206.187 2
  22340610.195   -12506035.309 6  -8597015.279 1
  20614478.836   -20822536.138 7   1199327.858 2
  20418353.953   -21398646.241 7     32562.180 1
 90 10 22 14  2 30.0000000  0  5 02 06 12 13 09
  23375023.547    13896875.296 6  10833514.518 1
  21859545.086    -1214919.670 6   5984166.556 2
  22333155.703   -12545208.968 6  -8627540.224 1
  20617937.500   -20804365.682 7   1213486.631 2
  20419080.242   -21394828.058 7     35537.365 2
 90 10 22 14  2 45.0000000  0  5 02 06 12 13 09
  23381907.586    13933046.323 6  10861699.625 1
  21868103.766    -1169945.641 6   6019211.206 2
  22325715.578   -12584306.012 6  -8658005.464 1
  20621410.406   -20786109.671 7   1227712.070 2
  20419836.320   -21390854.083 7     38633.942 1
 90 10 22 14  3  0.0000000  0  5 02 06 12 13 09
  23388803.086    13969273.359 6  10889928.382 1
  21876683.563    -1124854.225 6   6054347.315 2
  22318292.867   -12623316.540 6  -8688403.298 1
  20624903.891   -20767758.782 7   1242011.437 2
  20420624.039   -21386714.705 7     41859.410 1
 90 10 22 14  3 15.0000000  0  5 02 06 12 13 09
  23395706.742    14005547.931 6  10918194.183 1
  21885284.859    -1079654.260 6   6089568.015 2
  22310884.500   -12662248.790 6  -8718740.136 1
  20628411.602   -20749321.832 7   1256377.869 2
  20421442.719   -21382418.520 7     45207.065 1
 90 10 22 14  3 30.0000000  0  5 02 06 12 13 09
  23402617.320    14041872.927 6  10946499.266 1
  21893907.477    -1034342.924 6   6124875.493 2
  22303491.516   -12701099.359 6  -8749013.327 1
  20631936.320   -20730796.236 7   1270813.370 2
  20422289.688   -21377962.488 7     48679.276 1
 90 10 22 14  3 45.0000000  0  5 02 06 12 13 09
  23409540.211    14078249.674 6  10974844.686 1
  21902551.266     -988919.233 6   6160270.528 2
  22296113.945   -12739866.603 6  -8779221.585 1
  20635479.602   -20712181.043 7   1285318.692 2
  20423168.633   -21373345.025 7     52277.272 1
 90 10 22 14  4  0.0000000  0  5 02 06 12 13 09
  23416469.180    14114665.137 5  11003220.255 1
  21911214.672     -943396.373 6   6195742.830 2
  22288751.773   -12778563.111 6  -8809374.729 1
  20639035.961   -20693489.383 7   1299883.595 2
  20424074.688   -21368579.127 7     55990.934 2
 90 10 22 14  4 15.0000000  0  5 02 06 12 13 09
  23423411.031    14151148.080 5  11031648.413 1
  21919901.555     -897746.111 6   6231314.407 2
  22281405.055   -12817159.881 6  -8839450.154 1
  20642612.383   -20674692.831 7   1314530.233 2
  20425015.805   -21363636.263 7     59842.492 1
 90 10 22 14  4 30.0000000  0  5 02 06 12 13 09
  23430362.719    14187679.362 5  11060114.252 1
  21928608.602     -851987.492 6   6266970.423 2
  22274076.398   -12855675.517 6  -8869462.354 1
  20646206.039   -20655810.615 7   1329243.619 2
  20425986.477   -21358535.242 7     63817.287 1
 90 10 22 14  4 45.0000000  0  5 02 06 12 13 09
  23437322.563    14224247.025 5  11088608.435 1
  21937334.133     -806132.864 6   6302701.246 2
  22266760.680   -12894121.573 6  -8899420.340 1
  20649812.984   -20636854.994 7   1344014.209 2
  20426985.719   -21353287.766 7     67906.199 1
 90 10 22 14  5  0.0000000  0  5 02 06 12 13 09
  23444292.000    14260870.402 5  11117146.021 1
  21946082.734     -760163.321 6   6338521.613 2
  22259461.523   -12932478.619 6  -8929308.968 1
  20653437.727   -20617807.137 7   1358856.664 2
  20428015.391   -21347874.762 7     72124.099 1
 90 10 22 14  5 15.0000000  0  5 02 06 12 13 09
  23451278.805    14297570.596 5  11145743.452 1
  21954855.961     -714057.939 6   6374447.826 2
  22252183.000   -12970725.069 6  -8959111.413 1
  20657083.953   -20598646.067 7   1373787.342 2
  20429081.211   -21342274.910 7     76487.593 1
 90 10 22 14  5 30.0000000  0  5 02 06 12 13 09
  23458270.688    14334332.603 5  11174389.062 1
  21963653.125     -667832.028 6   6410467.964 2
  22244922.664   -13008875.431 6  -8988838.987 2
  20660749.000   -20579387.329 7   1388794.121 2
  20430179.117   -21336503.233 7     80984.977 1
 90 10 22 14  5 45.0000000  0  5 02 06 12 13 09
  23465272.406    14371133.055 5  11203064.627 1
  21972467.578     -621509.212 6   6446563.609 2
  22237677.828   -13046952.970 6  -9018509.811 1
  20664428.281   -20560054.295 7   1403858.790 2
  20431306.445   -21330583.117 7     85598.031 1
 90 10 22 14  6  0.0000000  0  5 02 06 12 13 09
  23472282.953    14407972.814 5  11231770.817 1
  21981301.383     -575088.806 6   6482735.297 2
  22230446.008   -13084956.271 7  -9048122.793 2
  20668121.211   -20540646.420 7   1418981.781 2
  20432461.438   -21324513.289 7     90327.740 2
 90 10 22 14  6 15.0000000  0  5 02 06 12 13 09
  23479305.656    14444860.811 5  11260514.618 1
  21990155.555     -528561.995 6   6518989.904 2
  22223230.453   -13122875.961 7  -9077670.620 2
  20671831.344   -20521154.744 7   1434170.073 2
  20433645.656   -21318284.910 7     95181.000 2
 90 10 22 14  6 30.0000000  0  5 02 06 12 13 09
  23486333.211    14481798.766 5  11289297.328 1
  21999029.875     -481927.369 6   6555328.522 2
  22216029.938   -13160709.919 7  -9107151.644 2
  20675555.922   -20501578.023 7   1449424.632 2
  20434862.734   -21311895.981 7    100159.360 1
 90 10 22 14  6 45.0000000  0  5 02 06 12 13 09
  23493373.258    14518782.170 5  11318115.451 1
  22007924.133     -435189.689 6   6591747.437 2
  22208846.563   -13198462.324 7  -9136569.123 1
  20679297.133   -20481920.892 7   1464741.844 2
  20436108.297   -21305351.145 7    105259.204 1
 90 10 22 14  7  0.0000000  0  5 02 06 12 13 09
  23500420.000    14555819.761 5  11346975.814 1
  22016839.148     -388340.674 6   6628253.104 2
  22201679.313   -13236124.112 7  -9165915.984 2
  20683053.750   -20462175.124 7   1480128.130 2
  20437383.914   -21298641.694 7    110487.322 2
 90 10 22 14  7 15.0000000  0  5 02 06 12 13 09
  23507474.836    14592908.936 5  11375876.366 1
  22025774.508     -341383.090 6   6664843.373 2
  22194529.750   -13273697.505 7  -9195193.970 2
  20686828.320   -20442343.707 7   1495581.150 2
  20438691.383   -21291770.007 7    115841.856 1
 90 10 22 14  7 30.0000000  0  5 02 06 12 13 09
  23514541.805    14630048.965 5  11404816.533 1
  22034730.922     -294318.053 6   6701517.371 2
  22187396.672   -13311183.009 7  -9224403.470 2
  20690618.063   -20422427.715 7   1511100.079 2
  20440029.914   -21284736.717 7    121322.318 1
 90 10 22 14  7 45.0000000  0  5 02 06 12 13 09
  23521621.688    14667246.592 5  11433801.585 1
  22043708.102     -247139.124 6   6738280.117 2
  22180281.516   -13348573.567 7  -9253538.981 2
  20694425.656   -20402420.534 7   1526690.060 2
  20441401.117   -21277535.535 7    126933.599 1
 90 10 22 14  8  0.0000000  0  5 02 06 12 13 09
  23528710.031    14704481.188 5  11462815.446 1
  22052704.117     -199866.995 6   6775115.486 2
  22173180.898   -13385889.196 7  -9282616.115 2
  20698246.047   -20382342.985 7   1542334.875 2
  20442799.211   -21270186.607 7    132660.011 1
 90 10 22 14  8 15.0000000  0  5 02 06 12 13 09
  23535804.430    14741760.341 5  11491864.025 1
  22061718.594     -152494.542 6   6812029.029 2
  22166095.523   -13423122.054 7  -9311628.746 2
  20702081.313   -20362187.972 7   1558040.053 2
  20444227.516   -21262682.245 7    138507.546 1
 90 10 22 14  8 30.0000000  0  5 02 06 12 13 09
  23542909.039    14779091.739 5  11520953.308 1
  22070753.883     -105014.080 6   6849026.737 1
  22159028.203   -13460263.913 7  -9340570.470 1
  20705933.250   -20341947.749 7   1573811.626 2
  20445686.633   -21255014.663 7    144482.265 2
 90 10 22 14  8 45.0000000  0  5 02 06 12 13 09
  23550022.266    14816477.658 5  11550085.101 1
  22079810.109      -57423.655 6   6886110.129 2
  22151977.570   -13497312.176 7  -9369439.265 2
  20709800.875   -20321620.469 7   1589651.034 2
  20447177.180   -21247181.643 7    150585.892 1
 90 10 22 14  9  0.0000000  0  5 02 06 12 13 09
  23557143.430    14853906.535 5  11579250.360 1
  22088884.914       -9735.234 6   6923269.872 2
  22144942.211   -13534278.117 7  -9398243.912 2
  20713683.547   -20301217.935 7   1605549.083 2
  20448696.891   -21239194.873 7    156809.320 2
 90 10 22 14  9 15.0000000  0  5 02 06 12 13 09
  23564273.789    14891373.786 5  11608445.538 1
  22097977.406       38046.337 6   6960502.206 2
  22137923.625   -13571165.873 7  -9426987.635 2
  20717579.375   -20280744.842 7   1621502.113 2
  20450244.984   -21231058.709 7    163149.161 1
 90 10 22 14  9 30.0000000  0  5 02 06 12 13 09
  23571414.141    14928905.906 5  11637691.229 1
  22107093.508       85947.464 6   6997827.707 2
  22130924.156   -13607948.434 7  -9455649.389 2
  20721493.656   -20260174.904 7   1637530.604 2
  20451825.891   -21222746.362 7    169626.288 1
 90 10 22 14  9 45.0000000  0  5 02 06 12 13 09
  23578568.117    14966495.550 5  11666981.747 1
  22116229.297      133960.469 6   7035240.375 1
  22123943.969   -13644632.850 7  -9484234.665 2
  20725424.609   -20239515.967 7   1653628.449 2
  20453440.719   -21214265.362 7    176234.836 2
 90 10 22 14 10  0.0000000  0  5 02 06 12 13 09
  23585732.289    15004139.081 5  11696314.266 1
  22125386.367      182081.318 6   7072737.081 1
  22116980.273   -13681222.432 7  -9512746.048 2
  20729373.188   -20218771.840 7   1669792.672 2
  20455086.484   -21205619.359 7    182971.958 1
 90 10 22 14 10 15.0000000  0  5 02 06 12 13 09
  23592904.531    15041834.998 5  11725687.598 1
  22134563.789      230308.292 6   7110316.482 2
  22110036.195   -13717718.448 7  -9541184.521 2
  20733336.133   -20197944.457 7   1686021.771 2
  20456762.422   -21196809.840 7    189836.492 1
 90 10 22 14 10 30.0000000  0  5 02 06 12 13 09
  23600088.508    15079572.524 5  11755093.332 1
  22143759.453      278630.308 6   7147969.946 1
  22103106.641   -13754131.325 7  -9569558.213 2
  20737313.172   -20177044.814 7   1702307.181 2
  20458468.125   -21187847.393 7    196820.193 2
 90 10 22 14 10 45.0000000  0  5 02 06 12 13 09
  23607279.148    15117359.583 5  11784537.704 1
  22152974.406      327055.130 6   7185703.508 1
  22096194.945   -13790452.509 7  -9597860.454 2
  20741304.758   -20156065.050 7   1718655.021 2
  20460203.891   -21178724.081 7    203929.244 1
 90 10 22 14 11  0.0000000  0  5 02 06 12 13 09
  23614477.281    15155184.256 5  11814011.364 1
  22162206.094      375570.500 6   7223507.642 1
  22089299.336   -13826693.725 7  -9626100.385 2
  20745309.594   -20135017.560 7   1735055.632 2
  20461969.477   -21169451.949 7    211154.257 1
 90 10 22 14 11 15.0000000  0  5 02 06 12 13 09
  23621689.344    15193098.537 5  11843554.856 1
  22171465.789      424228.103 6   7261422.600 1
  22082426.805   -13862802.570 7  -9654237.164 2
  20749338.656   -20113850.554 7   1751549.372 2
  20463771.414   -21159978.654 7    218536.019 2
 90 10 22 14 11 30.0000000  0  5 02 06 12 13 09
  23628924.281    15231108.966 5  11873173.266 1
  22180753.375      473034.296 6   7299453.338 1
  22075581.914   -13898772.115 7  -9682265.403 2
  20753390.375   -20092557.714 7   1768141.166 2
  20465613.555   -21150297.717 7    226079.584 1
 90 10 22 14 11 45.0000000  0  5 02 06 12 13 09
  23636166.844    15269164.947 5  11902827.172 1
  22190059.703      521938.037 6   7337560.092 1
  22068753.508   -13934652.613 7  -9710224.261 2
  20757456.719   -20071190.044 7   1784791.274 2
  20467485.445   -21140459.964 7    233745.341 1
 90 10 22 14 12  0.0000000  0  5 02 06 12 13 09
  23643414.570    15307264.610 5  11932515.108 1
  22199384.063      570937.427 6   7375741.377 1
  22061942.852   -13970445.561 7  -9738114.890 2
  20761536.445   -20049749.516 7   1801498.151 2
  20469387.539   -21130467.036 7    241532.014 1
 90 10 22 14 12 15.0000000  0  5 02 06 12 13 09
  23650677.484    15345411.744 5  11962240.025 1
  22208728.297      620035.869 6   7413999.842 1
  22055150.203   -14006146.733 7  -9765934.005 2
  20765631.359   -20028232.525 7   1818264.611 2
  20471318.641   -21120315.032 7    249442.641 1
 90 10 22 14 12 30.0000000  0  5 02 06 12 13 09
  23657937.594    15383581.582 5  11991982.644 1
  22218084.930      669208.296 6   7452315.958 1
  22048369.500   -14041780.573 7  -9793700.656 2
  20769735.227   -20006664.231 7   1835071.042 2
  20473276.641   -21110028.587 7    257458.028 1
 90 10 22 14 12 45.0000000  0  5 02 06 12 13 09
  23665214.547    15421812.671 5  12021772.984 1
  22227463.180      718493.137 6   7490719.675 1
  22041607.844   -14077307.999 7  -9821384.388 2
  20773856.406   -19985006.304 7   1851947.323 2
  20475267.141   -21099569.288 7    265608.109 2
 90 10 22 14 13  0.0000000  0  5 02 06 12 13 09
  23672495.438    15460085.588 5  12051595.911 1
  22236860.039      767870.471 6   7529195.459 1
  22034864.477   -14112748.271 7  -9849000.209 2
  20777992.836   -19963278.676 7   1868877.913 2
  20477285.633   -21088956.748 7    273877.594 1
 90 10 22 14 13 15.0000000  0  5 02 06 12 13 09
  23679786.344    15498394.778 5  12081447.114 1
  22246272.727      817334.375 6   7567738.699 1
  22028135.227   -14148106.569 7  -9876552.152 2
  20782138.586   -19941487.178 7   1885858.273 2
  20479333.695   -21078196.310 7    282262.323 2
 90 10 22 14 13 30.0000000  0  5 02 06 12 13 09
  23687080.406    15536716.321 5  12111307.939 1
  22255696.438      866860.961 6   7606330.782 1
  22021418.617   -14183406.202 7  -9904058.390 2
  20786293.180   -19919655.471 7   1902869.967 2
  20481405.484   -21067311.841 7    290743.701 2
 90 10 22 14 13 45.0000000  0  5 02 06 12 13 09
  23694366.586    15575004.178 5  12141142.511 1
  22265124.867      916403.848 6   7644935.561 1
  22014703.102   -14218692.859 7  -9931554.505 2
  20790446.188   -19897830.242 7   1919876.612 2
  20483491.727   -21056349.143 7    299286.030 2
 90 10 22 14 14  0.0000000  0  5 02 06 12 13 09
  23701651.250    15613286.811 5  12170973.031 1
  22274560.070      965991.069 6   7683574.897 1
  22007996.844   -14253937.945 7  -9959018.227 2
  20794603.047   -19875983.184 7   1936900.264 2
  20485598.586   -21045280.018 7    307911.292 2
 90 10 22 14 14 15.0000000  0  5 02 06 12 13 09
  23708951.898    15651646.375 5  12200863.485 1
  22284020.609     1015704.640 6   7722312.681 1
  22001313.516   -14289058.732 7  -9986385.096 2
  20798780.609   -19854032.394 7   1954004.748 2
  20487739.719   -21034022.177 7    316683.604 2
 90 10 22 14 14 30.0000000  0  5 02 06 12 13 09
  23716258.898    15690050.573 5  12230788.714 1
  22293499.117     1065511.986 6   7761123.539 1
  21994647.641   -14324087.136 7 -10013679.978 2
  20802971.266   -19832010.347 7   1971164.757 2
  20489911.938   -21022607.742 7    325577.941 2
 90 10 22 14 14 45.0000000  0  5 02 06 12 13 09
  23723576.383    15728504.544 5  12260752.731 1
  22302996.508     1115417.954 6   7800011.246 1
  21987999.953   -14359017.751 7 -10040898.666 2
  20807176.039   -19809912.100 7   1988384.140 2
  20492114.117   -21011031.840 7    334598.095 2
 90 10 22 14 15  0.0000000  0  5 02 06 12 13 09
  23730899.758    15766994.719 5  12290744.958 1
  22312509.586     1165408.597 6   7838964.935 1
  21981369.836   -14393863.736 7 -10068051.397 2
  20811392.781   -19787751.829 7   2005651.857 2
  20494346.453   -20999307.963 7    343733.551 1
 90 10 22 14 15 15.0000000  0  5 02 06 12 13 09
  23738233.094    15805522.826 5  12320766.737 1
  22322038.148     1215485.447 6   7877985.798 1
  21974755.836   -14428623.027 7 -10095136.583 2
  20815621.875   -19765527.963 7   2022969.125 2
  20496606.109   -20987434.443 7    352985.618 2
 90 10 22 14 15 30.0000000  0  5 02 06 12 13 09
  23745574.398    15844107.091 5  12350832.292 1
  22331587.750     1265666.389 6   7917087.757 1
  21968160.031   -14463276.940 7 -10122139.653 2
  20819867.570   -19743222.575 7   2040349.917 2
  20498897.023   -20975392.866 7    362368.633 1
 90 10 22 14 15 45.0000000  0  5 02 06 12 13 09
  23752928.406    15882748.030 5  12380941.994 1
  22341154.664     1315951.698 6   7956271.056 1
  21961586.484   -14497824.596 7 -10149059.934 2
  20824127.320   -19720835.408 7   2057794.433 2
  20501220.953   -20963182.554 7    371883.126 1
 90 10 22 14 16  0.0000000  0  5 02 06 12 13 09
  23760292.586    15921440.000 5  12411091.476 1
  22350744.016     1366335.363 6   7995530.990 1
  21955032.000   -14532271.418 7 -10175901.632 2
  20828403.219   -19698372.443 7   2075298.008 2
  20503575.289   -20950809.478 7    381524.452 2
 90 10 22 14 16 15.0000000  0  5 02 06 12 13 09
  23767665.070    15960180.339 5  12441278.629 1
  22360350.164     1416814.612 6   8034865.410 1
  21948495.250   -14566619.562 7 -10202666.441 2
  20832690.406   -19675836.117 7   2092858.751 2
  20505960.367   -20938276.073 7    391290.708 1
 90 10 22 14 16 30.0000000  0  5 02 06 12 13 09
  23775045.156    15998964.693 6  12471500.080 1
  22369973.922     1467384.573 6   8074270.510 1
  21941977.406   -14600873.179 7 -10229357.590 2
  20836991.867   -19653231.567 7   2110472.656 2
  20508374.836   -20925586.937 7    401178.316 1
 90 10 22 14 16 45.0000000  0  5 02 06 12 13 09
  23782433.758    16037795.552 6  12501757.765 1
  22379614.844     1518047.580 6   8113748.115 1
  21935477.195   -14635029.223 7 -10255972.708 2
  20841307.070   -19630556.244 7   2128141.703 2
  20510820.594   -20912739.426 7    411189.333 2
 90 10 22 14 17  0.0000000  0  5 02 06 12 13 09
  23789830.609    16076667.559 5  12532047.521 1
  22389271.563     1568798.092 6   8153293.901 1
  21928996.086   -14669092.593 7 -10282515.614 2
  20845634.398   -19607815.940 7   2145861.387 2
  20513293.328   -20899738.796 7    421319.667 2
 90 10 22 14 17 15.0000000  0  5 02 06 12 13 09
  23797237.031    16115600.660 5  12562384.894 1
  22398948.555     1619655.682 6   8192923.128 1
  21922534.750   -14703042.952 7 -10308970.458 2
  20849978.852   -19584990.757 7   2163647.214 2
  20515800.578   -20886565.052 7    431584.894 1
 90 10 22 14 17 30.0000000  0  5 02 06 12 13 09
  23804656.984    16154588.563 5  12592764.947 1
  22408647.195     1670613.661 6   8232630.582 1
  21916093.977   -14736886.412 7 -10335342.005 2
  20854335.977   -19562087.395 7   2181493.962 2
  20518339.703   -20873224.844 7    441979.831 1
 90 10 22 14 17 45.0000000  0  5 02 06 12 13 09
  23812087.367    16193627.453 5  12623184.764 1
  22418361.617     1721668.072 6   8272413.172 1
  21909674.086   -14770626.284 7 -10361632.833 2
  20858706.891   -19539109.873 7   2199398.494 2
  20520910.078   -20859721.583 7    452501.824 2
 90 10 22 14 18  0.0000000  0  5 02 06 12 13 09
  23819524.734    16232712.628 5  12653640.610 1
  22428094.367     1772813.987 6   8312267.071 1
  21903272.375   -14804266.848 7 -10387846.280 2
  20863093.758   -19516063.167 7   2217356.934 2
  20523509.125   -20846060.084 7    463147.114 2
 90 10 22 14 18 15.0000000  0  5 02 06 12 13 09
  23826974.594    16271847.015 5  12684134.803 1
  22437845.641     1824054.011 6   8352194.298 1
  21896890.289   -14837804.880 7 -10413979.832 2
  20867492.891   -19492944.598 7   2235371.370 2
  20526139.281   -20832237.505 7    473917.937 1
 90 10 22 14 18 30.0000000  0  5 02 06 12 13 09
  23834427.391    16311024.571 5  12714662.649 1
  22447612.695     1875381.665 6   8392189.810 1
  21890526.992   -14871246.084 7 -10440037.929 2
  20871904.641   -19469760.575 7   2253436.806 2
  20528799.766   -20818259.874 7    484809.570 1
 90 10 22 14 18 45.0000000  0  5 02 06 12 13 09
  23841896.906    16350261.056 5  12745236.406 1
  22457399.977     1926812.621 6   8432265.807 1
  21884185.633   -14904574.274 7 -10466007.965 2
  20876331.602   -19446495.455 7   2271565.436 2
  20531491.977   -20804111.353 7    495834.361 2
 90 10 22 14 19  0.0000000  0  5 02 06 12 13 09
  23849371.289    16389551.302 5  12775852.061 1
  22467205.930     1978341.311 6   8472417.962 1
  21877863.344   -14937794.226 7 -10491893.660 2
  20880774.086   -19423154.686 7   2289753.014 2
  20534215.625   -20789797.227 7    506988.201 2
 90 10 22 14 19 15.0000000  0  5 02 06 12 13 09
  23856854.898    16428886.131 5  12806502.470 1
  22477028.375     2029958.239 6   8512638.881 1
  21871560.086   -14970914.791 7 -10517701.912 2
  20885229.523   -19399747.777 7   2307992.136 2
  20536968.133   -20775326.742 7    518263.872 2
 90 10 22 14 19 30.0000000  0  5 02 06 12 13 09
  23864348.742    16468268.225 5  12837189.692 1
  22486867.766     2081665.943 6   8552930.529 1
  21865277.758   -15003932.849 7 -10543430.285 2
  20889695.516   -19376272.227 7   2326284.740 2
  20539752.094   -20760696.967 7    529663.672 2
 90 10 22 14 19 45.0000000  0  5 02 06 12 13 09
  23871853.586    16507693.766 5  12867910.779 1
  22496723.352     2133460.251 6   8593289.661 1
  21859012.797   -15036851.782 7 -10569081.419 2
  20894174.734   -19352732.051 7   2344627.699 2
  20542567.367   -20745911.787 7    541184.563 2
 90 10 22 14 20  0.0000000  0  5 02 06 12 13 09
  23879362.242    16547170.113 5  12898671.429 1
  22506597.484     2185348.185 6   8633721.742 1
  21852769.555   -15069663.932 7 -10594649.347 2
  20898669.180   -19329120.431 7   2363026.330 2
  20545410.828   -20730963.905 7    552832.240 2
 90 10 22 14 20 15.0000000  0  5 02 06 12 13 09
  23886884.719    16586692.447 5  12929467.934 1
  22516488.305     2237324.552 6   8674222.739 1
  21846545.039   -15102373.852 7 -10620137.612 2
  20903173.695   -19305442.213 7   2381476.855 2
  20548284.953   -20715858.426 7    564602.714 2
 90 10 22 14 20 30.0000000  0  5 02 06 12 13 09
  23894415.617    16626256.355 5  12960296.825 1
  22526394.945     2289384.832 6   8714789.127 1
  21840340.570   -15134985.362 7 -10645549.196 2
  20907692.602   -19281701.871 7   2399975.791 2
  20551189.227   -20700599.387 7    576492.847 2
 90 10 22 14 20 45.0000000  0  5 02 06 12 13 09
  23901955.398    16665875.468 5  12991168.758 1
  22536320.227     2341542.328 6   8755431.265 1
  21834155.500   -15167484.487 7 -10670873.203 2
  20912224.063   -19257886.309 7   2418533.343 2
  20554124.891   -20685173.309 7    588513.141 2
 90 10 22 14 21  0.0000000  0  5 02 06 12 13 09
  23909501.016    16705538.935 5  13022075.224 1
  22546261.680     2393785.898 6   8796140.468 1
  21827990.141   -15199881.750 7 -10696117.841 2
  20916768.656   -19234006.418 7   2437141.013 2
  20557089.305   -20669591.192 7    600655.021 2
 90 10 22 14 21 15.0000000  0  5 02 06 12 13 09
  23917062.750    16745263.150 5  13053029.028 1
  22556223.828     2446131.844 6   8836929.450 1
  21821847.125   -15232160.227 7 -10721269.918 2
  20921327.164   -19210045.852 7   2455811.546 2
  20560088.828   -20653836.252 7    612931.569 2
 90 10 22 14 21 30.0000000  0  5 02 06 12 13 09
  23924631.281    16785040.778 5  13084024.464 1
  22566202.438     2498572.252 6   8877792.038 1
  21815726.227   -15264327.187 7 -10746335.092 2
  20925900.047   -19186012.552 7   2474538.765 2
  20563116.914   -20637916.047 7    625336.897 2
 90 10 22 14 21 45.0000000  0  5 02 06 12 13 09
  23932212.023    16824871.685 5  13115061.414 1
  22576199.938     2551106.723 6   8918727.919 1
  21809626.570   -15296382.476 7 -10771313.261 2
  20930488.664   -19161906.823 7   2493322.415 2
  20566176.797   -20621831.041 7    637870.639 2
 90 10 22 14 22  0.0000000  0  5 02 06 12 13 09
  23939796.609    16864745.340 5  13146131.661 1
  22586213.266     2603724.551 6   8959728.753 1
  21803545.578   -15328335.948 7 -10796212.080 2
  20935088.414   -19137739.572 7   2512154.008 2
  20569267.281   -20605591.517 7    650524.785 2
 90 10 22 14 22 15.0000000  0  5 02 06 12 13 09
  23947398.750    16904675.825 5  13177246.187 1
  22596244.344     2656439.391 6   9000805.182 1
  21797487.977   -15360173.255 7 -10821020.394 2
  20939701.414   -19113496.916 7   2531044.356 2
  20572390.086   -20589183.492 7    663310.230 2
 90 10 22 14 22 30.0000000  0  5 02 06 12 13 09
  23955003.664    16944653.703 5  13208397.659 1
  22606293.242     2709241.382 6   9041949.517 1
  21791449.828   -15391903.647 7 -10845745.387 2
  20944326.719   -19089188.702 7   2549985.787 2
  20575543.062   -20572616.590 7    676219.481 2
 90 10 22 14 22 45.0000000  0  5 02 06 12 13 09
  23962623.289    16984684.353 5  13239590.239 1
  22616357.094     2762135.792 6   9083165.875 1
  21785433.477   -15423521.257 7 -10870382.506 2
  20948966.734   -19064809.606 7   2568982.446 2
  20578727.023   -20555885.228 7    689256.879 2
 90 10 22 14 23  0.0000000  0  5 02 06 12 13 09
  23970250.797    17024763.459 5  13270820.575 1
  22626439.586     2815118.229 6   9124450.824 1
  21779436.625   -15455029.815 7 -10894934.641 2
  20953617.984   -19040364.075 7   2588030.875 2
  20581940.414   -20538993.771 7    702419.025 2
 90 10 22 14 23 15.0000000  0  5 02 06 12 13 09
  23977882.461    17064875.927 5  13302076.906 1
  22636535.906     2868173.362 6   9165792.409 1
  21773458.898   -15486443.907 7 -10919413.171 2
  20958279.219   -19015867.201 7   2607119.314 2
  20585182.445   -20521957.111 7    715694.318 2
 90 10 22 14 23 30.0000000  0  5 02 06 12 13 09
  23985522.648    17105035.673 5  13333370.071 1
  22646647.508     2921314.596 6   9207201.094 1
  21767501.063   -15517749.501 7 -10943807.157 2
  20962951.719   -18991305.622 7   2626258.170 2
  20588456.102   -20504761.544 7    729093.429 2
 90 10 22 14 23 45.0000000  0  5 02 06 12 13 09
  23993178.930    17145244.967 5  13364701.852 1
  22656777.039     2974543.842 6   9248678.356 1
  21761566.258   -15548944.021 7 -10968114.590 2
  20967638.492   -18966677.285 7   2645449.049 2
  20591759.656   -20487404.957 7    742618.019 2
 90 10 22 14 24  0.0000000  0  5 02 06 12 13 09
  24000835.539    17185507.604 5  13396075.188 1
  22666924.492     3027864.827 6   9290227.094 1
  21755651.469   -15580023.145 7 -10992332.106 2
  20972340.859   -18941978.438 7   2664694.864 2
  20595091.914   -20469883.426 7    756271.132 1
 90 10 22 14 24 15.0000000  0  5 02 06 12 13 09
  24008507.969    17225817.070 5  13427485.038 1
  22677087.867     3081270.664 6   9331841.957 1
  21749758.266   -15610993.031 7 -11016464.501 2
  20977051.031   -18917216.119 7   2683990.149 2
  20598457.906   -20452203.554 7    770047.628 2
 90 10 22 14 24 30.0000000  0  5 02 06 12 13 09
  24016186.445    17266174.943 5  13458932.596 1
  22687265.492     3134762.465 6   9373523.808 1
  21743885.875   -15641851.783 7 -11040510.302 2
  20981777.180   -18892389.042 7   2703335.889 2
  20601851.719   -20434363.853 7    783948.669 2
 90 10 22 14 24 45.0000000  0  5 02 06 12 13 09
  24023881.133    17306581.635 5  13490418.204 1
  22697462.266     3188340.512 6   9415272.860 1
  21738035.352   -15672598.533 7 -11064468.825 2
  20986512.078   -18867496.826 7   2722732.391 2
  20605278.328   -20416364.003 7    797974.493 1
 90 10 22 14 25  0.0000000  0  5 02 06 12 13 09
  24031574.297    17347039.723 4  13521943.857 1
  22707674.094     3242006.921 6   9457090.759 1
  21732206.781   -15703230.528 7 -11088337.929 2
  20991263.906   -18842537.223 7   2742181.399 2
  20608732.172   -20398201.467 7    812127.090 2
 90 10 22 14 25 15.0000000  0  5 02 06 12 13 09
  24039283.172    17387537.089 4  13553500.125 1
  22717901.734     3295749.431 6   9498967.973 1
  21726397.195   -15733759.372 7 -11112126.658 2
  20996022.156   -18817522.582 7   2761673.294 2
  20612220.055   -20379888.381 7    826396.999 2
 90 10 22 14 25 30.0000000  0  5 02 06 12 13 09
  24047001.961    17428085.171 4  13585095.886 1
  22728145.828     3349579.191 6   9540913.168 1
  21720609.359   -15764173.185 7 -11135825.750 2
  21000794.680   -18792441.568 7   2781216.911 2
  20615734.438   -20361413.105 7    840793.286 2
 90 10 22 14 25 45.0000000  0  5 02 06 12 13 09
  24054725.891    17468679.554 4  13616727.760 1
  22738404.047     3403491.388 6   9582922.593 1
  21714842.781   -15794476.132 7 -11159438.457 2
  21005580.820   -18767299.059 7   2800808.442 2
  20619279.398   -20342780.442 7    855312.217 2
 90 10 22 14 26  0.0000000  0  5 02 06 12 13 09
  24062460.234    17509315.515 4  13648391.998 1
  22748677.938     3457481.134 6   9624992.444 1
  21709096.789   -15824672.436 7 -11182968.061 2
  21010375.828   -18742100.052 7   2820443.998 2
  20622854.695   -20323995.130 7    869950.092 2
 90 10 22 14 26 15.0000000  0  5 02 06 12 13 09
  24070200.164    17549998.526 4  13680092.926 1
  22758967.398     3511553.802 6   9667126.921 1
  21703372.258   -15854756.031 7 -11206409.838 2
  21015183.070   -18716838.893 7   2840127.990 2
  20626459.703   -20305051.299 7    884711.486 2
 90 10 22 14 26 30.0000000  0  5 02 06 12 13 09
  24077948.570    17590732.035 3  13711833.179 1
  22769273.258     3565712.220 6   9709328.198 1
  21697669.625   -15884723.493 7 -11229761.129 2
  21020001.789   -18691512.776 7   2859862.603 2
  20630096.484   -20285945.926 7    899598.760 2
 90 10 22 14 26 45.0000000  0  5 02 06 12 13 09
  24085709.727    17631505.779 3  13743604.788 1
  22779594.313     3619945.792 6   9751588.042 1
  21691987.258   -15914584.840 7 -11253029.729 2
  21024831.859   -18666132.411 7   2879639.483 2
  20633760.602   -20266689.534 7    914603.707 2
 90 10 22 14 27  0.0000000  0  5 02 06 12 13 09
  24093477.516    17672332.465 3  13775417.654 1
  22789930.914     3674267.038 6   9793916.205 1
  21686326.938   -15944326.868 7 -11276205.352 2
  21029675.703   -18640685.041 7   2899468.567 2
  20637454.398   -20247269.180 7    929736.423 2
 90 10 22 14 27 15.0000000  0  5 02 06 12 13 09
  24101254.289    17713202.136 4  13807263.997 1
  22800283.250     3728665.898 6   9836304.839 1
  21680688.133   -15973958.979 7 -11299295.329 2
  21034529.188   -18615180.697 7   2919342.057 2
  20641178.656   -20227694.640 7    944989.277 2
 90 10 22 14 27 30.0000000  0  5 02 06 12 13 09
  24109045.039    17754114.354 4  13839143.538 1
  22810649.789     3783141.606 6   9878753.366 1
  21675071.078   -16003481.157 7 -11322299.638 2
  21039391.031   -18589619.980 7   2939259.473 2
  20644933.453   -20207966.415 7    960361.891 2
 90 10 22 14 27 45.0000000  0  5 02 06 12 13 09
  24116836.219    17795066.214 4  13871053.917 1
  22821028.789     3837690.763 6   9921259.116 1
  21669473.102   -16032896.112 7 -11345220.401 2
  21044264.844   -18564006.314 7   2959218.146 2
  20648719.148   -20188087.753 7    975851.728 2
 90 10 22 14 28  0.0000000  0  5 02 06 12 13 09
  24124635.063    17836074.334 4  13903008.141 1
  22831426.547     3892329.853 6   9963834.939 1
  21663898.953   -16062186.866 7 -11368044.379 2
  21049154.336   -18538323.116 7   2979230.999 2
  20652531.727   -20168042.330 7    991471.508 2
 90 10 22 14 28 15.0000000  0  5 02 06 12 13 09
  24132450.023    17877131.649 4  13935000.715 1
  22841839.695     3947051.412 6  10006475.040 1
  21658348.117   -16091360.138 7 -11390776.814 2
  21054051.734   -18512577.586 7   2999292.427 2
  20656376.617   -20147836.860 7   1007216.002 2
 90 10 22 14 28 30.0000000  0  5 02 06 12 13 09
  24140273.273    17918238.221 4  13967031.673 1
  22852269.047     4001855.207 6  10049179.205 1
  21652819.555   -16120415.416 7 -11413417.304 2
  21058963.367   -18486770.068 7   3019402.148 2
  20660253.453   -20127471.456 7   1023085.119 2
 90 10 22 14 28 45.0000000  0  5 02 06 12 13 09
  24148105.359    17959392.311 5  13999099.664 1
  22862714.078     4056739.223 6  10091945.884 1
  21647311.922   -16149354.018 7 -11435966.879 2
  21063885.148   -18460902.546 7   3039558.630 2
  20664157.391   -20106947.874 7   1039077.492 2
 90 10 22 14 29  0.0000000  0  5 02 06 12 13 09
  24155944.867    18000586.400 5  14031198.818 1
  22873170.797     4111695.604 6  10134768.956 1
  21641825.438   -16178183.235 7 -11458431.217 2
  21068818.633   -18434982.846 7   3059755.770 2
  20668091.836   -20086273.889 7   1055187.057 2
 90 10 22 14 29 15.0000000  0  5 02 06 12 13 09
  24163789.203    18041832.411 4  14063338.414 1
  22883644.281     4166736.093 6  10177657.546 1
  21636362.664   -16206890.701 7 -11480800.688 2
  21073760.508   -18408999.302 7   3080002.655 2
  20672059.172   -20065437.500 7   1071423.173 2
 90 10 22 14 29 30.0000000  0  5 02 06 12 13 09
  24171652.188    18083132.087 4  14095519.835 1
  22894135.398     4221862.133 6  10220612.822 1
  21630923.344   -16235474.253 7 -11503073.598 2
  21078719.242   -18382950.306 7   3100300.544 2
  20676053.180   -20044436.873 7   1087787.271 2
 90 10 22 14 29 45.0000000  0  5 02 06 12 13 09
  24179523.422    18124487.620 5  14127744.796 1
  22904642.891     4277075.479 6  10263636.126 1
  21625507.555   -16263931.533 7 -11525248.116 2
  21083691.555   -18356833.903 7   3120650.954 2
  20680079.664   -20023270.048 7   1104280.872 2
 90 10 22 14 30  0.0000000  0  5 02 06 12 13 09
  24187406.844    18165932.149 4  14160039.099 1
  22915171.813     4332408.986 6  10306753.046 1
  21620123.586   -16292228.861 7 -11547297.995 2
  21088679.414   -18330617.169 7   3141079.549 2
  20684146.195   -20001904.067 7   1120929.657 2
 90 10 22 14 30 15.0000000  0  5 02 06 12 13 09
  24195306.102    18207429.138 4  14192374.257 1
  22925716.664     4387825.974 6  10349935.027 1
  21614762.500   -16320402.436 7 -11569251.446 2
  21093679.789   -18304336.732 7   3161557.778 2
  20688244.367   -19980375.458 7   1137705.163 2
 90 10 22 14 30 30.0000000  0  5 02 06 12 13 09
  24203202.375    18248939.023 4  14224719.492 1
  22936271.328     4443286.498 5  10393150.919 1
  21609416.812   -16348491.500 7 -11591139.043 2
  21098686.422   -18278032.647 7   3182054.437 2
  20692364.859   -19958723.725 7   1154576.615 2
 90 10 22 14 30 45.0000000  0  5 02 06 12 13 09
  24211100.570    18290440.331 4  14257058.030 1
  22946831.383     4498769.028 6  10436383.965 1
  21604083.664   -16376516.819 7 -11612976.970 2
  21103691.766   -18251726.318 7   3202552.842 2
  20696504.039   -19936970.242 7   1171527.352 2
 90 10 22 14 31  0.0000000  0  5 02 06 12 13 09
  24219002.602    18331958.979 4  14289410.092 1
  22957396.008     4554299.040 5  10479654.024 1
  21598767.484   -16404452.190 7 -11634744.804 2
  21108703.813   -18225391.941 7   3223073.099 2
  20700666.531   -19915089.455 7   1188577.286 2
 90 10 22 14 31 15.0000000  0  5 02 06 12 13 09
  24226910.195    18373510.004 4  14321787.365 1
  22967974.453     4609891.193 5  10522972.482 1
  21593472.203   -16432282.414 7 -11656430.706 2
  21113722.242   -18199014.894 7   3243626.610 2
  20704856.508   -19893066.232 7   1205738.208 2
 90 10 22 14 31 30.0000000  0  5 02 06 12 13 09
  24234822.828    18415101.135 5  14354195.911 1
  22978568.281     4665552.994 5  10566345.227 1
  21588197.461   -16459999.328 7 -11678028.316 2
  21118749.617   -18172587.471 7   3264219.373 2
  20709078.625   -19870893.067 7   1223015.965 2
 90 10 22 14 31 45.0000000  0  5 02 06 12 13 09
  24242749.492    18456747.781 5  14386647.719 1
  22989176.000     4721299.383 5  10609783.871 1
  21582948.063   -16487587.453 7 -11699525.571 2
  21123791.063   -18146094.879 7   3284862.910 2
  20713330.734   -19848554.767 7   1240422.402 2
 90 10 22 14 32  0.0000000  0  5 02 06 12 13 09
  24250684.680    18498448.754 5  14419141.858 1
  22999801.000     4777129.046 6  10653287.410 1
  21577721.797   -16515047.419 7 -11720922.966 2
  21128847.336   -18119538.506 7   3305556.153 2
  20717608.805   -19826052.393 7   1257956.691 2
 90 10 22 14 32 15.0000000  0  5 02 06 12 13 09
  24258627.383    18540185.382 5  14451663.745 1
  23010435.750     4833022.871 6  10696840.956 1
  21572517.570   -16542397.502 7 -11742234.736 2
  21133905.273   -18092937.217 7   3326284.394 2
  20721922.219   -19803404.649 7   1275604.252 2
 90 10 22 14 32 30.0000000  0  5 02 06 12 13 09
  24266568.422    18581918.281 5  14484182.734 1
  23021078.797     4888941.303 6  10740413.664 1
  21567327.094   -16569676.715 7 -11763491.280 2
  21138973.070   -18066330.623 7   3347016.767 2
  20726249.664   -19780651.129 7   1293334.235 2
 90 10 22 14 32 45.0000000  0  5 02 06 12 13 09
  24274521.937    18623696.851 5  14516737.333 1
  23031732.305     4944933.415 6  10784043.790 1
  21562158.250   -16596835.326 7 -11784653.851 2
  21144042.867   -18039669.237 7   3367791.833 2
  20730612.656   -19757742.715 7   1311184.917 2
 90 10 22 14 33  0.0000000  0  5 02 06 12 13 09
  24282478.797    18665521.282 5  14549327.670 1
  23042400.727     5000999.139 5  10827731.267 1
  21557014.109   -16623872.660 7 -11805721.922 2
  21149129.602   -18012953.144 7   3388609.530 2
  20734996.672   -19734678.819 7   1329156.749 2
 90 10 22 14 33 15.0000000  0  5 02 06 12 13 09
  24290448.203    18707396.030 5  14581957.217 1
  23053083.930     5057142.570 5  10871479.294 1
  21551893.109   -16650784.008 7 -11826691.823 2
  21154224.641   -17986178.332 7   3409472.978 2
  20739418.289   -19711455.279 7   1347252.994 2
 90 10 22 14 33 30.0000000  0  5 02 06 12 13 09
  24298429.102    18749327.088 5  14614630.604 1
  23063785.117     5113369.496 5  10915292.393 1
  21546797.094   -16677562.948 7 -11847558.543 2
  21159329.102   -17959339.015 7   3430386.693 2
  20743871.445   -19688066.251 7   1365478.173 2
 90 10 22 14 33 45.0000000  0  5 02 06 12 13 09
  24306418.570    18791335.602 5  14647364.398 1
  23074505.336     5169700.890 5  10959186.886 1
  21541731.023   -16704187.759 7 -11868305.165 2
  21164453.250   -17932413.969 7   3451367.208 2
  20748356.227   -19664490.613 7   1383848.766 2
 90 10 22 14 34  0.0000000  0  5 02 06 12 13 09
  24314419.719    18833379.391 5  14680125.647 1
  23085235.820     5226094.121 5  11003129.570 1
  21536685.328   -16730700.433 7 -11888964.409 2
  21169585.711   -17905445.739 7   3472381.381 2
  20752868.914   -19640770.423 7   1402332.000 2
 90 10 22 14 34 15.0000000  0  5 02 06 12 13 09
  24322426.734    18875435.595 5  14712896.578 1
  23095975.484     5282526.044 5  11047102.394 1
  21531657.539   -16757123.549 7 -11909553.862 2
  21174721.680   -17878457.348 7   3493411.254 2
  20757405.086   -19616928.887 7   1420909.787 2
 90 10 22 14 34 30.0000000  0  5 02 06 12 13 09
  24330437.836    18917537.714 5  14745703.312 1
  23106726.938     5339029.931 5  11091131.303 1
  21526653.250   -16783423.134 7 -11930047.064 2
  21179866.664   -17851415.456 7   3514482.821 2
  20761972.609   -19592932.609 7   1439608.154 2
 90 10 22 14 34 45.0000000  0  5 02 06 12 13 09
  24338459.687    18959684.635 5  14778544.950 1
  23117493.359     5395604.289 6  11135215.122 1
  21521671.719   -16809600.070 7 -11950444.696 2
  21185022.836   -17824321.764 7   3535594.754 2
  20766568.352   -19568782.580 7   1458426.322 2
 90 10 22 14 35  0.0000000  0  5 02 06 12 13 09
  24346485.703    19001872.565 5  14811418.516 1
  23128272.305     5452245.105 6  11179350.716 1
  21516712.797   -16835657.721 7 -11970749.373 2
  21190185.383   -17797179.970 7   3556744.162 2
  20771194.156   -19544482.870 7   1477361.130 2
 90 10 22 14 35 15.0000000  0  5 02 06 12 13 09
  24354524.609    19044109.406 5  14844330.188 1
  23139064.297     5508959.874 6  11223543.956 1
  21511777.688   -16861587.861 7 -11990954.696 2
  21195364.875   -17769982.449 7   3577936.997 2
  20775847.672   -19520025.753 7   1496418.586 2
 90 10 22 14 35 30.0000000  0  5 02 06 12 13 09
  24362572.352    19086409.535 5  14877291.186 1
  23149871.836     5565762.806 6  11267805.880 1
  21506870.859   -16887375.661 7 -12011049.104 2
  21200555.594   -17742714.849 7   3599184.443 2
  20780530.094   -19495396.735 7   1515609.996 2
 90 10 22 14 35 45.0000000  0  5 02 06 12 13 09
  24370633.227    19128768.190 5  14910297.789 1
  23160698.945     5622648.746 6  11312132.483 1
  21501990.109   -16913025.504 7 -12031036.009 2
  21205751.586   -17715382.535 7   3620482.314 2
  20785252.008   -19470600.665 7   1534931.575 2
 90 10 22 14 36  0.0000000  0  5 02 06 12 13 09
  24378704.578    19171184.290 5  14943349.165 1
  23171540.141     5679616.417 5  11356522.774 1
  21497135.992   -16938537.960 7 -12050915.862 2
  21210967.711   -17687986.461 7   3641829.870 2
  20790001.844   -19445638.838 7   1554382.316 2
 90 10 22 14 36 15.0000000  0  5 02 06 12 13 09
  24386781.766    19213628.422 5  14976422.372 1
  23182390.047     5736635.991 5  11400953.507 1
  21492300.820   -16963942.278 7 -12070711.450 2
  21216186.078   -17660556.373 7   3663203.921 2
  20794777.117   -19420540.892 7   1573939.121 2
 90 10 22 14 36 30.0000000  0  5 02 06 12 13 09
  24394866.391    19256116.380 5  15009529.704 1
  23193253.242     5793722.944 5  11445436.746 1
  21487490.234   -16989222.493 7 -12090410.337 2
  21221418.313   -17633076.652 7   3684616.654 2
  20799582.648   -19395291.087 7   1593614.258 2
 90 10 22 14 36 45.0000000  0  5 02 06 12 13 09
  24402956.156    19298617.220 5  15042647.131 1
  23204122.203     5850846.136 5  11489948.213 1
  21482697.078   -17014409.103 7 -12110036.286 2
  21226648.500   -17605578.552 7   3706043.703 2
  20804412.188   -19369920.374 7   1613383.609 2
 90 10 22 14 37  0.0000000  0  5 02 06 12 13 09
  24411055.367    19341178.262 5  15075811.409 1
  23215009.078     5908052.661 5  11534524.634 1
  21477931.945   -17039454.281 7 -12129552.026 2
  21231895.695   -17578014.687 7   3727522.002 2
  20809268.086   -19344381.612 7   1633283.911 2
 90 10 22 14 37 15.0000000  0  5 02 06 12 13 09
  24419164.547    19383792.659 5  15109017.290 1
  23225909.828     5965335.330 5  11579160.372 1
  21473190.844   -17064364.441 7 -12148962.553 2
  21237151.734   -17550392.241 7   3749045.948 2
  20814159.656   -19318681.406 7   1653310.008 2
 90 10 22 14 37 30.0000000  0  5 02 06 12 13 09
  24427282.313    19426453.706 5  15142259.536 1
  23236825.133     6022687.130 5  11623849.972 1
  21468476.523   -17089146.102 7 -12168272.956 2
  21242416.773   -17522718.267 7   3770610.047 2
  20819082.234   -19292826.787 7   1673456.429 2
 90 10 22 14 37 45.0000000  0  5 02 06 12 13 09
  24435406.914    19469164.446 4  15175540.481 1
  23247749.492     6080110.801 5  11668595.588 1
  21463785.109   -17113795.892 7 -12187480.600 2
  21247691.352   -17494989.901 7   3792216.529 2
  20824033.586   -19266815.033 7   1693725.294 2
 90 10 22 14 38  0.0000000  0  5 02 06 12 13 09
  24443542.242    19511913.809 4  15208851.511 1
  23258689.469     6137594.877 5  11713388.263 1
  21459117.250   -17138324.564 7 -12206593.866 2
  21252976.445   -17467218.314 7   3813856.689 2
  20829010.789   -19240657.159 7   1714108.015 2
 90 10 22 14 38 15.0000000  0  5 02 06 12 13 09
  24451686.484    19554695.854 4  15242188.039 1
  23269639.055     6195133.358 5  11758223.337 1
  21454471.070   -17162737.560 7 -12225616.992 2
  21258268.547   -17439409.522 7   3835525.846 2
  20834015.633   -19214359.126 7   1734599.953 2
 90 10 22 14 38 30.0000000  0  5 02 06 12 13 09
  24459837.133    19597525.967 3  15275562.012 1
  23280601.219     6252741.306 5  11803112.538 1
  21449851.180   -17187019.135 7 -12244537.715 2
  21263571.828   -17411548.477 7   3857235.710 2
  20839049.336   -19187905.670 7   1755213.001 2
 90 10 22 14 38 45.0000000  0  5 02 06 12 13 09
  24467995.906    19640400.414 3  15308970.505 1
  23291576.102     6310414.592 5  11848052.634 1
  21445254.750   -17211172.616 7 -12263358.626 2
  21268884.164   -17383638.835 7   3878983.442 2
  20844109.555   -19161300.637 7   1775944.162 2
 90 10 22 14 39  0.0000000  0  5 02 06 12 13 09
  24476165.508    19683320.383 3  15342414.509 1
  23302563.023     6368154.082 5  11893044.344 1
  21440683.523   -17235196.572 7 -12282078.608 2
  21274205.773   -17355679.854 7   3900769.623 2
  20849198.977   -19134543.130 7   1796794.133 2
 90 10 22 14 39 15.0000000  0  5 02 06 12 13 09
  24484338.617    19726289.148 3  15375896.493 1
  23313564.180     6425962.830 5  11938090.014 1
  21436137.602   -17259087.314 7 -12300694.786 2
  21279533.664   -17327668.442 7   3922596.657 2
  20854323.484   -19107629.867 7   1817765.474 2
 90 10 22 14 39 30.0000000  0  5 02 06 12 13 09
  24492524.266    19769295.491 2  15409407.800 1
  23324576.180     6483829.161 5  11983180.537 1
  21431614.195   -17282855.854 7 -12319215.741 2
  21284871.891   -17299616.210 7   3944455.500 2
  20859473.539   -19080572.242 7   1838849.301 2
 90 10 22 14 39 45.0000000  0  5 02 06 12 13 09
  24500717.102          -0.47312
  23335602.273     6541769.967 5  12028329.111 1
  21427117.742   -17306484.675 7 -12337627.822 2
  21290222.391   -17271506.129 7   3966359.421 1
  20864648.813   -19053353.294 7   1860058.838 2
 90 10 22 14 40  0.0000000  0  5 02 06 12 13 09
  24508920.336       43104.540 2
  23346640.430     6599774.263 5  12073527.153 1
  21422645.625   -17329984.123 7 -12355939.099 2
  21295576.586   -17243349.113 7   3988299.912 2
  20869861.789   -19025983.822 7   1881385.667 2
 90 10 22 14 40 15.0000000  0  5 02 06 12 13 09
  24517132.820       86252.065 3
  23357692.227     6657840.329 5  12118773.323 1
  21418197.609   -17353355.229 7 -12374150.367 2
  21300947.492   -17215146.858 7   4010275.657 1
  20875093.508   -18998465.228 7   1902828.691 2
 90 10 22 14 40 30.0000000  0  4 06 12 13 09
  23368751.414     6715972.413 5  12164070.934 1
  21413775.531   -17376593.057 7 -12392257.783 2
  21306324.000   -17186894.918 7   4032290.114 1
  20880363.805   -18970793.354 7   1924391.152 2
 90 10 22 14 40 45.0000000  0  4 06 12 13 09
  23379825.398     6774160.609 5  12209412.273 1
  21409378.703   -17399706.875 7 -12410268.562 2
  21311703.922   -17158603.149 7   4054335.607 1
  20885656.695   -18942977.746 7   1946065.620 2
 90 10 22 14 41  0.0000000  0  5 02 06 12 13 09
  24541813.180          -0.27413
  23390909.445     6832411.388 5  12254802.367 1
  21405005.391   -17422689.665 7 -12428177.241 2
  21317100.141   -17130264.836 7   4076417.370 1
  20890975.539   -18915012.005 7   1967857.072 2
 90 10 22 14 41 15.0000000  0  5 02 06 12 13 09
  24550053.547       43313.274 3
  23402005.164     6890717.784 5  12300235.800 1
  21400654.547   -17445547.772 7 -12445988.769 2
  21322499.594   -17101886.821 7   4098530.070 1
  20896323.758   -18886902.542 7   1989760.514 2
 90 10 22 14 41 30.0000000  0  5 02 06 12 13 09
  24558302.813       86657.496 3
  23413110.023     6949072.684 5  12345707.036 1
  21396327.023   -17468287.538 7 -12463708.085 2
  21327906.953   -17073476.344 7   4120668.061 1
  20901699.781   -18858656.602 7   2011770.302 2
 90 10 22 14 41 45.0000000  0  5 02 06 12 13 09
  24566555.875      130024.425 3
  23424222.313     7007467.757 5  12391209.570 1
  21392020.570   -17490916.757 7 -12481341.249 2
  21333318.609   -17045041.456 7
  20907099.594   -18830282.150 7
 90 10 22 14 42  0.0000000  0  5 02 06 12 13 09
  24574819.578      173434.866 3
  23435344.586     7065923.673 5  12436759.513 1
  21387739.477   -17513414.091 7 -12498871.658 2
  21338738.109   -17016561.327 7
  20912526.961   -18801758.522 7
 90 10 22 14 42 15.0000000  0  5 02 06 12 13 09
  24583087.930      216891.506 3        -0.46911
  23446479.453     7124442.633 5  12482358.575 1
  21383484.570   -17535776.805 7 -12516297.163 2
  21344167.453   -16988033.600 7   4187246.712 2
  20917982.906   -18773083.305 7   2078450.686 2
 90 10 22 14 42 30.0000000  0  5 02 06 12 13 09
  24591360.711      260371.638 3     33880.027 1
  23457626.195     7183001.901 5  12527989.055 1
  21379251.031   -17558027.011 7 -12533635.002 2
  21349599.461   -16959481.348 7   4209495.174 1
  20923464.406   -18744279.005 7   2100895.562 2
 90 10 22 14 42 45.0000000  0  5 02 06 12 13 09
  24599642.984      303889.944 3     67790.225 1
  23468779.430     7241615.701 5  12573662.020 1
  21375041.063   -17580149.717 7 -12550873.489 2
  21355036.953   -16930889.877 7   4231774.211 1
  20928975.961   -18715331.445 7   2123452.067 2
 90 10 22 14 43  0.0000000  0  5 02 06 12 13 09
  24607929.977      347458.533 3    101739.621 1
  23479946.172     7300295.781 5  12619386.635 1
  21370857.344   -17602132.567 7 -12568002.998 2
  21360489.391   -16902247.245 7   4254093.107 2
  20934515.063   -18686228.377 7   2146129.748 2
